Black River (Missouri), Leeper (07062500)

StateMissouriLatestHigh (1720 cfs)
RiverBlack RiverRatingObservedEstimated
Updated2020-08-06 9:30 (1 hour ago)Flood - The river is flooding. Obstacles can be treacherous or deadly. The river should be avoided at this stage for casual trips and definitely for the inexperienced. Trips should be attempted only with protective gear and equipment.Flood(none)3460
Discharge1720 cfs (median: 343 cfs)High - The river is high and potentially dangerous, especially for the young and / or inexperienced. Normal stream obstacles are sometimes difficult to navigate. Extended distances can be attempted, but canoe travel may not be advisable.High(none)1125
Height4.87 feetGood - Conditions are ideal for a canoe or kayak. Boats typically will drag on fewer than one-quarter of riffles, if at all, and portages are unnecessary or rare. Normal float lengths can be attempted without a problem.Good(none)691
TrendRising (rising over 24 hours)Low - River is low but can still be floated. Some riffles are okay but most come with significant dragging and might need a portage. Float lengths should be reduced to accommodate low flow, dragging, and portages.Low(none)413
USGSExternal icon USGS Site (External icon Google Maps)Poor - River is too low to float comfortably. Most or all riffles will drag or must be portaged and some obstacles (such as slick shelf rock) cause undue problems. Avoid the river at this stage for casual paddling trips.Poor(none)218

Trending Data

Plot Image

Trips for Black River (Missouri), Leeper (07062500)

DateStartEndDistanceConditionDischargeHeightFishingDetails

A total of 0 rows are displayed.

Condition Descriptions

Fishing Conditions

Fish Species

Notes

Classic Trip List

The classic River Trips application is still available for use. It is updated with the new system using a data retrofit. It is no longer maintained. The original River Trips application is no longer updated (as of 1 Dec 2016) but can be checked for errors or for the condition of the data before it was converted to the new system.

Gauge Data Table

ObservationHeightDischargeMaximum
Discharge
Minimum
Discharge
Mean
Discharge
P05P10P20P25P50
(Median)
P75P80P90P95
2020-08-06 09:30 4.87 1720 3360 (1951) 203 (1954) 553 220 231 253 258 343 503 550 1220 2020
2020-08-06 08:30 4.86 1710 3360 (1951) 203 (1954) 553 220 231 253 258 343 503 550 1220 2020
2020-08-06 07:30 4.87 1720 3360 (1951) 203 (1954) 553 220 231 253 258 343 503 550 1220 2020
2020-08-06 06:30 4.87 1720 3360 (1951) 203 (1954) 553 220 231 253 258 343 503 550 1220 2020
2020-08-06 05:30 4.86 1710 3360 (1951) 203 (1954) 553 220 231 253 258 343 503 550 1220 2020
2020-08-06 04:30 4.84 1700 3360 (1951) 203 (1954) 553 220 231 253 258 343 503 550 1220 2020
2020-08-06 03:30 4.84 1700 3360 (1951) 203 (1954) 553 220 231 253 258 343 503 550 1220 2020
2020-08-06 02:30 4.83 1690 3360 (1951) 203 (1954) 553 220 231 253 258 343 503 550 1220 2020
2020-08-06 01:30 4.81 1680 3360 (1951) 203 (1954) 553 220 231 253 258 343 503 550 1220 2020
2020-08-06 00:30 4.80 1670 3360 (1951) 203 (1954) 553 220 231 253 258 343 503 550 1220 2020
2020-08-05 23:30 4.74 1630 3280 (1951) 194 (1954) 546 220 230 255 270 337 466 517 1210 1960
2020-08-05 22:30 4.70 1610 3280 (1951) 194 (1954) 546 220 230 255 270 337 466 517 1210 1960
2020-08-05 21:30 4.65 1570 3280 (1951) 194 (1954) 546 220 230 255 270 337 466 517 1210 1960
2020-08-05 20:30 4.58 1530 3280 (1951) 194 (1954) 546 220 230 255 270 337 466 517 1210 1960
2020-08-05 19:30 4.51 1490 3280 (1951) 194 (1954) 546 220 230 255 270 337 466 517 1210 1960
2020-08-05 18:30 4.49 1470 3280 (1951) 194 (1954) 546 220 230 255 270 337 466 517 1210 1960
2020-08-05 17:30 4.48 1470 3280 (1951) 194 (1954) 546 220 230 255 270 337 466 517 1210 1960
2020-08-05 16:30 4.48 1470 3280 (1951) 194 (1954) 546 220 230 255 270 337 466 517 1210 1960
2020-08-05 15:30 4.48 1470 3280 (1951) 194 (1954) 546 220 230 255 270 337 466 517 1210 1960
2020-08-05 14:30 4.48 1470 3280 (1951) 194 (1954) 546 220 230 255 270 337 466 517 1210 1960
2020-08-05 13:30 4.47 1460 3280 (1951) 194 (1954) 546 220 230 255 270 337 466 517 1210 1960
2020-08-05 12:30 4.47 1460 3280 (1951) 194 (1954) 546 220 230 255 270 337 466 517 1210 1960
2020-08-05 11:30 4.49 1470 3280 (1951) 194 (1954) 546 220 230 255 270 337 466 517 1210 1960
2020-08-05 10:30 4.48 1470 3280 (1951) 194 (1954) 546 220 230 255 270 337 466 517 1210 1960
2020-08-05 09:30 4.47 1460 3280 (1951) 194 (1954) 546 220 230 255 270 337 466 517 1210 1960
2020-08-05 08:30 4.48 1470 3280 (1951) 194 (1954) 546 220 230 255 270 337 466 517 1210 1960
2020-08-05 07:30 4.47 1460 3280 (1951) 194 (1954) 546 220 230 255 270 337 466 517 1210 1960
2020-08-05 06:30 4.49 1470 3280 (1951) 194 (1954) 546 220 230 255 270 337 466 517 1210 1960
2020-08-05 05:30 4.48 1470 3280 (1951) 194 (1954) 546 220 230 255 270 337 466 517 1210 1960
2020-08-05 04:30 4.47 1460 3280 (1951) 194 (1954) 546 220 230 255 270 337 466 517 1210 1960
2020-08-05 03:30 4.46 1460 3280 (1951) 194 (1954) 546 220 230 255 270 337 466 517 1210 1960
2020-08-05 02:30 4.47 1460 3280 (1951) 194 (1954) 546 220 230 255 270 337 466 517 1210 1960
2020-08-05 01:30 4.46 1460 3280 (1951) 194 (1954) 546 220 230 255 270 337 466 517 1210 1960
2020-08-05 00:30 4.46 1460 3280 (1951) 194 (1954) 546 220 230 255 270 337 466 517 1210 1960
2020-08-04 23:30 4.47 1460 3340 (1957) 186 (1954) 535 219 224 253 265 338 450 498 1200 1980
2020-08-04 22:30 4.45 1450 3340 (1957) 186 (1954) 535 219 224 253 265 338 450 498 1200 1980
2020-08-04 21:30 4.43 1440 3340 (1957) 186 (1954) 535 219 224 253 265 338 450 498 1200 1980
2020-08-04 20:30 4.43 1440 3340 (1957) 186 (1954) 535 219 224 253 265 338 450 498 1200 1980
2020-08-04 19:30 4.43 1440 3340 (1957) 186 (1954) 535 219 224 253 265 338 450 498 1200 1980
2020-08-04 18:30 4.43 1440 3340 (1957) 186 (1954) 535 219 224 253 265 338 450 498 1200 1980
2020-08-04 17:30 4.39 1410 3340 (1957) 186 (1954) 535 219 224 253 265 338 450 498 1200 1980
2020-08-04 16:30 4.38 1410 3340 (1957) 186 (1954) 535 219 224 253 265 338 450 498 1200 1980
2020-08-04 15:30 4.35 1390 3340 (1957) 186 (1954) 535 219 224 253 265 338 450 498 1200 1980
2020-08-04 14:30 4.32 1370 3340 (1957) 186 (1954) 535 219 224 253 265 338 450 498 1200 1980
2020-08-04 13:30 4.28 1350 3340 (1957) 186 (1954) 535 219 224 253 265 338 450 498 1200 1980
2020-08-04 12:30 4.22 1310 3340 (1957) 186 (1954) 535 219 224 253 265 338 450 498 1200 1980
2020-08-04 11:30 4.15 1270 3340 (1957) 186 (1954) 535 219 224 253 265 338 450 498 1200 1980
2020-08-04 10:30 4.14 1270 3340 (1957) 186 (1954) 535 219 224 253 265 338 450 498 1200 1980
2020-08-04 09:30 4.12 1250 3340 (1957) 186 (1954) 535 219 224 253 265 338 450 498 1200 1980
2020-08-04 08:30 4.12 1250 3340 (1957) 186 (1954) 535 219 224 253 265 338 450 498 1200 1980
2020-08-04 07:30 4.12 1250 3340 (1957) 186 (1954) 535 219 224 253 265 338 450 498 1200 1980
2020-08-04 06:30 4.12 1250 3340 (1957) 186 (1954) 535 219 224 253 265 338 450 498 1200 1980
2020-08-04 05:30 4.11 1250 3340 (1957) 186 (1954) 535 219 224 253 265 338 450 498 1200 1980
2020-08-04 04:30 4.11 1250 3340 (1957) 186 (1954) 535 219 224 253 265 338 450 498 1200 1980
2020-08-04 03:30 4.11 1250 3340 (1957) 186 (1954) 535 219 224 253 265 338 450 498 1200 1980
2020-08-04 02:30 4.11 1250 3340 (1957) 186 (1954) 535 219 224 253 265 338 450 498 1200 1980
2020-08-04 01:30 4.09 1240 3340 (1957) 186 (1954) 535 219 224 253 265 338 450 498 1200 1980
2020-08-04 00:30 4.08 1230 3340 (1957) 186 (1954) 535 219 224 253 265 338 450 498 1200 1980
2020-08-03 23:30 4.08 1230 3280 (1951) 188 (1954) 560 213 226 252 267 341 483 551 1230 2000
2020-08-03 22:30 4.06 1220 3280 (1951) 188 (1954) 560 213 226 252 267 341 483 551 1230 2000
2020-08-03 21:30 4.05 1210 3280 (1951) 188 (1954) 560 213 226 252 267 341 483 551 1230 2000
2020-08-03 20:30 4.03 1200 3280 (1951) 188 (1954) 560 213 226 252 267 341 483 551 1230 2000
2020-08-03 19:30 4.02 1200 3280 (1951) 188 (1954) 560 213 226 252 267 341 483 551 1230 2000
2020-08-03 18:30 3.96 1160 3280 (1951) 188 (1954) 560 213 226 252 267 341 483 551 1230 2000
2020-08-03 17:30 3.94 1150 3280 (1951) 188 (1954) 560 213 226 252 267 341 483 551 1230 2000
2020-08-03 16:30 3.87 1110 3280 (1951) 188 (1954) 560 213 226 252 267 341 483 551 1230 2000
2020-08-03 15:30 3.80 1070 3280 (1951) 188 (1954) 560 213 226 252 267 341 483 551 1230 2000
2020-08-03 14:30 3.70 1020 3280 (1951) 188 (1954) 560 213 226 252 267 341 483 551 1230 2000
2020-08-03 13:30 3.59 962 3280 (1951) 188 (1954) 560 213 226 252 267 341 483 551 1230 2000
2020-08-03 12:30 3.43 880 3280 (1951) 188 (1954) 560 213 226 252 267 341 483 551 1230 2000
2020-08-03 11:30 3.28 806 3280 (1951) 188 (1954) 560 213 226 252 267 341 483 551 1230 2000
2020-08-03 10:30 3.16 748 3280 (1951) 188 (1954) 560 213 226 252 267 341 483 551 1230 2000
2020-08-03 09:30 3.15 744 3280 (1951) 188 (1954) 560 213 226 252 267 341 483 551 1230 2000
2020-08-03 08:30 3.13 734 3280 (1951) 188 (1954) 560 213 226 252 267 341 483 551 1230 2000
2020-08-03 07:30 3.14 739 3280 (1951) 188 (1954) 560 213 226 252 267 341 483 551 1230 2000
2020-08-03 06:30 3.14 739 3280 (1951) 188 (1954) 560 213 226 252 267 341 483 551 1230 2000
2020-08-03 05:30 3.14 739 3280 (1951) 188 (1954) 560 213 226 252 267 341 483 551 1230 2000
2020-08-03 04:30 3.14 739 3280 (1951) 188 (1954) 560 213 226 252 267 341 483 551 1230 2000
2020-08-03 03:30 3.15 744 3280 (1951) 188 (1954) 560 213 226 252 267 341 483 551 1230 2000
2020-08-03 02:30 3.15 744 3280 (1951) 188 (1954) 560 213 226 252 267 341 483 551 1230 2000
2020-08-03 01:30 3.14 739 3280 (1951) 188 (1954) 560 213 226 252 267 341 483 551 1230 2000
2020-08-03 00:30 3.15 744 3280 (1951) 188 (1954) 560 213 226 252 267 341 483 551 1230 2000
2020-08-02 23:30 3.15 744 3360 (1951) 190 (1954) 582 221 229 251 266 344 523 558 1470 2010
2020-08-02 22:30 3.14 739 3360 (1951) 190 (1954) 582 221 229 251 266 344 523 558 1470 2010
2020-08-02 21:30 3.15 744 3360 (1951) 190 (1954) 582 221 229 251 266 344 523 558 1470 2010
2020-08-02 20:30 3.15 744 3360 (1951) 190 (1954) 582 221 229 251 266 344 523 558 1470 2010
2020-08-02 19:30 3.14 739 3360 (1951) 190 (1954) 582 221 229 251 266 344 523 558 1470 2010
2020-08-02 18:30 3.14 739 3360 (1951) 190 (1954) 582 221 229 251 266 344 523 558 1470 2010
2020-08-02 17:30 3.14 739 3360 (1951) 190 (1954) 582 221 229 251 266 344 523 558 1470 2010
2020-08-02 16:30 3.14 739 3360 (1951) 190 (1954) 582 221 229 251 266 344 523 558 1470 2010
2020-08-02 15:30 3.14 739 3360 (1951) 190 (1954) 582 221 229 251 266 344 523 558 1470 2010
2020-08-02 14:30 3.15 744 3360 (1951) 190 (1954) 582 221 229 251 266 344 523 558 1470 2010
2020-08-02 13:30 3.15 744 3360 (1951) 190 (1954) 582 221 229 251 266 344 523 558 1470 2010
2020-08-02 12:30 3.14 739 3360 (1951) 190 (1954) 582 221 229 251 266 344 523 558 1470 2010
2020-08-02 11:30 3.14 739 3360 (1951) 190 (1954) 582 221 229 251 266 344 523 558 1470 2010
2020-08-02 10:30 3.15 744 3360 (1951) 190 (1954) 582 221 229 251 266 344 523 558 1470 2010
2020-08-02 09:30 3.15 744 3360 (1951) 190 (1954) 582 221 229 251 266 344 523 558 1470 2010
2020-08-02 08:30 3.16 748 3360 (1951) 190 (1954) 582 221 229 251 266 344 523 558 1470 2010
2020-08-02 07:30 3.14 739 3360 (1951) 190 (1954) 582 221 229 251 266 344 523 558 1470 2010
2020-08-02 06:30 3.17 753 3360 (1951) 190 (1954) 582 221 229 251 266 344 523 558 1470 2010
2020-08-02 05:30 3.16 748 3360 (1951) 190 (1954) 582 221 229 251 266 344 523 558 1470 2010
2020-08-02 04:30 3.15 744 3360 (1951) 190 (1954) 582 221 229 251 266 344 523 558 1470 2010
2020-08-02 03:30 3.16 748 3360 (1951) 190 (1954) 582 221 229 251 266 344 523 558 1470 2010
2020-08-02 02:30 3.16 748 3360 (1951) 190 (1954) 582 221 229 251 266 344 523 558 1470 2010
2020-08-02 01:30 3.16 748 3360 (1951) 190 (1954) 582 221 229 251 266 344 523 558 1470 2010
2020-08-02 00:30 3.17 753 3360 (1951) 190 (1954) 582 221 229 251 266 344 523 558 1470 2010
2020-08-01 23:30 3.16 748 3440 (1951) 194 (1954) 590 220 229 251 263 359 505 573 1480 1970
2020-08-01 22:30 3.17 753 3440 (1951) 194 (1954) 590 220 229 251 263 359 505 573 1480 1970
2020-08-01 21:30 3.17 753 3440 (1951) 194 (1954) 590 220 229 251 263 359 505 573 1480 1970
2020-08-01 20:30 3.16 748 3440 (1951) 194 (1954) 590 220 229 251 263 359 505 573 1480 1970
2020-08-01 19:30 3.17 753 3440 (1951) 194 (1954) 590 220 229 251 263 359 505 573 1480 1970
2020-08-01 18:30 3.19 763 3440 (1951) 194 (1954) 590 220 229 251 263 359 505 573 1480 1970
2020-08-01 17:30 3.19 763 3440 (1951) 194 (1954) 590 220 229 251 263 359 505 573 1480 1970
2020-08-01 16:30 3.20 767 3440 (1951) 194 (1954) 590 220 229 251 263 359 505 573 1480 1970
2020-08-01 15:30 3.20 767 3440 (1951) 194 (1954) 590 220 229 251 263 359 505 573 1480 1970
2020-08-01 14:30 3.21 772 3440 (1951) 194 (1954) 590 220 229 251 263 359 505 573 1480 1970
2020-08-01 13:30 3.21 772 3440 (1951) 194 (1954) 590 220 229 251 263 359 505 573 1480 1970
2020-08-01 12:30 3.22 777 3440 (1951) 194 (1954) 590 220 229 251 263 359 505 573 1480 1970
2020-08-01 11:30 3.23 782 3440 (1951) 194 (1954) 590 220 229 251 263 359 505 573 1480 1970
2020-08-01 10:30 3.25 791 3440 (1951) 194 (1954) 590 220 229 251 263 359 505 573 1480 1970
2020-08-01 09:30 3.27 801 3440 (1951) 194 (1954) 590 220 229 251 263 359 505 573 1480 1970
2020-08-01 08:30 3.27 801 3440 (1951) 194 (1954) 590 220 229 251 263 359 505 573 1480 1970
2020-08-01 07:30 3.29 811 3440 (1951) 194 (1954) 590 220 229 251 263 359 505 573 1480 1970
2020-08-01 06:30 3.31 821 3440 (1951) 194 (1954) 590 220 229 251 263 359 505 573 1480 1970
2020-08-01 05:30 3.35 840 3440 (1951) 194 (1954) 590 220 229 251 263 359 505 573 1480 1970
2020-08-01 04:30 3.39 860 3440 (1951) 194 (1954) 590 220 229 251 263 359 505 573 1480 1970
2020-08-01 03:30 3.42 875 3440 (1951) 194 (1954) 590 220 229 251 263 359 505 573 1480 1970
2020-08-01 02:30 3.47 900 3440 (1951) 194 (1954) 590 220 229 251 263 359 505 573 1480 1970
2020-08-01 01:30 3.49 911 3440 (1951) 194 (1954) 590 220 229 251 263 359 505 573 1480 1970
2020-08-01 00:30 3.52 926 3440 (1951) 194 (1954) 590 220 229 251 263 359 505 573 1480 1970
2020-07-31 23:30 3.48 906 3130 (1951) 198 (1954) 597 221 228 253 280 373 531 661 1610 1950
2020-07-31 22:30 3.42 875 3130 (1951) 198 (1954) 597 221 228 253 280 373 531 661 1610 1950
2020-07-31 21:30 3.24 787 3130 (1951) 198 (1954) 597 221 228 253 280 373 531 661 1610 1950
2020-07-31 20:30 3.20 767 3130 (1951) 198 (1954) 597 221 228 253 280 373 531 661 1610 1950
2020-07-31 19:30 3.19 763 3130 (1951) 198 (1954) 597 221 228 253 280 373 531 661 1610 1950
2020-07-31 18:30 3.17 753 3130 (1951) 198 (1954) 597 221 228 253 280 373 531 661 1610 1950
2020-07-31 17:30 3.15 744 3130 (1951) 198 (1954) 597 221 228 253 280 373 531 661 1610 1950
2020-07-31 16:30 3.13 734 3130 (1951) 198 (1954) 597 221 228 253 280 373 531 661 1610 1950
2020-07-31 15:30 3.12 730 3130 (1951) 198 (1954) 597 221 228 253 280 373 531 661 1610 1950
2020-07-31 14:30 3.12 730 3130 (1951) 198 (1954) 597 221 228 253 280 373 531 661 1610 1950
2020-07-31 13:30 3.07 706 3130 (1951) 198 (1954) 597 221 228 253 280 373 531 661 1610 1950
2020-07-31 12:30 3.06 702 3130 (1951) 198 (1954) 597 221 228 253 280 373 531 661 1610 1950
2020-07-31 11:30 3.06 702 3130 (1951) 198 (1954) 597 221 228 253 280 373 531 661 1610 1950
2020-07-31 10:30 3.05 697 3130 (1951) 198 (1954) 597 221 228 253 280 373 531 661 1610 1950
2020-07-31 09:30 3.04 693 3130 (1951) 198 (1954) 597 221 228 253 280 373 531 661 1610 1950
2020-07-31 08:30 3.06 702 3130 (1951) 198 (1954) 597 221 228 253 280 373 531 661 1610 1950
2020-07-31 07:30 3.05 697 3130 (1951) 198 (1954) 597 221 228 253 280 373 531 661 1610 1950
2020-07-31 06:30 3.04 693 3130 (1951) 198 (1954) 597 221 228 253 280 373 531 661 1610 1950
2020-07-31 05:30 3.05 697 3130 (1951) 198 (1954) 597 221 228 253 280 373 531 661 1610 1950
2020-07-31 04:30 3.06 702 3130 (1951) 198 (1954) 597 221 228 253 280 373 531 661 1610 1950
2020-07-31 03:30 3.05 697 3130 (1951) 198 (1954) 597 221 228 253 280 373 531 661 1610 1950
2020-07-31 02:30 3.05 697 3130 (1951) 198 (1954) 597 221 228 253 280 373 531 661 1610 1950
2020-07-31 01:30 3.05 697 3130 (1951) 198 (1954) 597 221 228 253 280 373 531 661 1610 1950
2020-07-31 00:30 3.06 702 3130 (1951) 198 (1954) 597 221 228 253 280 373 531 661 1610 1950
2020-07-30 23:30 3.05 697 2980 (1951) 193 (1962) 543 221 227 249 275 367 507 548 1280 1900
2020-07-30 22:30 3.05 697 2980 (1951) 193 (1962) 543 221 227 249 275 367 507 548 1280 1900
2020-07-30 21:30 3.05 697 2980 (1951) 193 (1962) 543 221 227 249 275 367 507 548 1280 1900
2020-07-30 20:30 3.04 693 2980 (1951) 193 (1962) 543 221 227 249 275 367 507 548 1280 1900
2020-07-30 19:30 3.03 688 2980 (1951) 193 (1962) 543 221 227 249 275 367 507 548 1280 1900
2020-07-30 18:30 3.04 693 2980 (1951) 193 (1962) 543 221 227 249 275 367 507 548 1280 1900
2020-07-30 17:30 3.03 688 2980 (1951) 193 (1962) 543 221 227 249 275 367 507 548 1280 1900
2020-07-30 16:30 3.03 688 2980 (1951) 193 (1962) 543 221 227 249 275 367 507 548 1280 1900
2020-07-30 15:30 3.02 683 2980 (1951) 193 (1962) 543 221 227 249 275 367 507 548 1280 1900
2020-07-30 14:30 3.00 674 2980 (1951) 193 (1962) 543 221 227 249 275 367 507 548 1280 1900
2020-07-30 13:30 3.00 674 2980 (1951) 193 (1962) 543 221 227 249 275 367 507 548 1280 1900
2020-07-30 12:30 2.97 661 2980 (1951) 193 (1962) 543 221 227 249 275 367 507 548 1280 1900
2020-07-30 11:30 2.96 656 2980 (1951) 193 (1962) 543 221 227 249 275 367 507 548 1280 1900
2020-07-30 10:30 2.96 656 2980 (1951) 193 (1962) 543 221 227 249 275 367 507 548 1280 1900
2020-07-30 09:30 2.97 661 2980 (1951) 193 (1962) 543 221 227 249 275 367 507 548 1280 1900
2020-07-30 08:30 2.98 665 2980 (1951) 193 (1962) 543 221 227 249 275 367 507 548 1280 1900
2020-07-30 07:30 2.97 661 2980 (1951) 193 (1962) 543 221 227 249 275 367 507 548 1280 1900
2020-07-30 06:30 2.98 665 2980 (1951) 193 (1962) 543 221 227 249 275 367 507 548 1280 1900
2020-07-30 05:30 3.00 674 2980 (1951) 193 (1962) 543 221 227 249 275 367 507 548 1280 1900
2020-07-30 04:30 3.01 679 2980 (1951) 193 (1962) 543 221 227 249 275 367 507 548 1280 1900
2020-07-30 03:30 2.98 665 2980 (1951) 193 (1962) 543 221 227 249 275 367 507 548 1280 1900
2020-07-30 02:30 2.93 643 2980 (1951) 193 (1962) 543 221 227 249 275 367 507 548 1280 1900
2020-07-30 01:30 2.92 638 2980 (1951) 193 (1962) 543 221 227 249 275 367 507 548 1280 1900
2020-07-30 00:30 2.93 643 2980 (1951) 193 (1962) 543 221 227 249 275 367 507 548 1280 1900
2020-07-29 23:30 2.94 647 3060 (1957) 190 (1962) 572 222 229 251 273 373 455 601 1340 2120
2020-07-29 22:30 2.95 652 3060 (1957) 190 (1962) 572 222 229 251 273 373 455 601 1340 2120
2020-07-29 21:30 2.97 661 3060 (1957) 190 (1962) 572 222 229 251 273 373 455 601 1340 2120
2020-07-29 20:30 2.99 670 3060 (1957) 190 (1962) 572 222 229 251 273 373 455 601 1340 2120
2020-07-29 19:30 3.02 683 3060 (1957) 190 (1962) 572 222 229 251 273 373 455 601 1340 2120
2020-07-29 18:30 3.02 683 3060 (1957) 190 (1962) 572 222 229 251 273 373 455 601 1340 2120
2020-07-29 17:30 3.04 693 3060 (1957) 190 (1962) 572 222 229 251 273 373 455 601 1340 2120
2020-07-29 16:30 3.04 693 3060 (1957) 190 (1962) 572 222 229 251 273 373 455 601 1340 2120
2020-07-29 15:30 3.03 688 3060 (1957) 190 (1962) 572 222 229 251 273 373 455 601 1340 2120
2020-07-29 14:30 3.05 697 3060 (1957) 190 (1962) 572 222 229 251 273 373 455 601 1340 2120
2020-07-29 13:30 3.04 693 3060 (1957) 190 (1962) 572 222 229 251 273 373 455 601 1340 2120
2020-07-29 12:30 3.05 697 3060 (1957) 190 (1962) 572 222 229 251 273 373 455 601 1340 2120
2020-07-29 11:30 3.04 693 3060 (1957) 190 (1962) 572 222 229 251 273 373 455 601 1340 2120
2020-07-29 10:30 3.04 693 3060 (1957) 190 (1962) 572 222 229 251 273 373 455 601 1340 2120
2020-07-29 09:30 3.04 693 3060 (1957) 190 (1962) 572 222 229 251 273 373 455 601 1340 2120
2020-07-29 08:30 3.04 693 3060 (1957) 190 (1962) 572 222 229 251 273 373 455 601 1340 2120
2020-07-29 07:30 3.03 688 3060 (1957) 190 (1962) 572 222 229 251 273 373 455 601 1340 2120
2020-07-29 06:30 3.04 693 3060 (1957) 190 (1962) 572 222 229 251 273 373 455 601 1340 2120
2020-07-29 05:30 3.04 693 3060 (1957) 190 (1962) 572 222 229 251 273 373 455 601 1340 2120
2020-07-29 04:30 3.04 693 3060 (1957) 190 (1962) 572 222 229 251 273 373 455 601 1340 2120
2020-07-29 03:30 3.03 688 3060 (1957) 190 (1962) 572 222 229 251 273 373 455 601 1340 2120
2020-07-29 02:30 3.03 688 3060 (1957) 190 (1962) 572 222 229 251 273 373 455 601 1340 2120
2020-07-29 01:30 3.02 683 3060 (1957) 190 (1962) 572 222 229 251 273 373 455 601 1340 2120
2020-07-29 00:30 3.03 688 3060 (1957) 190 (1962) 572 222 229 251 273 373 455 601 1340 2120
2020-07-28 23:30 3.03 688 3790 (1957) 190 (1962) 610 221 229 247 259 378 523 758 1500 2390
2020-07-28 22:30 3.03 688 3790 (1957) 190 (1962) 610 221 229 247 259 378 523 758 1500 2390
2020-07-28 21:30 3.02 683 3790 (1957) 190 (1962) 610 221 229 247 259 378 523 758 1500 2390
2020-07-28 20:30 3.00 674 3790 (1957) 190 (1962) 610 221 229 247 259 378 523 758 1500 2390
2020-07-28 19:30 3.01 679 3790 (1957) 190 (1962) 610 221 229 247 259 378 523 758 1500 2390
2020-07-28 18:30 3.00 674 3790 (1957) 190 (1962) 610 221 229 247 259 378 523 758 1500 2390
2020-07-28 17:30 2.99 670 3790 (1957) 190 (1962) 610 221 229 247 259 378 523 758 1500 2390
2020-07-28 16:30 2.98 665 3790 (1957) 190 (1962) 610 221 229 247 259 378 523 758 1500 2390
2020-07-28 15:30 2.96 656 3790 (1957) 190 (1962) 610 221 229 247 259 378 523 758 1500 2390
2020-07-28 14:30 2.95 652 3790 (1957) 190 (1962) 610 221 229 247 259 378 523 758 1500 2390
2020-07-28 13:30 2.90 630 3790 (1957) 190 (1962) 610 221 229 247 259 378 523 758 1500 2390
2020-07-28 12:30 2.87 616 3790 (1957) 190 (1962) 610 221 229 247 259 378 523 758 1500 2390
2020-07-28 11:30 2.86 612 3790 (1957) 190 (1962) 610 221 229 247 259 378 523 758 1500 2390
2020-07-28 10:30 2.86 612 3790 (1957) 190 (1962) 610 221 229 247 259 378 523 758 1500 2390
2020-07-28 09:30 2.85 608 3790 (1957) 190 (1962) 610 221 229 247 259 378 523 758 1500 2390
2020-07-28 08:30 2.85 608 3790 (1957) 190 (1962) 610 221 229 247 259 378 523 758 1500 2390
2020-07-28 07:30 2.85 608 3790 (1957) 190 (1962) 610 221 229 247 259 378 523 758 1500 2390
2020-07-28 06:30 2.86 612 3790 (1957) 190 (1962) 610 221 229 247 259 378 523 758 1500 2390
2020-07-28 05:30 2.87 616 3790 (1957) 190 (1962) 610 221 229 247 259 378 523 758 1500 2390
2020-07-28 04:30 2.89 625 3790 (1957) 190 (1962) 610 221 229 247 259 378 523 758 1500 2390
2020-07-28 03:30 2.91 634 3790 (1957) 190 (1962) 610 221 229 247 259 378 523 758 1500 2390
2020-07-28 02:30 2.91 634 3790 (1957) 190 (1962) 610 221 229 247 259 378 523 758 1500 2390
2020-07-28 01:30 2.90 630 3790 (1957) 190 (1962) 610 221 229 247 259 378 523 758 1500 2390
2020-07-28 00:30 2.86 612 3790 (1957) 190 (1962) 610 221 229 247 259 378 523 758 1500 2390
2020-07-27 23:30 2.88 621 3480 (1957) 190 (1962) 624 221 234 254 260 372 588 765 1500 2860
2020-07-27 22:30 2.91 634 3480 (1957) 190 (1962) 624 221 234 254 260 372 588 765 1500 2860
2020-07-27 21:30 2.88 621 3480 (1957) 190 (1962) 624 221 234 254 260 372 588 765 1500 2860
2020-07-27 20:30 2.90 630 3480 (1957) 190 (1962) 624 221 234 254 260 372 588 765 1500 2860
2020-07-27 19:30 2.94 647 3480 (1957) 190 (1962) 624 221 234 254 260 372 588 765 1500 2860
2020-07-27 18:30 2.95 652 3480 (1957) 190 (1962) 624 221 234 254 260 372 588 765 1500 2860
2020-07-27 17:30 2.98 665 3480 (1957) 190 (1962) 624 221 234 254 260 372 588 765 1500 2860
2020-07-27 16:30 2.96 656 3480 (1957) 190 (1962) 624 221 234 254 260 372 588 765 1500 2860
2020-07-27 15:30 2.92 638 3480 (1957) 190 (1962) 624 221 234 254 260 372 588 765 1500 2860
2020-07-27 14:30 2.88 621 3480 (1957) 190 (1962) 624 221 234 254 260 372 588 765 1500 2860
2020-07-27 13:30 2.82 595 3480 (1957) 190 (1962) 624 221 234 254 260 372 588 765 1500 2860
2020-07-27 12:30 2.77 573 3480 (1957) 190 (1962) 624 221 234 254 260 372 588 765 1500 2860
2020-07-27 11:30 2.73 556 3480 (1957) 190 (1962) 624 221 234 254 260 372 588 765 1500 2860
2020-07-27 10:30 2.72 552 3480 (1957) 190 (1962) 624 221 234 254 260 372 588 765 1500 2860
2020-07-27 09:30 2.73 556 3480 (1957) 190 (1962) 624 221 234 254 260 372 588 765 1500 2860
2020-07-27 08:30 2.73 556 3480 (1957) 190 (1962) 624 221 234 254 260 372 588 765 1500 2860
2020-07-27 07:30 2.73 556 3480 (1957) 190 (1962) 624 221 234 254 260 372 588 765 1500 2860
2020-07-27 06:30 2.73 556 3480 (1957) 190 (1962) 624 221 234 254 260 372 588 765 1500 2860
2020-07-27 05:30 2.73 556 3480 (1957) 190 (1962) 624 221 234 254 260 372 588 765 1500 2860
2020-07-27 04:30 2.72 552 3480 (1957) 190 (1962) 624 221 234 254 260 372 588 765 1500 2860
2020-07-27 03:30 2.74 560 3480 (1957) 190 (1962) 624 221 234 254 260 372 588 765 1500 2860
2020-07-27 02:30 2.73 556 3480 (1957) 190 (1962) 624 221 234 254 260 372 588 765 1500 2860
2020-07-27 01:30 2.72 552 3480 (1957) 190 (1962) 624 221 234 254 260 372 588 765 1500 2860
2020-07-27 00:30 2.73 556 3480 (1957) 190 (1962) 624 221 234 254 260 372 588 765 1500 2860
2020-07-26 23:30 2.73 556 3560 (1957) 191 (1965) 657 211 232 253 261 390 651 790 1570 3120
2020-07-26 22:30 2.73 556 3560 (1957) 191 (1965) 657 211 232 253 261 390 651 790 1570 3120
2020-07-26 21:30 2.73 556 3560 (1957) 191 (1965) 657 211 232 253 261 390 651 790 1570 3120
2020-07-26 20:30 2.72 552 3560 (1957) 191 (1965) 657 211 232 253 261 390 651 790 1570 3120
2020-07-26 19:30 2.73 556 3560 (1957) 191 (1965) 657 211 232 253 261 390 651 790 1570 3120
2020-07-26 18:30 2.74 560 3560 (1957) 191 (1965) 657 211 232 253 261 390 651 790 1570 3120
2020-07-26 17:30 2.74 560 3560 (1957) 191 (1965) 657 211 232 253 261 390 651 790 1570 3120
2020-07-26 16:30 2.73 556 3560 (1957) 191 (1965) 657 211 232 253 261 390 651 790 1570 3120
2020-07-26 15:30 2.73 556 3560 (1957) 191 (1965) 657 211 232 253 261 390 651 790 1570 3120
2020-07-26 14:30 2.73 556 3560 (1957) 191 (1965) 657 211 232 253 261 390 651 790 1570 3120
2020-07-26 13:30 2.73 556 3560 (1957) 191 (1965) 657 211 232 253 261 390 651 790 1570 3120
2020-07-26 12:30 2.73 556 3560 (1957) 191 (1965) 657 211 232 253 261 390 651 790 1570 3120
2020-07-26 11:30 2.74 560 3560 (1957) 191 (1965) 657 211 232 253 261 390 651 790 1570 3120
2020-07-26 10:30 2.73 556 3560 (1957) 191 (1965) 657 211 232 253 261 390 651 790 1570 3120
2020-07-26 09:30 2.73 556 3560 (1957) 191 (1965) 657 211 232 253 261 390 651 790 1570 3120
2020-07-26 08:30 2.74 560 3560 (1957) 191 (1965) 657 211 232 253 261 390 651 790 1570 3120
2020-07-26 07:30 2.74 560 3560 (1957) 191 (1965) 657 211 232 253 261 390 651 790 1570 3120
2020-07-26 06:30 2.74 560 3560 (1957) 191 (1965) 657 211 232 253 261 390 651 790 1570 3120
2020-07-26 05:30 2.74 560 3560 (1957) 191 (1965) 657 211 232 253 261 390 651 790 1570 3120
2020-07-26 04:30 2.75 565 3560 (1957) 191 (1965) 657 211 232 253 261 390 651 790 1570 3120
2020-07-26 03:30 2.75 565 3560 (1957) 191 (1965) 657 211 232 253 261 390 651 790 1570 3120
2020-07-26 02:30 2.75 565 3560 (1957) 191 (1965) 657 211 232 253 261 390 651 790 1570 3120
2020-07-26 01:30 2.75 565 3560 (1957) 191 (1965) 657 211 232 253 261 390 651 790 1570 3120
2020-07-26 00:30 2.75 565 3560 (1957) 191 (1965) 657 211 232 253 261 390 651 790 1570 3120
2020-07-25 23:30 2.75 565 3560 (1957) 192 (1965) 662 216 236 253 257 378 680 742 1540 3070
2020-07-25 22:30 2.75 565 3560 (1957) 192 (1965) 662 216 236 253 257 378 680 742 1540 3070
2020-07-25 21:30 2.74 560 3560 (1957) 192 (1965) 662 216 236 253 257 378 680 742 1540 3070
2020-07-25 20:30 2.74 560 3560 (1957) 192 (1965) 662 216 236 253 257 378 680 742 1540 3070
2020-07-25 19:30 2.74 560 3560 (1957) 192 (1965) 662 216 236 253 257 378 680 742 1540 3070
2020-07-25 18:30 2.74 560 3560 (1957) 192 (1965) 662 216 236 253 257 378 680 742 1540 3070
2020-07-25 17:30 2.74 560 3560 (1957) 192 (1965) 662 216 236 253 257 378 680 742 1540 3070
2020-07-25 16:30 2.74 560 3560 (1957) 192 (1965) 662 216 236 253 257 378 680 742 1540 3070
2020-07-25 15:30 2.74 560 3560 (1957) 192 (1965) 662 216 236 253 257 378 680 742 1540 3070
2020-07-25 14:30 2.74 560 3560 (1957) 192 (1965) 662 216 236 253 257 378 680 742 1540 3070
2020-07-25 13:30 2.74 560 3560 (1957) 192 (1965) 662 216 236 253 257 378 680 742 1540 3070
2020-07-25 12:30 2.75 565 3560 (1957) 192 (1965) 662 216 236 253 257 378 680 742 1540 3070
2020-07-25 11:30 2.76 569 3560 (1957) 192 (1965) 662 216 236 253 257 378 680 742 1540 3070
2020-07-25 10:30 2.75 565 3560 (1957) 192 (1965) 662 216 236 253 257 378 680 742 1540 3070
2020-07-25 09:30 2.75 565 3560 (1957) 192 (1965) 662 216 236 253 257 378 680 742 1540 3070
2020-07-25 08:30 2.75 565 3560 (1957) 192 (1965) 662 216 236 253 257 378 680 742 1540 3070
2020-07-25 07:30 2.76 569 3560 (1957) 192 (1965) 662 216 236 253 257 378 680 742 1540 3070
2020-07-25 06:30 2.76 569 3560 (1957) 192 (1965) 662 216 236 253 257 378 680 742 1540 3070
2020-07-25 05:30 2.77 573 3560 (1957) 192 (1965) 662 216 236 253 257 378 680 742 1540 3070
2020-07-25 04:30 2.77 573 3560 (1957) 192 (1965) 662 216 236 253 257 378 680 742 1540 3070
2020-07-25 03:30 2.77 573 3560 (1957) 192 (1965) 662 216 236 253 257 378 680 742 1540 3070
2020-07-25 02:30 2.77 573 3560 (1957) 192 (1965) 662 216 236 253 257 378 680 742 1540 3070
2020-07-25 01:30 2.77 573 3560 (1957) 192 (1965) 662 216 236 253 257 378 680 742 1540 3070
2020-07-25 00:30 2.77 573 3560 (1957) 192 (1965) 662 216 236 253 257 378 680 742 1540 3070
2020-07-24 23:30 2.78 577 3560 (1957) 192 (1965) 664 216 243 258 267 360 653 903 1640 2930
2020-07-24 22:30 2.79 582 3560 (1957) 192 (1965) 664 216 243 258 267 360 653 903 1640 2930
2020-07-24 21:30 2.79 582 3560 (1957) 192 (1965) 664 216 243 258 267 360 653 903 1640 2930
2020-07-24 20:30 2.80 586 3560 (1957) 192 (1965) 664 216 243 258 267 360 653 903 1640 2930
2020-07-24 19:30 2.81 590 3560 (1957) 192 (1965) 664 216 243 258 267 360 653 903 1640 2930
2020-07-24 18:30 2.83 599 3560 (1957) 192 (1965) 664 216 243 258 267 360 653 903 1640 2930
2020-07-24 17:30 2.84 603 3560 (1957) 192 (1965) 664 216 243 258 267 360 653 903 1640 2930
2020-07-24 16:30 2.87 616 3560 (1957) 192 (1965) 664 216 243 258 267 360 653 903 1640 2930
2020-07-24 15:30 2.90 630 3560 (1957) 192 (1965) 664 216 243 258 267 360 653 903 1640 2930
2020-07-24 14:30 2.92 638 3560 (1957) 192 (1965) 664 216 243 258 267 360 653 903 1640 2930
2020-07-24 13:30 2.98 665 3560 (1957) 192 (1965) 664 216 243 258 267 360 653 903 1640 2930
2020-07-24 12:30 3.02 683 3560 (1957) 192 (1965) 664 216 243 258 267 360 653 903 1640 2930
2020-07-24 11:30 3.08 711 3560 (1957) 192 (1965) 664 216 243 258 267 360 653 903 1640 2930
2020-07-24 10:30 3.10 720 3560 (1957) 192 (1965) 664 216 243 258 267 360 653 903 1640 2930
2020-07-24 09:30 3.11 725 3560 (1957) 192 (1965) 664 216 243 258 267 360 653 903 1640 2930
2020-07-24 08:30 3.12 730 3560 (1957) 192 (1965) 664 216 243 258 267 360 653 903 1640 2930
2020-07-24 07:30 3.11 725 3560 (1957) 192 (1965) 664 216 243 258 267 360 653 903 1640 2930
2020-07-24 06:30 3.11 725 3560 (1957) 192 (1965) 664 216 243 258 267 360 653 903 1640 2930
2020-07-24 05:30 3.13 734 3560 (1957) 192 (1965) 664 216 243 258 267 360 653 903 1640 2930
2020-07-24 04:30 3.11 725 3560 (1957) 192 (1965) 664 216 243 258 267 360 653 903 1640 2930
2020-07-24 03:30 3.12 730 3560 (1957) 192 (1965) 664 216 243 258 267 360 653 903 1640 2930
2020-07-24 02:30 3.12 730 3560 (1957) 192 (1965) 664 216 243 258 267 360 653 903 1640 2930
2020-07-24 01:30 3.10 720 3560 (1957) 192 (1965) 664 216 243 258 267 360 653 903 1640 2930
2020-07-24 00:30 3.12 730 3560 (1957) 192 (1965) 664 216 243 258 267 360 653 903 1640 2930
2020-07-23 23:30 3.12 730 3560 (1957) 185 (1962) 696 217 235 261 269 358 805 992 1840 3140
2020-07-23 22:30 3.12 730 3560 (1957) 185 (1962) 696 217 235 261 269 358 805 992 1840 3140
2020-07-23 21:30 3.10 720 3560 (1957) 185 (1962) 696 217 235 261 269 358 805 992 1840 3140
2020-07-23 20:30 3.11 725 3560 (1957) 185 (1962) 696 217 235 261 269 358 805 992 1840 3140
2020-07-23 19:30 3.12 730 3560 (1957) 185 (1962) 696 217 235 261 269 358 805 992 1840 3140
2020-07-23 18:30 3.14 739 3560 (1957) 185 (1962) 696 217 235 261 269 358 805 992 1840 3140
2020-07-23 17:30 3.08 711 3560 (1957) 185 (1962) 696 217 235 261 269 358 805 992 1840 3140
2020-07-23 16:30 3.09 716 3560 (1957) 185 (1962) 696 217 235 261 269 358 805 992 1840 3140
2020-07-23 15:30 3.09 716 3560 (1957) 185 (1962) 696 217 235 261 269 358 805 992 1840 3140
2020-07-23 14:30 3.08 711 3560 (1957) 185 (1962) 696 217 235 261 269 358 805 992 1840 3140
2020-07-23 13:30 3.07 706 3560 (1957) 185 (1962) 696 217 235 261 269 358 805 992 1840 3140
2020-07-23 12:30 3.06 702 3560 (1957) 185 (1962) 696 217 235 261 269 358 805 992 1840 3140
2020-07-23 11:30 3.07 706 3560 (1957) 185 (1962) 696 217 235 261 269 358 805 992 1840 3140
2020-07-23 10:30 3.06 702 3560 (1957) 185 (1962) 696 217 235 261 269 358 805 992 1840 3140
2020-07-23 09:30 3.05 697 3560 (1957) 185 (1962) 696 217 235 261 269 358 805 992 1840 3140
2020-07-23 08:30 3.05 697 3560 (1957) 185 (1962) 696 217 235 261 269 358 805 992 1840 3140
2020-07-23 07:30 3.06 702 3560 (1957) 185 (1962) 696 217 235 261 269 358 805 992 1840 3140
2020-07-23 06:30 3.04 693 3560 (1957) 185 (1962) 696 217 235 261 269 358 805 992 1840 3140
2020-07-23 05:30 3.05 697 3560 (1957) 185 (1962) 696 217 235 261 269 358 805 992 1840 3140
2020-07-23 04:30 3.06 702 3560 (1957) 185 (1962) 696 217 235 261 269 358 805 992 1840 3140
2020-07-23 03:30 3.06 702 3560 (1957) 185 (1962) 696 217 235 261 269 358 805 992 1840 3140
2020-07-23 02:30 3.07 706 3560 (1957) 185 (1962) 696 217 235 261 269 358 805 992 1840 3140
2020-07-23 01:30 3.07 706 3560 (1957) 185 (1962) 696 217 235 261 269 358 805 992 1840 3140
2020-07-23 00:30 3.08 711 3560 (1957) 185 (1962) 696 217 235 261 269 358 805 992 1840 3140
2020-07-22 23:30 3.09 716 3630 (1957) 187 (1962) 744 214 230 256 276 386 958 1230 1830 3140
2020-07-22 22:30 3.09 716 3630 (1957) 187 (1962) 744 214 230 256 276 386 958 1230 1830 3140
2020-07-22 21:30 3.10 720 3630 (1957) 187 (1962) 744 214 230 256 276 386 958 1230 1830 3140
2020-07-22 20:30 3.10 720 3630 (1957) 187 (1962) 744 214 230 256 276 386 958 1230 1830 3140
2020-07-22 19:30 3.09 716 3630 (1957) 187 (1962) 744 214 230 256 276 386 958 1230 1830 3140
2020-07-22 18:30 3.08 711 3630 (1957) 187 (1962) 744 214 230 256 276 386 958 1230 1830 3140
2020-07-22 17:30 3.08 711 3630 (1957) 187 (1962) 744 214 230 256 276 386 958 1230 1830 3140
2020-07-22 16:30 3.04 693 3630 (1957) 187 (1962) 744 214 230 256 276 386 958 1230 1830 3140
2020-07-22 15:30 3.02 683 3630 (1957) 187 (1962) 744 214 230 256 276 386 958 1230 1830 3140
2020-07-22 14:30 2.99 670 3630 (1957) 187 (1962) 744 214 230 256 276 386 958 1230 1830 3140
2020-07-22 13:30 2.98 665 3630 (1957) 187 (1962) 744 214 230 256 276 386 958 1230 1830 3140
2020-07-22 12:30 2.98 665 3630 (1957) 187 (1962) 744 214 230 256 276 386 958 1230 1830 3140
2020-07-22 11:30 2.96 656 3630 (1957) 187 (1962) 744 214 230 256 276 386 958 1230 1830 3140
2020-07-22 10:30 2.95 652 3630 (1957) 187 (1962) 744 214 230 256 276 386 958 1230 1830 3140
2020-07-22 09:30 2.95 652 3630 (1957) 187 (1962) 744 214 230 256 276 386 958 1230 1830 3140
2020-07-22 08:30 2.96 656 3630 (1957) 187 (1962) 744 214 230 256 276 386 958 1230 1830 3140
2020-07-22 07:30 2.96 656 3630 (1957) 187 (1962) 744 214 230 256 276 386 958 1230 1830 3140
2020-07-22 06:30 2.94 647 3630 (1957) 187 (1962) 744 214 230 256 276 386 958 1230 1830 3140
2020-07-22 05:30 2.95 652 3630 (1957) 187 (1962) 744 214 230 256 276 386 958 1230 1830 3140
2020-07-22 04:30 2.95 652 3630 (1957) 187 (1962) 744 214 230 256 276 386 958 1230 1830 3140
2020-07-22 03:30 2.94 647 3630 (1957) 187 (1962) 744 214 230 256 276 386 958 1230 1830 3140
2020-07-22 02:30 2.95 652 3630 (1957) 187 (1962) 744 214 230 256 276 386 958 1230 1830 3140
2020-07-22 01:30 2.96 656 3630 (1957) 187 (1962) 744 214 230 256 276 386 958 1230 1830 3140
2020-07-22 00:30 2.96 656 3630 (1957) 187 (1962) 744 214 230 256 276 386 958 1230 1830 3140
2020-07-21 23:30 2.97 661 3480 (1957) 190 (1962) 735 216 232 258 284 395 912 1090 1840 3150
2020-07-21 22:30 2.96 656 3480 (1957) 190 (1962) 735 216 232 258 284 395 912 1090 1840 3150
2020-07-21 21:30 2.95 652 3480 (1957) 190 (1962) 735 216 232 258 284 395 912 1090 1840 3150
2020-07-21 20:30 2.96 656 3480 (1957) 190 (1962) 735 216 232 258 284 395 912 1090 1840 3150
2020-07-21 19:30 2.96 656 3480 (1957) 190 (1962) 735 216 232 258 284 395 912 1090 1840 3150
2020-07-21 18:30 2.95 652 3480 (1957) 190 (1962) 735 216 232 258 284 395 912 1090 1840 3150
2020-07-21 17:30 2.95 652 3480 (1957) 190 (1962) 735 216 232 258 284 395 912 1090 1840 3150
2020-07-21 16:30 2.94 647 3480 (1957) 190 (1962) 735 216 232 258 284 395 912 1090 1840 3150
2020-07-21 15:30 2.95 652 3480 (1957) 190 (1962) 735 216 232 258 284 395 912 1090 1840 3150
2020-07-21 14:30 2.96 656 3480 (1957) 190 (1962) 735 216 232 258 284 395 912 1090 1840 3150
2020-07-21 13:30 2.95 652 3480 (1957) 190 (1962) 735 216 232 258 284 395 912 1090 1840 3150
2020-07-21 12:30 2.96 656 3480 (1957) 190 (1962) 735 216 232 258 284 395 912 1090 1840 3150
2020-07-21 11:30 2.94 647 3480 (1957) 190 (1962) 735 216 232 258 284 395 912 1090 1840 3150
2020-07-21 10:30 2.95 652 3480 (1957) 190 (1962) 735 216 232 258 284 395 912 1090 1840 3150
2020-07-21 09:30 2.95 652 3480 (1957) 190 (1962) 735 216 232 258 284 395 912 1090 1840 3150
2020-07-21 08:30 2.94 647 3480 (1957) 190 (1962) 735 216 232 258 284 395 912 1090 1840 3150
2020-07-21 07:30 2.96 656 3480 (1957) 190 (1962) 735 216 232 258 284 395 912 1090 1840 3150
2020-07-21 06:30 2.95 652 3480 (1957) 190 (1962) 735 216 232 258 284 395 912 1090 1840 3150
2020-07-21 05:30 2.94 647 3480 (1957) 190 (1962) 735 216 232 258 284 395 912 1090 1840 3150
2020-07-21 04:30 2.94 647 3480 (1957) 190 (1962) 735 216 232 258 284 395 912 1090 1840 3150
2020-07-21 03:30 2.93 643 3480 (1957) 190 (1962) 735 216 232 258 284 395 912 1090 1840 3150
2020-07-21 02:30 2.94 647 3480 (1957) 190 (1962) 735 216 232 258 284 395 912 1090 1840 3150
2020-07-21 01:30 2.94 647 3480 (1957) 190 (1962) 735 216 232 258 284 395 912 1090 1840 3150
2020-07-21 00:30 2.93 643 3480 (1957) 190 (1962) 735 216 232 258 284 395 912 1090 1840 3150
2020-07-20 23:30 2.94 647 3480 (1957) 193 (1962) 743 221 226 249 257 402 790 1160 1810 3140
2020-07-20 22:30 2.94 647 3480 (1957) 193 (1962) 743 221 226 249 257 402 790 1160 1810 3140
2020-07-20 21:30 2.93 643 3480 (1957) 193 (1962) 743 221 226 249 257 402 790 1160 1810 3140
2020-07-20 20:30 2.92 638 3480 (1957) 193 (1962) 743 221 226 249 257 402 790 1160 1810 3140
2020-07-20 19:30 2.92 638 3480 (1957) 193 (1962) 743 221 226 249 257 402 790 1160 1810 3140
2020-07-20 18:30 2.89 625 3480 (1957) 193 (1962) 743 221 226 249 257 402 790 1160 1810 3140
2020-07-20 17:30 2.87 616 3480 (1957) 193 (1962) 743 221 226 249 257 402 790 1160 1810 3140
2020-07-20 16:30 2.85 608 3480 (1957) 193 (1962) 743 221 226 249 257 402 790 1160 1810 3140
2020-07-20 15:30 2.83 599 3480 (1957) 193 (1962) 743 221 226 249 257 402 790 1160 1810 3140
2020-07-20 14:30 2.80 586 3480 (1957) 193 (1962) 743 221 226 249 257 402 790 1160 1810 3140
2020-07-20 13:30 2.74 560 3480 (1957) 193 (1962) 743 221 226 249 257 402 790 1160 1810 3140
2020-07-20 12:30 2.70 544 3480 (1957) 193 (1962) 743 221 226 249 257 402 790 1160 1810 3140
2020-07-20 11:30 2.65 523 3480 (1957) 193 (1962) 743 221 226 249 257 402 790 1160 1810 3140
2020-07-20 10:30 2.64 519 3480 (1957) 193 (1962) 743 221 226 249 257 402 790 1160 1810 3140
2020-07-20 09:30 2.64 519 3480 (1957) 193 (1962) 743 221 226 249 257 402 790 1160 1810 3140
2020-07-20 08:30 2.64 519 3480 (1957) 193 (1962) 743 221 226 249 257 402 790 1160 1810 3140
2020-07-20 07:30 2.65 523 3480 (1957) 193 (1962) 743 221 226 249 257 402 790 1160 1810 3140
2020-07-20 06:30 2.65 523 3480 (1957) 193 (1962) 743 221 226 249 257 402 790 1160 1810 3140
2020-07-20 05:30 2.65 523 3480 (1957) 193 (1962) 743 221 226 249 257 402 790 1160 1810 3140
2020-07-20 04:30 2.64 519 3480 (1957) 193 (1962) 743 221 226 249 257 402 790 1160 1810 3140
2020-07-20 03:30 2.64 519 3480 (1957) 193 (1962) 743 221 226 249 257 402 790 1160 1810 3140
2020-07-20 02:30 2.64 519 3480 (1957) 193 (1962) 743 221 226 249 257 402 790 1160 1810 3140
2020-07-20 01:30 2.65 523 3480 (1957) 193 (1962) 743 221 226 249 257 402 790 1160 1810 3140
2020-07-20 00:30 2.65 523 3480 (1957) 193 (1962) 743 221 226 249 257 402 790 1160 1810 3140
2020-07-19 23:30 2.64 519 3340 (1957) 188 (1954) 733 197 229 248 255 388 777 1110 1870 3140
2020-07-19 22:30 2.64 519 3340 (1957) 188 (1954) 733 197 229 248 255 388 777 1110 1870 3140
2020-07-19 21:30 2.64 519 3340 (1957) 188 (1954) 733 197 229 248 255 388 777 1110 1870 3140
2020-07-19 20:30 2.64 519 3340 (1957) 188 (1954) 733 197 229 248 255 388 777 1110 1870 3140
2020-07-19 19:30 2.64 519 3340 (1957) 188 (1954) 733 197 229 248 255 388 777 1110 1870 3140
2020-07-19 18:30 2.64 519 3340 (1957) 188 (1954) 733 197 229 248 255 388 777 1110 1870 3140
2020-07-19 17:30 2.65 523 3340 (1957) 188 (1954) 733 197 229 248 255 388 777 1110 1870 3140
2020-07-19 16:30 2.65 523 3340 (1957) 188 (1954) 733 197 229 248 255 388 777 1110 1870 3140
2020-07-19 15:30 2.65 523 3340 (1957) 188 (1954) 733 197 229 248 255 388 777 1110 1870 3140
2020-07-19 14:30 2.65 523 3340 (1957) 188 (1954) 733 197 229 248 255 388 777 1110 1870 3140
2020-07-19 13:30 2.66 527 3340 (1957) 188 (1954) 733 197 229 248 255 388 777 1110 1870 3140
2020-07-19 12:30 2.65 523 3340 (1957) 188 (1954) 733 197 229 248 255 388 777 1110 1870 3140
2020-07-19 11:30 2.65 523 3340 (1957) 188 (1954) 733 197 229 248 255 388 777 1110 1870 3140
2020-07-19 10:30 2.65 523 3340 (1957) 188 (1954) 733 197 229 248 255 388 777 1110 1870 3140
2020-07-19 09:30 2.65 523 3340 (1957) 188 (1954) 733 197 229 248 255 388 777 1110 1870 3140
2020-07-19 08:30 2.65 523 3340 (1957) 188 (1954) 733 197 229 248 255 388 777 1110 1870 3140
2020-07-19 07:30 2.65 523 3340 (1957) 188 (1954) 733 197 229 248 255 388 777 1110 1870 3140
2020-07-19 06:30 2.66 527 3340 (1957) 188 (1954) 733 197 229 248 255 388 777 1110 1870 3140
2020-07-19 05:30 2.65 523 3340 (1957) 188 (1954) 733 197 229 248 255 388 777 1110 1870 3140
2020-07-19 04:30 2.66 527 3340 (1957) 188 (1954) 733 197 229 248 255 388 777 1110 1870 3140
2020-07-19 03:30 2.66 527 3340 (1957) 188 (1954) 733 197 229 248 255 388 777 1110 1870 3140
2020-07-19 02:30 2.66 527 3340 (1957) 188 (1954) 733 197 229 248 255 388 777 1110 1870 3140
2020-07-19 01:30 2.65 523 3340 (1957) 188 (1954) 733 197 229 248 255 388 777 1110 1870 3140
2020-07-19 00:30 2.65 523 3340 (1957) 188 (1954) 733 197 229 248 255 388 777 1110 1870 3140
2020-07-18 23:30 2.65 523 3380 (2017) 190 (1954) 748 215 235 255 262 397 766 1160 1900 3140
2020-07-18 22:30 2.65 523 3380 (2017) 190 (1954) 748 215 235 255 262 397 766 1160 1900 3140
2020-07-18 21:30 2.65 523 3380 (2017) 190 (1954) 748 215 235 255 262 397 766 1160 1900 3140
2020-07-18 20:30 2.66 527 3380 (2017) 190 (1954) 748 215 235 255 262 397 766 1160 1900 3140
2020-07-18 19:30 2.65 523 3380 (2017) 190 (1954) 748 215 235 255 262 397 766 1160 1900 3140
2020-07-18 18:30 2.65 523 3380 (2017) 190 (1954) 748 215 235 255 262 397 766 1160 1900 3140
2020-07-18 17:30 2.66 527 3380 (2017) 190 (1954) 748 215 235 255 262 397 766 1160 1900 3140
2020-07-18 16:30 2.67 531 3380 (2017) 190 (1954) 748 215 235 255 262 397 766 1160 1900 3140
2020-07-18 15:30 2.67 531 3380 (2017) 190 (1954) 748 215 235 255 262 397 766 1160 1900 3140
2020-07-18 14:30 2.67 531 3380 (2017) 190 (1954) 748 215 235 255 262 397 766 1160 1900 3140
2020-07-18 13:30 2.67 531 3380 (2017) 190 (1954) 748 215 235 255 262 397 766 1160 1900 3140
2020-07-18 12:30 2.67 531 3380 (2017) 190 (1954) 748 215 235 255 262 397 766 1160 1900 3140
2020-07-18 11:30 2.68 535 3380 (2017) 190 (1954) 748 215 235 255 262 397 766 1160 1900 3140
2020-07-18 10:30 2.68 535 3380 (2017) 190 (1954) 748 215 235 255 262 397 766 1160 1900 3140
2020-07-18 09:30 2.67 531 3380 (2017) 190 (1954) 748 215 235 255 262 397 766 1160 1900 3140
2020-07-18 08:30 2.67 531 3380 (2017) 190 (1954) 748 215 235 255 262 397 766 1160 1900 3140
2020-07-18 07:30 2.68 535 3380 (2017) 190 (1954) 748 215 235 255 262 397 766 1160 1900 3140
2020-07-18 06:30 2.68 535 3380 (2017) 190 (1954) 748 215 235 255 262 397 766 1160 1900 3140
2020-07-18 05:30 2.68 535 3380 (2017) 190 (1954) 748 215 235 255 262 397 766 1160 1900 3140
2020-07-18 04:30 2.68 535 3380 (2017) 190 (1954) 748 215 235 255 262 397 766 1160 1900 3140
2020-07-18 03:30 2.68 535 3380 (2017) 190 (1954) 748 215 235 255 262 397 766 1160 1900 3140
2020-07-18 02:30 2.69 539 3380 (2017) 190 (1954) 748 215 235 255 262 397 766 1160 1900 3140
2020-07-18 01:30 2.69 539 3380 (2017) 190 (1954) 748 215 235 255 262 397 766 1160 1900 3140
2020-07-18 00:30 2.70 544 3380 (2017) 190 (1954) 748 215 235 255 262 397 766 1160 1900 3140
2020-07-17 23:30 2.70 544 3430 (2017) 192 (1954) 708 206 239 259 277 421 696 894 1730 3270
2020-07-17 22:30 2.71 548 3430 (2017) 192 (1954) 708 206 239 259 277 421 696 894 1730 3270
2020-07-17 21:30 552 3430 (2017) 192 (1954) 708 206 239 259 277 421 696 894 1730 3270
2020-07-17 20:30 2.72 552 3430 (2017) 192 (1954) 708 206 239 259 277 421 696 894 1730 3270
2020-07-17 19:30 2.74 560 3430 (2017) 192 (1954) 708 206 239 259 277 421 696 894 1730 3270
2020-07-17 18:30 2.75 565 3430 (2017) 192 (1954) 708 206 239 259 277 421 696 894 1730 3270
2020-07-17 17:30 2.76 569 3430 (2017) 192 (1954) 708 206 239 259 277 421 696 894 1730 3270
2020-07-17 16:30 2.76 569 3430 (2017) 192 (1954) 708 206 239 259 277 421 696 894 1730 3270
2020-07-17 15:30 2.75 565 3430 (2017) 192 (1954) 708 206 239 259 277 421 696 894 1730 3270
2020-07-17 14:30 2.74 560 3430 (2017) 192 (1954) 708 206 239 259 277 421 696 894 1730 3270
2020-07-17 13:30 2.74 560 3430 (2017) 192 (1954) 708 206 239 259 277 421 696 894 1730 3270
2020-07-17 12:30 2.71 548 3430 (2017) 192 (1954) 708 206 239 259 277 421 696 894 1730 3270
2020-07-17 11:30 2.73 556 3430 (2017) 192 (1954) 708 206 239 259 277 421 696 894 1730 3270
2020-07-17 10:30 2.73 556 3430 (2017) 192 (1954) 708 206 239 259 277 421 696 894 1730 3270
2020-07-17 09:30 2.74 560 3430 (2017) 192 (1954) 708 206 239 259 277 421 696 894 1730 3270
2020-07-17 08:30 2.73 556 3430 (2017) 192 (1954) 708 206 239 259 277 421 696 894 1730 3270
2020-07-17 07:30 2.73 556 3430 (2017) 192 (1954) 708 206 239 259 277 421 696 894 1730 3270
2020-07-17 06:30 2.73 556 3430 (2017) 192 (1954) 708 206 239 259 277 421 696 894 1730 3270
2020-07-17 05:30 2.73 556 3430 (2017) 192 (1954) 708 206 239 259 277 421 696 894 1730 3270
2020-07-17 04:30 2.74 560 3430 (2017) 192 (1954) 708 206 239 259 277 421 696 894 1730 3270
2020-07-17 03:30 2.73 556 3430 (2017) 192 (1954) 708 206 239 259 277 421 696 894 1730 3270
2020-07-17 02:30 2.73 556 3430 (2017) 192 (1954) 708 206 239 259 277 421 696 894 1730 3270
2020-07-17 01:30 2.72 552 3430 (2017) 192 (1954) 708 206 239 259 277 421 696 894 1730 3270
2020-07-17 00:30 2.73 556 3430 (2017) 192 (1954) 708 206 239 259 277 421 696 894 1730 3270
2020-07-16 23:30 2.73 556 3650 (2015) 194 (1954) 696 207 239 262 305 422 667 838 1580 2800
2020-07-16 22:30 2.73 556 3650 (2015) 194 (1954) 696 207 239 262 305 422 667 838 1580 2800
2020-07-16 21:30 2.73 556 3650 (2015) 194 (1954) 696 207 239 262 305 422 667 838 1580 2800
2020-07-16 20:30 2.73 556 3650 (2015) 194 (1954) 696 207 239 262 305 422 667 838 1580 2800
2020-07-16 19:30 2.73 556 3650 (2015) 194 (1954) 696 207 239 262 305 422 667 838 1580 2800
2020-07-16 18:30 2.74 560 3650 (2015) 194 (1954) 696 207 239 262 305 422 667 838 1580 2800
2020-07-16 17:30 2.74 560 3650 (2015) 194 (1954) 696 207 239 262 305 422 667 838 1580 2800
2020-07-16 16:30 2.74 560 3650 (2015) 194 (1954) 696 207 239 262 305 422 667 838 1580 2800
2020-07-16 15:30 2.74 560 3650 (2015) 194 (1954) 696 207 239 262 305 422 667 838 1580 2800
2020-07-16 14:30 2.74 560 3650 (2015) 194 (1954) 696 207 239 262 305 422 667 838 1580 2800
2020-07-16 13:30 2.74 560 3650 (2015) 194 (1954) 696 207 239 262 305 422 667 838 1580 2800
2020-07-16 12:30 2.74 560 3650 (2015) 194 (1954) 696 207 239 262 305 422 667 838 1580 2800
2020-07-16 11:30 2.74 560 3650 (2015) 194 (1954) 696 207 239 262 305 422 667 838 1580 2800
2020-07-16 10:30 2.74 560 3650 (2015) 194 (1954) 696 207 239 262 305 422 667 838 1580 2800
2020-07-16 09:30 2.73 556 3650 (2015) 194 (1954) 696 207 239 262 305 422 667 838 1580 2800
2020-07-16 08:30 2.74 560 3650 (2015) 194 (1954) 696 207 239 262 305 422 667 838 1580 2800
2020-07-16 07:30 2.74 560 3650 (2015) 194 (1954) 696 207 239 262 305 422 667 838 1580 2800
2020-07-16 06:30 2.74 560 3650 (2015) 194 (1954) 696 207 239 262 305 422 667 838 1580 2800
2020-07-16 05:30 2.74 560 3650 (2015) 194 (1954) 696 207 239 262 305 422 667 838 1580 2800
2020-07-16 04:30 2.75 565 3650 (2015) 194 (1954) 696 207 239 262 305 422 667 838 1580 2800
2020-07-16 03:30 2.74 560 3650 (2015) 194 (1954) 696 207 239 262 305 422 667 838 1580 2800
2020-07-16 02:30 2.74 560 3650 (2015) 194 (1954) 696 207 239 262 305 422 667 838 1580 2800
2020-07-16 01:30 2.75 565 3650 (2015) 194 (1954) 696 207 239 262 305 422 667 838 1580 2800
2020-07-16 00:30 2.75 565 3650 (2015) 194 (1954) 696 207 239 262 305 422 667 838 1580 2800
2020-07-15 23:30 2.75 565 3720 (2015) 203 (1954) 721 209 236 264 269 473 628 928 1790 2810
2020-07-15 22:30 2.75 565 3720 (2015) 203 (1954) 721 209 236 264 269 473 628 928 1790 2810
2020-07-15 21:30 2.75 565 3720 (2015) 203 (1954) 721 209 236 264 269 473 628 928 1790 2810
2020-07-15 20:30 2.75 565 3720 (2015) 203 (1954) 721 209 236 264 269 473 628 928 1790 2810
2020-07-15 19:30 2.75 565 3720 (2015) 203 (1954) 721 209 236 264 269 473 628 928 1790 2810
2020-07-15 18:30 2.75 565 3720 (2015) 203 (1954) 721 209 236 264 269 473 628 928 1790 2810
2020-07-15 17:30 2.75 565 3720 (2015) 203 (1954) 721 209 236 264 269 473 628 928 1790 2810
2020-07-15 16:30 2.76 569 3720 (2015) 203 (1954) 721 209 236 264 269 473 628 928 1790 2810
2020-07-15 15:30 2.77 573 3720 (2015) 203 (1954) 721 209 236 264 269 473 628 928 1790 2810
2020-07-15 14:30 2.77 573 3720 (2015) 203 (1954) 721 209 236 264 269 473 628 928 1790 2810
2020-07-15 13:30 2.78 577 3720 (2015) 203 (1954) 721 209 236 264 269 473 628 928 1790 2810
2020-07-15 12:30 2.79 582 3720 (2015) 203 (1954) 721 209 236 264 269 473 628 928 1790 2810
2020-07-15 11:30 2.80 586 3720 (2015) 203 (1954) 721 209 236 264 269 473 628 928 1790 2810
2020-07-15 10:30 2.80 586 3720 (2015) 203 (1954) 721 209 236 264 269 473 628 928 1790 2810
2020-07-15 09:30 2.80 586 3720 (2015) 203 (1954) 721 209 236 264 269 473 628 928 1790 2810
2020-07-15 08:30 2.80 586 3720 (2015) 203 (1954) 721 209 236 264 269 473 628 928 1790 2810
2020-07-15 07:30 2.80 586 3720 (2015) 203 (1954) 721 209 236 264 269 473 628 928 1790 2810
2020-07-15 06:30 2.80 586 3720 (2015) 203 (1954) 721 209 236 264 269 473 628 928 1790 2810
2020-07-15 05:30 2.80 586 3720 (2015) 203 (1954) 721 209 236 264 269 473 628 928 1790 2810
2020-07-15 04:30 2.80 586 3720 (2015) 203 (1954) 721 209 236 264 269 473 628 928 1790 2810
2020-07-15 03:30 2.80 586 3720 (2015) 203 (1954) 721 209 236 264 269 473 628 928 1790 2810
2020-07-15 02:30 2.80 586 3720 (2015) 203 (1954) 721 209 236 264 269 473 628 928 1790 2810
2020-07-15 01:30 2.80 586 3720 (2015) 203 (1954) 721 209 236 264 269 473 628 928 1790 2810
2020-07-15 00:30 2.80 586 3720 (2015) 203 (1954) 721 209 236 264 269 473 628 928 1790 2810
2020-07-14 23:30 2.80 586 3780 (2015) 203 (1954) 729 208 238 258 274 397 741 912 1800 2890
2020-07-14 22:30 2.79 582 3780 (2015) 203 (1954) 729 208 238 258 274 397 741 912 1800 2890
2020-07-14 21:30 2.80 586 3780 (2015) 203 (1954) 729 208 238 258 274 397 741 912 1800 2890
2020-07-14 20:30 2.80 586 3780 (2015) 203 (1954) 729 208 238 258 274 397 741 912 1800 2890
2020-07-14 19:30 2.79 582 3780 (2015) 203 (1954) 729 208 238 258 274 397 741 912 1800 2890
2020-07-14 18:30 2.80 586 3780 (2015) 203 (1954) 729 208 238 258 274 397 741 912 1800 2890
2020-07-14 17:30 2.79 582 3780 (2015) 203 (1954) 729 208 238 258 274 397 741 912 1800 2890
2020-07-14 16:30 2.81 590 3780 (2015) 203 (1954) 729 208 238 258 274 397 741 912 1800 2890
2020-07-14 15:30 2.80 586 3780 (2015) 203 (1954) 729 208 238 258 274 397 741 912 1800 2890
2020-07-14 14:30 2.81 590 3780 (2015) 203 (1954) 729 208 238 258 274 397 741 912 1800 2890
2020-07-14 13:30 2.80 586 3780 (2015) 203 (1954) 729 208 238 258 274 397 741 912 1800 2890
2020-07-14 12:30 2.81 590 3780 (2015) 203 (1954) 729 208 238 258 274 397 741 912 1800 2890
2020-07-14 11:30 2.80 586 3780 (2015) 203 (1954) 729 208 238 258 274 397 741 912 1800 2890
2020-07-14 10:30 2.81 590 3780 (2015) 203 (1954) 729 208 238 258 274 397 741 912 1800 2890
2020-07-14 09:30 2.80 586 3780 (2015) 203 (1954) 729 208 238 258 274 397 741 912 1800 2890
2020-07-14 08:30 2.80 586 3780 (2015) 203 (1954) 729 208 238 258 274 397 741 912 1800 2890
2020-07-14 07:30 2.81 590 3780 (2015) 203 (1954) 729 208 238 258 274 397 741 912 1800 2890
2020-07-14 06:30 2.81 590 3780 (2015) 203 (1954) 729 208 238 258 274 397 741 912 1800 2890
2020-07-14 05:30 2.81 590 3780 (2015) 203 (1954) 729 208 238 258 274 397 741 912 1800 2890
2020-07-14 04:30 2.82 595 3780 (2015) 203 (1954) 729 208 238 258 274 397 741 912 1800 2890
2020-07-14 03:30 2.82 595 3780 (2015) 203 (1954) 729 208 238 258 274 397 741 912 1800 2890
2020-07-14 02:30 2.82 595 3780 (2015) 203 (1954) 729 208 238 258 274 397 741 912 1800 2890
2020-07-14 01:30 2.81 590 3780 (2015) 203 (1954) 729 208 238 258 274 397 741 912 1800 2890
2020-07-14 00:30 2.81 590 3780 (2015) 203 (1954) 729 208 238 258 274 397 741 912 1800 2890
2020-07-13 23:30 2.82 595 3710 (2015) 187 (1962) 745 206 247 266 288 367 737 1110 1810 3070
2020-07-13 22:30 2.81 590 3710 (2015) 187 (1962) 745 206 247 266 288 367 737 1110 1810 3070
2020-07-13 21:30 2.82 595 3710 (2015) 187 (1962) 745 206 247 266 288 367 737 1110 1810 3070
2020-07-13 20:30 2.82 595 3710 (2015) 187 (1962) 745 206 247 266 288 367 737 1110 1810 3070
2020-07-13 19:30 2.83 599 3710 (2015) 187 (1962) 745 206 247 266 288 367 737 1110 1810 3070
2020-07-13 18:30 2.83 599 3710 (2015) 187 (1962) 745 206 247 266 288 367 737 1110 1810 3070
2020-07-13 17:30 2.83 599 3710 (2015) 187 (1962) 745 206 247 266 288 367 737 1110 1810 3070
2020-07-13 16:30 2.84 603 3710 (2015) 187 (1962) 745 206 247 266 288 367 737 1110 1810 3070
2020-07-13 15:30 2.85 608 3710 (2015) 187 (1962) 745 206 247 266 288 367 737 1110 1810 3070
2020-07-13 14:30 2.87 616 3710 (2015) 187 (1962) 745 206 247 266 288 367 737 1110 1810 3070
2020-07-13 13:30 2.87 616 3710 (2015) 187 (1962) 745 206 247 266 288 367 737 1110 1810 3070
2020-07-13 12:30 2.88 621 3710 (2015) 187 (1962) 745 206 247 266 288 367 737 1110 1810 3070
2020-07-13 11:30 2.89 625 3710 (2015) 187 (1962) 745 206 247 266 288 367 737 1110 1810 3070
2020-07-13 10:30 2.89 625 3710 (2015) 187 (1962) 745 206 247 266 288 367 737 1110 1810 3070
2020-07-13 09:30 2.88 621 3710 (2015) 187 (1962) 745 206 247 266 288 367 737 1110 1810 3070
2020-07-13 08:30 2.89 625 3710 (2015) 187 (1962) 745 206 247 266 288 367 737 1110 1810 3070
2020-07-13 07:30 2.89 625 3710 (2015) 187 (1962) 745 206 247 266 288 367 737 1110 1810 3070
2020-07-13 06:30 2.90 630 3710 (2015) 187 (1962) 745 206 247 266 288 367 737 1110 1810 3070
2020-07-13 05:30 2.88 621 3710 (2015) 187 (1962) 745 206 247 266 288 367 737 1110 1810 3070
2020-07-13 04:30 2.89 625 3710 (2015) 187 (1962) 745 206 247 266 288 367 737 1110 1810 3070
2020-07-13 03:30 2.89 625 3710 (2015) 187 (1962) 745 206 247 266 288 367 737 1110 1810 3070
2020-07-13 02:30 2.89 625 3710 (2015) 187 (1962) 745 206 247 266 288 367 737 1110 1810 3070
2020-07-13 01:30 2.89 625 3710 (2015) 187 (1962) 745 206 247 266 288 367 737 1110 1810 3070
2020-07-13 00:30 2.89 625 3710 (2015) 187 (1962) 745 206 247 266 288 367 737 1110 1810 3070
2020-07-12 23:30 2.88 621 3660 (2015) 182 (1962) 773 204 237 258 274 389 773 1280 2010 3370
2020-07-12 22:30 2.90 630 3660 (2015) 182 (1962) 773 204 237 258 274 389 773 1280 2010 3370
2020-07-12 21:30 2.89 625 3660 (2015) 182 (1962) 773 204 237 258 274 389 773 1280 2010 3370
2020-07-12 20:30 2.88 621 3660 (2015) 182 (1962) 773 204 237 258 274 389 773 1280 2010 3370
2020-07-12 19:30 2.89 625 3660 (2015) 182 (1962) 773 204 237 258 274 389 773 1280 2010 3370
2020-07-12 18:30 2.89 625 3660 (2015) 182 (1962) 773 204 237 258 274 389 773 1280 2010 3370
2020-07-12 17:30 2.89 625 3660 (2015) 182 (1962) 773 204 237 258 274 389 773 1280 2010 3370
2020-07-12 16:30 2.90 630 3660 (2015) 182 (1962) 773 204 237 258 274 389 773 1280 2010 3370
2020-07-12 15:30 2.89 625 3660 (2015) 182 (1962) 773 204 237 258 274 389 773 1280 2010 3370
2020-07-12 14:30 2.90 630 3660 (2015) 182 (1962) 773 204 237 258 274 389 773 1280 2010 3370
2020-07-12 13:30 2.90 630 3660 (2015) 182 (1962) 773 204 237 258 274 389 773 1280 2010 3370
2020-07-12 12:30 2.90 630 3660 (2015) 182 (1962) 773 204 237 258 274 389 773 1280 2010 3370
2020-07-12 11:30 2.90 630 3660 (2015) 182 (1962) 773 204 237 258 274 389 773 1280 2010 3370
2020-07-12 10:30 2.90 630 3660 (2015) 182 (1962) 773 204 237 258 274 389 773 1280 2010 3370
2020-07-12 09:30 2.91 634 3660 (2015) 182 (1962) 773 204 237 258 274 389 773 1280 2010 3370
2020-07-12 08:30 2.90 630 3660 (2015) 182 (1962) 773 204 237 258 274 389 773 1280 2010 3370
2020-07-12 07:30 2.90 630 3660 (2015) 182 (1962) 773 204 237 258 274 389 773 1280 2010 3370
2020-07-12 06:30 2.91 634 3660 (2015) 182 (1962) 773 204 237 258 274 389 773 1280 2010 3370
2020-07-12 05:30 2.90 630 3660 (2015) 182 (1962) 773 204 237 258 274 389 773 1280 2010 3370
2020-07-12 04:30 2.90 630 3660 (2015) 182 (1962) 773 204 237 258 274 389 773 1280 2010 3370
2020-07-12 03:30 2.90 630 3660 (2015) 182 (1962) 773 204 237 258 274 389 773 1280 2010 3370
2020-07-12 02:30 2.90 630 3660 (2015) 182 (1962) 773 204 237 258 274 389 773 1280 2010 3370
2020-07-12 01:30 2.90 630 3660 (2015) 182 (1962) 773 204 237 258 274 389 773 1280 2010 3370
2020-07-12 00:30 2.90 630 3660 (2015) 182 (1962) 773 204 237 258 274 389 773 1280 2010 3370
2020-07-11 23:30 2.90 630 3600 (1950) 201 (1964) 804 205 238 259 279 406 818 1510 2020 3290
2020-07-11 22:30 2.92 638 3600 (1950) 201 (1964) 804 205 238 259 279 406 818 1510 2020 3290
2020-07-11 21:30 2.91 634 3600 (1950) 201 (1964) 804 205 238 259 279 406 818 1510 2020 3290
2020-07-11 20:30 2.90 630 3600 (1950) 201 (1964) 804 205 238 259 279 406 818 1510 2020 3290
2020-07-11 19:30 2.90 630 3600 (1950) 201 (1964) 804 205 238 259 279 406 818 1510 2020 3290
2020-07-11 18:30 2.90 630 3600 (1950) 201 (1964) 804 205 238 259 279 406 818 1510 2020 3290
2020-07-11 17:30 2.90 630 3600 (1950) 201 (1964) 804 205 238 259 279 406 818 1510 2020 3290
2020-07-11 16:30 2.91 634 3600 (1950) 201 (1964) 804 205 238 259 279 406 818 1510 2020 3290
2020-07-11 15:30 2.91 634 3600 (1950) 201 (1964) 804 205 238 259 279 406 818 1510 2020 3290
2020-07-11 14:30 2.91 634 3600 (1950) 201 (1964) 804 205 238 259 279 406 818 1510 2020 3290
2020-07-11 13:30 2.91 634 3600 (1950) 201 (1964) 804 205 238 259 279 406 818 1510 2020 3290
2020-07-11 12:30 2.91 634 3600 (1950) 201 (1964) 804 205 238 259 279 406 818 1510 2020 3290
2020-07-11 11:30 2.92 638 3600 (1950) 201 (1964) 804 205 238 259 279 406 818 1510 2020 3290
2020-07-11 10:30 2.91 634 3600 (1950) 201 (1964) 804 205 238 259 279 406 818 1510 2020 3290
2020-07-11 09:30 2.91 634 3600 (1950) 201 (1964) 804 205 238 259 279 406 818 1510 2020 3290
2020-07-11 08:30 2.91 634 3600 (1950) 201 (1964) 804 205 238 259 279 406 818 1510 2020 3290
2020-07-11 07:30 2.92 638 3600 (1950) 201 (1964) 804 205 238 259 279 406 818 1510 2020 3290
2020-07-11 06:30 2.91 634 3600 (1950) 201 (1964) 804 205 238 259 279 406 818 1510 2020 3290
2020-07-11 05:30 2.92 638 3600 (1950) 201 (1964) 804 205 238 259 279 406 818 1510 2020 3290
2020-07-11 04:30 2.93 643 3600 (1950) 201 (1964) 804 205 238 259 279 406 818 1510 2020 3290
2020-07-11 03:30 2.92 638 3600 (1950) 201 (1964) 804 205 238 259 279 406 818 1510 2020 3290
2020-07-11 02:30 2.92 638 3600 (1950) 201 (1964) 804 205 238 259 279 406 818 1510 2020 3290
2020-07-11 01:30 2.93 643 3600 (1950) 201 (1964) 804 205 238 259 279 406 818 1510 2020 3290
2020-07-11 00:30 2.93 643 3600 (1950) 201 (1964) 804 205 238 259 279 406 818 1510 2020 3290
2020-07-10 23:30 2.93 643 3490 (2017) 199 (1964) 780 207 241 260 297 411 904 1330 1960 3050
2020-07-10 22:30 2.93 643 3490 (2017) 199 (1964) 780 207 241 260 297 411 904 1330 1960 3050
2020-07-10 21:30 2.93 643 3490 (2017) 199 (1964) 780 207 241 260 297 411 904 1330 1960 3050
2020-07-10 20:30 2.93 643 3490 (2017) 199 (1964) 780 207 241 260 297 411 904 1330 1960 3050
2020-07-10 19:30 2.94 647 3490 (2017) 199 (1964) 780 207 241 260 297 411 904 1330 1960 3050
2020-07-10 18:30 2.96 656 3490 (2017) 199 (1964) 780 207 241 260 297 411 904 1330 1960 3050
2020-07-10 17:30 2.98 665 3490 (2017) 199 (1964) 780 207 241 260 297 411 904 1330 1960 3050
2020-07-10 16:30 2.99 670 3490 (2017) 199 (1964) 780 207 241 260 297 411 904 1330 1960 3050
2020-07-10 15:30 3.02 683 3490 (2017) 199 (1964) 780 207 241 260 297 411 904 1330 1960 3050
2020-07-10 14:30 3.04 693 3490 (2017) 199 (1964) 780 207 241 260 297 411 904 1330 1960 3050
2020-07-10 13:30 3.05 697 3490 (2017) 199 (1964) 780 207 241 260 297 411 904 1330 1960 3050
2020-07-10 12:30 3.10 720 3490 (2017) 199 (1964) 780 207 241 260 297 411 904 1330 1960 3050
2020-07-10 11:30 3.12 730 3490 (2017) 199 (1964) 780 207 241 260 297 411 904 1330 1960 3050
2020-07-10 10:30 3.12 730 3490 (2017) 199 (1964) 780 207 241 260 297 411 904 1330 1960 3050
2020-07-10 09:30 3.11 725 3490 (2017) 199 (1964) 780 207 241 260 297 411 904 1330 1960 3050
2020-07-10 08:30 3.13 734 3490 (2017) 199 (1964) 780 207 241 260 297 411 904 1330 1960 3050
2020-07-10 07:30 3.12 730 3490 (2017) 199 (1964) 780 207 241 260 297 411 904 1330 1960 3050
2020-07-10 06:30 3.13 734 3490 (2017) 199 (1964) 780 207 241 260 297 411 904 1330 1960 3050
2020-07-10 05:30 3.12 730 3490 (2017) 199 (1964) 780 207 241 260 297 411 904 1330 1960 3050
2020-07-10 04:30 3.12 730 3490 (2017) 199 (1964) 780 207 241 260 297 411 904 1330 1960 3050
2020-07-10 03:30 3.13 734 3490 (2017) 199 (1964) 780 207 241 260 297 411 904 1330 1960 3050
2020-07-10 02:30 3.14 739 3490 (2017) 199 (1964) 780 207 241 260 297 411 904 1330 1960 3050
2020-07-10 01:30 3.13 734 3490 (2017) 199 (1964) 780 207 241 260 297 411 904 1330 1960 3050
2020-07-10 00:30 3.13 734 3490 (2017) 199 (1964) 780 207 241 260 297 411 904 1330 1960 3050
2020-07-09 23:30 3.12 730 3450 (2017) 209 (1954) 798 213 245 269 294 447 998 1300 1990 2860
2020-07-09 22:30 3.13 734 3450 (2017) 209 (1954) 798 213 245 269 294 447 998 1300 1990 2860
2020-07-09 21:30 3.13 734 3450 (2017) 209 (1954) 798 213 245 269 294 447 998 1300 1990 2860
2020-07-09 20:30 3.13 734 3450 (2017) 209 (1954) 798 213 245 269 294 447 998 1300 1990 2860
2020-07-09 19:30 3.12 730 3450 (2017) 209 (1954) 798 213 245 269 294 447 998 1300 1990 2860
2020-07-09 18:30 3.14 739 3450 (2017) 209 (1954) 798 213 245 269 294 447 998 1300 1990 2860
2020-07-09 17:30 3.14 739 3450 (2017) 209 (1954) 798 213 245 269 294 447 998 1300 1990 2860
2020-07-09 16:30 3.15 744 3450 (2017) 209 (1954) 798 213 245 269 294 447 998 1300 1990 2860
2020-07-09 15:30 3.15 744 3450 (2017) 209 (1954) 798 213 245 269 294 447 998 1300 1990 2860
2020-07-09 14:30 3.16 748 3450 (2017) 209 (1954) 798 213 245 269 294 447 998 1300 1990 2860
2020-07-09 13:30 3.16 748 3450 (2017) 209 (1954) 798 213 245 269 294 447 998 1300 1990 2860
2020-07-09 12:30 3.18 758 3450 (2017) 209 (1954) 798 213 245 269 294 447 998 1300 1990 2860
2020-07-09 11:30 3.20 767 3450 (2017) 209 (1954) 798 213 245 269 294 447 998 1300 1990 2860
2020-07-09 10:30 3.20 767 3450 (2017) 209 (1954) 798 213 245 269 294 447 998 1300 1990 2860
2020-07-09 09:30 3.19 763 3450 (2017) 209 (1954) 798 213 245 269 294 447 998 1300 1990 2860
2020-07-09 08:30 3.19 763 3450 (2017) 209 (1954) 798 213 245 269 294 447 998 1300 1990 2860
2020-07-09 07:30 3.20 767 3450 (2017) 209 (1954) 798 213 245 269 294 447 998 1300 1990 2860
2020-07-09 06:30 3.20 767 3450 (2017) 209 (1954) 798 213 245 269 294 447 998 1300 1990 2860
2020-07-09 05:30 3.20 767 3450 (2017) 209 (1954) 798 213 245 269 294 447 998 1300 1990 2860
2020-07-09 04:30 3.21 772 3450 (2017) 209 (1954) 798 213 245 269 294 447 998 1300 1990 2860
2020-07-09 03:30 3.20 767 3450 (2017) 209 (1954) 798 213 245 269 294 447 998 1300 1990 2860
2020-07-09 02:30 3.20 767 3450 (2017) 209 (1954) 798 213 245 269 294 447 998 1300 1990 2860
2020-07-09 01:30 3.19 763 3450 (2017) 209 (1954) 798 213 245 269 294 447 998 1300 1990 2860
2020-07-09 00:30 3.22 777 3450 (2017) 209 (1954) 798 213 245 269 294 447 998 1300 1990 2860
2020-07-08 23:30 3.19 763 3490 (2017) 204 (2012) 799 241 251 283 306 419 825 1280 2040 2730
2020-07-08 22:30 3.20 767 3490 (2017) 204 (2012) 799 241 251 283 306 419 825 1280 2040 2730
2020-07-08 21:30 3.21 772 3490 (2017) 204 (2012) 799 241 251 283 306 419 825 1280 2040 2730
2020-07-08 20:30 3.19 763 3490 (2017) 204 (2012) 799 241 251 283 306 419 825 1280 2040 2730
2020-07-08 19:30 3.21 772 3490 (2017) 204 (2012) 799 241 251 283 306 419 825 1280 2040 2730
2020-07-08 18:30 3.20 767 3490 (2017) 204 (2012) 799 241 251 283 306 419 825 1280 2040 2730
2020-07-08 17:30 3.21 772 3490 (2017) 204 (2012) 799 241 251 283 306 419 825 1280 2040 2730
2020-07-08 16:30 3.21 772 3490 (2017) 204 (2012) 799 241 251 283 306 419 825 1280 2040 2730
2020-07-08 15:30 3.21 772 3490 (2017) 204 (2012) 799 241 251 283 306 419 825 1280 2040 2730
2020-07-08 14:30 3.21 772 3490 (2017) 204 (2012) 799 241 251 283 306 419 825 1280 2040 2730
2020-07-08 13:30 3.21 772 3490 (2017) 204 (2012) 799 241 251 283 306 419 825 1280 2040 2730
2020-07-08 12:30 3.20 767 3490 (2017) 204 (2012) 799 241 251 283 306 419 825 1280 2040 2730
2020-07-08 11:30 3.21 772 3490 (2017) 204 (2012) 799 241 251 283 306 419 825 1280 2040 2730
2020-07-08 10:30 3.22 777 3490 (2017) 204 (2012) 799 241 251 283 306 419 825 1280 2040 2730
2020-07-08 09:30 3.21 772 3490 (2017) 204 (2012) 799 241 251 283 306 419 825 1280 2040 2730
2020-07-08 08:30 3.22 777 3490 (2017) 204 (2012) 799 241 251 283 306 419 825 1280 2040 2730
2020-07-08 07:30 3.22 777 3490 (2017) 204 (2012) 799 241 251 283 306 419 825 1280 2040 2730
2020-07-08 06:30 3.22 777 3490 (2017) 204 (2012) 799 241 251 283 306 419 825 1280 2040 2730
2020-07-08 05:30 3.22 777 3490 (2017) 204 (2012) 799 241 251 283 306 419 825 1280 2040 2730
2020-07-08 04:30 3.23 782 3490 (2017) 204 (2012) 799 241 251 283 306 419 825 1280 2040 2730
2020-07-08 03:30 3.24 787 3490 (2017) 204 (2012) 799 241 251 283 306 419 825 1280 2040 2730
2020-07-08 02:30 3.24 787 3490 (2017) 204 (2012) 799 241 251 283 306 419 825 1280 2040 2730
2020-07-08 01:30 3.21 772 3490 (2017) 204 (2012) 799 241 251 283 306 419 825 1280 2040 2730
2020-07-08 00:30 3.21 772 3490 (2017) 204 (2012) 799 241 251 283 306 419 825 1280 2040 2730
2020-07-07 23:30 3.20 767 3520 (2017) 202 (2012) 780 215 246 275 287 436 779 1090 2050 2730
2020-07-07 22:30 3.20 767 3520 (2017) 202 (2012) 780 215 246 275 287 436 779 1090 2050 2730
2020-07-07 21:30 3.19 763 3520 (2017) 202 (2012) 780 215 246 275 287 436 779 1090 2050 2730
2020-07-07 20:30 3.20 767 3520 (2017) 202 (2012) 780 215 246 275 287 436 779 1090 2050 2730
2020-07-07 19:30 3.21 772 3520 (2017) 202 (2012) 780 215 246 275 287 436 779 1090 2050 2730
2020-07-07 18:30 3.19 763 3520 (2017) 202 (2012) 780 215 246 275 287 436 779 1090 2050 2730
2020-07-07 17:30 3.20 767 3520 (2017) 202 (2012) 780 215 246 275 287 436 779 1090 2050 2730
2020-07-07 16:30 3.19 763 3520 (2017) 202 (2012) 780 215 246 275 287 436 779 1090 2050 2730
2020-07-07 15:30 3.20 767 3520 (2017) 202 (2012) 780 215 246 275 287 436 779 1090 2050 2730
2020-07-07 14:30 3.20 767 3520 (2017) 202 (2012) 780 215 246 275 287 436 779 1090 2050 2730
2020-07-07 13:30 3.20 767 3520 (2017) 202 (2012) 780 215 246 275 287 436 779 1090 2050 2730
2020-07-07 12:30 3.20 767 3520 (2017) 202 (2012) 780 215 246 275 287 436 779 1090 2050 2730
2020-07-07 11:30 3.18 758 3520 (2017) 202 (2012) 780 215 246 275 287 436 779 1090 2050 2730
2020-07-07 10:30 3.20 767 3520 (2017) 202 (2012) 780 215 246 275 287 436 779 1090 2050 2730
2020-07-07 09:30 3.20 767 3520 (2017) 202 (2012) 780 215 246 275 287 436 779 1090 2050 2730
2020-07-07 08:30 3.20 767 3520 (2017) 202 (2012) 780 215 246 275 287 436 779 1090 2050 2730
2020-07-07 07:30 3.21 772 3520 (2017) 202 (2012) 780 215 246 275 287 436 779 1090 2050 2730
2020-07-07 06:30 3.20 767 3520 (2017) 202 (2012) 780 215 246 275 287 436 779 1090 2050 2730
2020-07-07 05:30 3.19 763 3520 (2017) 202 (2012) 780 215 246 275 287 436 779 1090 2050 2730
2020-07-07 04:30 3.20 767 3520 (2017) 202 (2012) 780 215 246 275 287 436 779 1090 2050 2730
2020-07-07 03:30 3.19 763 3520 (2017) 202 (2012) 780 215 246 275 287 436 779 1090 2050 2730
2020-07-07 02:30 3.20 767 3520 (2017) 202 (2012) 780 215 246 275 287 436 779 1090 2050 2730
2020-07-07 01:30 3.19 763 3520 (2017) 202 (2012) 780 215 246 275 287 436 779 1090 2050 2730
2020-07-07 00:30 3.19 763 3520 (2017) 202 (2012) 780 215 246 275 287 436 779 1090 2050 2730
2020-07-06 23:30 3.18 758 3550 (2017) 196 (1963) 761 216 242 267 282 433 767 1070 2040 2740
2020-07-06 22:30 3.17 753 3550 (2017) 196 (1963) 761 216 242 267 282 433 767 1070 2040 2740
2020-07-06 21:30 3.18 758 3550 (2017) 196 (1963) 761 216 242 267 282 433 767 1070 2040 2740
2020-07-06 20:30 3.17 753 3550 (2017) 196 (1963) 761 216 242 267 282 433 767 1070 2040 2740
2020-07-06 19:30 3.17 753 3550 (2017) 196 (1963) 761 216 242 267 282 433 767 1070 2040 2740
2020-07-06 18:30 3.16 748 3550 (2017) 196 (1963) 761 216 242 267 282 433 767 1070 2040 2740
2020-07-06 17:30 3.15 744 3550 (2017) 196 (1963) 761 216 242 267 282 433 767 1070 2040 2740
2020-07-06 16:30 3.14 739 3550 (2017) 196 (1963) 761 216 242 267 282 433 767 1070 2040 2740
2020-07-06 15:30 3.12 730 3550 (2017) 196 (1963) 761 216 242 267 282 433 767 1070 2040 2740
2020-07-06 14:30 3.08 711 3550 (2017) 196 (1963) 761 216 242 267 282 433 767 1070 2040 2740
2020-07-06 13:30 3.07 706 3550 (2017) 196 (1963) 761 216 242 267 282 433 767 1070 2040 2740
2020-07-06 12:30 3.03 688 3550 (2017) 196 (1963) 761 216 242 267 282 433 767 1070 2040 2740
2020-07-06 11:30 2.99 670 3550 (2017) 196 (1963) 761 216 242 267 282 433 767 1070 2040 2740
2020-07-06 10:30 3.00 674 3550 (2017) 196 (1963) 761 216 242 267 282 433 767 1070 2040 2740
2020-07-06 09:30 2.98 665 3550 (2017) 196 (1963) 761 216 242 267 282 433 767 1070 2040 2740
2020-07-06 08:30 2.99 670 3550 (2017) 196 (1963) 761 216 242 267 282 433 767 1070 2040 2740
2020-07-06 07:30 3.00 674 3550 (2017) 196 (1963) 761 216 242 267 282 433 767 1070 2040 2740
2020-07-06 06:30 3.00 674 3550 (2017) 196 (1963) 761 216 242 267 282 433 767 1070 2040 2740
2020-07-06 05:30 2.99 670 3550 (2017) 196 (1963) 761 216 242 267 282 433 767 1070 2040 2740
2020-07-06 04:30 3.00 674 3550 (2017) 196 (1963) 761 216 242 267 282 433 767 1070 2040 2740
2020-07-06 03:30 3.00 674 3550 (2017) 196 (1963) 761 216 242 267 282 433 767 1070 2040 2740
2020-07-06 02:30 2.99 670 3550 (2017) 196 (1963) 761 216 242 267 282 433 767 1070 2040 2740
2020-07-06 01:30 2.99 670 3550 (2017) 196 (1963) 761 216 242 267 282 433 767 1070 2040 2740
2020-07-06 00:30 2.99 670 3550 (2017) 196 (1963) 761 216 242 267 282 433 767 1070 2040 2740
2020-07-05 23:30 2.98 665 3590 (2017) 204 (1963) 722 221 251 286 295 416 714 887 1780 2490
2020-07-05 22:30 2.99 670 3590 (2017) 204 (1963) 722 221 251 286 295 416 714 887 1780 2490
2020-07-05 21:30 2.98 665 3590 (2017) 204 (1963) 722 221 251 286 295 416 714 887 1780 2490
2020-07-05 20:30 2.98 665 3590 (2017) 204 (1963) 722 221 251 286 295 416 714 887 1780 2490
2020-07-05 19:30 2.99 670 3590 (2017) 204 (1963) 722 221 251 286 295 416 714 887 1780 2490
2020-07-05 18:30 2.99 670 3590 (2017) 204 (1963) 722 221 251 286 295 416 714 887 1780 2490
2020-07-05 17:30 2.99 670 3590 (2017) 204 (1963) 722 221 251 286 295 416 714 887 1780 2490
2020-07-05 16:30 2.99 670 3590 (2017) 204 (1963) 722 221 251 286 295 416 714 887 1780 2490
2020-07-05 15:30 2.98 665 3590 (2017) 204 (1963) 722 221 251 286 295 416 714 887 1780 2490
2020-07-05 14:30 3.00 674 3590 (2017) 204 (1963) 722 221 251 286 295 416 714 887 1780 2490
2020-07-05 13:30 3.00 674 3590 (2017) 204 (1963) 722 221 251 286 295 416 714 887 1780 2490
2020-07-05 12:30 2.98 665 3590 (2017) 204 (1963) 722 221 251 286 295 416 714 887 1780 2490
2020-07-05 11:30 2.99 670 3590 (2017) 204 (1963) 722 221 251 286 295 416 714 887 1780 2490
2020-07-05 10:30 3.00 674 3590 (2017) 204 (1963) 722 221 251 286 295 416 714 887 1780 2490
2020-07-05 09:30 3.00 674 3590 (2017) 204 (1963) 722 221 251 286 295 416 714 887 1780 2490
2020-07-05 08:30 3.00 674 3590 (2017) 204 (1963) 722 221 251 286 295 416 714 887 1780 2490
2020-07-05 07:30 3.00 674 3590 (2017) 204 (1963) 722 221 251 286 295 416 714 887 1780 2490
2020-07-05 06:30 2.99 670 3590 (2017) 204 (1963) 722 221 251 286 295 416 714 887 1780 2490
2020-07-05 05:30 3.00 674 3590 (2017) 204 (1963) 722 221 251 286 295 416 714 887 1780 2490
2020-07-05 04:30 3.00 674 3590 (2017) 204 (1963) 722 221 251 286 295 416 714 887 1780 2490
2020-07-05 03:30 3.00 674 3590 (2017) 204 (1963) 722 221 251 286 295 416 714 887 1780 2490
2020-07-05 02:30 2.99 670 3590 (2017) 204 (1963) 722 221 251 286 295 416 714 887 1780 2490
2020-07-05 01:30 3.00 674 3590 (2017) 204 (1963) 722 221 251 286 295 416 714 887 1780 2490
2020-07-05 00:30 3.00 674 3590 (2017) 204 (1963) 722 221 251 286 295 416 714 887 1780 2490
2020-07-04 23:30 2.99 670 3590 (2017) 215 (2012) 716 223 247 288 298 449 746 874 1780 2480
2020-07-04 22:30 3.00 674 3590 (2017) 215 (2012) 716 223 247 288 298 449 746 874 1780 2480
2020-07-04 21:30 3.00 674 3590 (2017) 215 (2012) 716 223 247 288 298 449 746 874 1780 2480
2020-07-04 20:30 2.99 670 3590 (2017) 215 (2012) 716 223 247 288 298 449 746 874 1780 2480
2020-07-04 19:30 2.99 670 3590 (2017) 215 (2012) 716 223 247 288 298 449 746 874 1780 2480
2020-07-04 18:30 3.01 679 3590 (2017) 215 (2012) 716 223 247 288 298 449 746 874 1780 2480
2020-07-04 17:30 3.00 674 3590 (2017) 215 (2012) 716 223 247 288 298 449 746 874 1780 2480
2020-07-04 16:30 3.00 674 3590 (2017) 215 (2012) 716 223 247 288 298 449 746 874 1780 2480
2020-07-04 15:30 3.00 674 3590 (2017) 215 (2012) 716 223 247 288 298 449 746 874 1780 2480
2020-07-04 14:30 3.00 674 3590 (2017) 215 (2012) 716 223 247 288 298 449 746 874 1780 2480
2020-07-04 13:30 3.00 674 3590 (2017) 215 (2012) 716 223 247 288 298 449 746 874 1780 2480
2020-07-04 12:30 3.00 674 3590 (2017) 215 (2012) 716 223 247 288 298 449 746 874 1780 2480
2020-07-04 11:30 3.00 674 3590 (2017) 215 (2012) 716 223 247 288 298 449 746 874 1780 2480
2020-07-04 10:30 2.99 670 3590 (2017) 215 (2012) 716 223 247 288 298 449 746 874 1780 2480
2020-07-04 09:30 3.00 674 3590 (2017) 215 (2012) 716 223 247 288 298 449 746 874 1780 2480
2020-07-04 08:30 2.99 670 3590 (2017) 215 (2012) 716 223 247 288 298 449 746 874 1780 2480
2020-07-04 07:30 2.99 670 3590 (2017) 215 (2012) 716 223 247 288 298 449 746 874 1780 2480
2020-07-04 06:30 3.00 674 3590 (2017) 215 (2012) 716 223 247 288 298 449 746 874 1780 2480
2020-07-04 05:30 3.01 679 3590 (2017) 215 (2012) 716 223 247 288 298 449 746 874 1780 2480
2020-07-04 04:30 3.00 674 3590 (2017) 215 (2012) 716 223 247 288 298 449 746 874 1780 2480
2020-07-04 03:30 3.01 679 3590 (2017) 215 (2012) 716 223 247 288 298 449 746 874 1780 2480
2020-07-04 02:30 2.99 670 3590 (2017) 215 (2012) 716 223 247 288 298 449 746 874 1780 2480
2020-07-04 01:30 3.00 674 3590 (2017) 215 (2012) 716 223 247 288 298 449 746 874 1780 2480
2020-07-04 00:30 3.00 674 3590 (2017) 215 (2012) 716 223 247 288 298 449 746 874 1780 2480
2020-07-03 23:30 3.00 674 3640 (2017) 225 (1954) 752 233 241 293 308 474 790 905 1810 2550
2020-07-03 22:30 3.00 674 3640 (2017) 225 (1954) 752 233 241 293 308 474 790 905 1810 2550
2020-07-03 21:30 3.00 674 3640 (2017) 225 (1954) 752 233 241 293 308 474 790 905 1810 2550
2020-07-03 20:30 3.00 674 3640 (2017) 225 (1954) 752 233 241 293 308 474 790 905 1810 2550
2020-07-03 19:30 2.99 670 3640 (2017) 225 (1954) 752 233 241 293 308 474 790 905 1810 2550
2020-07-03 18:30 3.00 674 3640 (2017) 225 (1954) 752 233 241 293 308 474 790 905 1810 2550
2020-07-03 17:30 3.01 679 3640 (2017) 225 (1954) 752 233 241 293 308 474 790 905 1810 2550
2020-07-03 16:30 3.00 674 3640 (2017) 225 (1954) 752 233 241 293 308 474 790 905 1810 2550
2020-07-03 15:30 3.01 679 3640 (2017) 225 (1954) 752 233 241 293 308 474 790 905 1810 2550
2020-07-03 14:30 3.02 683 3640 (2017) 225 (1954) 752 233 241 293 308 474 790 905 1810 2550
2020-07-03 13:30 3.01 679 3640 (2017) 225 (1954) 752 233 241 293 308 474 790 905 1810 2550
2020-07-03 12:30 3.01 679 3640 (2017) 225 (1954) 752 233 241 293 308 474 790 905 1810 2550
2020-07-03 11:30 3.02 683 3640 (2017) 225 (1954) 752 233 241 293 308 474 790 905 1810 2550
2020-07-03 10:30 3.01 679 3640 (2017) 225 (1954) 752 233 241 293 308 474 790 905 1810 2550
2020-07-03 09:30 3.01 679 3640 (2017) 225 (1954) 752 233 241 293 308 474 790 905 1810 2550
2020-07-03 08:30 3.01 679 3640 (2017) 225 (1954) 752 233 241 293 308 474 790 905 1810 2550
2020-07-03 07:30 3.01 679 3640 (2017) 225 (1954) 752 233 241 293 308 474 790 905 1810 2550
2020-07-03 06:30 3.01 679 3640 (2017) 225 (1954) 752 233 241 293 308 474 790 905 1810 2550
2020-07-03 05:30 3.01 679 3640 (2017) 225 (1954) 752 233 241 293 308 474 790 905 1810 2550
2020-07-03 04:30 3.02 683 3640 (2017) 225 (1954) 752 233 241 293 308 474 790 905 1810 2550
2020-07-03 03:30 3.01 679 3640 (2017) 225 (1954) 752 233 241 293 308 474 790 905 1810 2550
2020-07-03 02:30 3.01 679 3640 (2017) 225 (1954) 752 233 241 293 308 474 790 905 1810 2550
2020-07-03 01:30 3.01 679 3640 (2017) 225 (1954) 752 233 241 293 308 474 790 905 1810 2550
2020-07-03 00:30 3.01 679 3640 (2017) 225 (1954) 752 233 241 293 308 474 790 905 1810 2550
2020-07-02 23:30 3.02 683 3650 (2017) 231 (1954) 776 233 246 303 318 547 836 992 1980 2550
2020-07-02 22:30 3.02 683 3650 (2017) 231 (1954) 776 233 246 303 318 547 836 992 1980 2550
2020-07-02 21:30 3.00 674 3650 (2017) 231 (1954) 776 233 246 303 318 547 836 992 1980 2550
2020-07-02 20:30 3.01 679 3650 (2017) 231 (1954) 776 233 246 303 318 547 836 992 1980 2550
2020-07-02 19:30 3.00 674 3650 (2017) 231 (1954) 776 233 246 303 318 547 836 992 1980 2550
2020-07-02 18:30 3.00 674 3650 (2017) 231 (1954) 776 233 246 303 318 547 836 992 1980 2550
2020-07-02 17:30 3.00 674 3650 (2017) 231 (1954) 776 233 246 303 318 547 836 992 1980 2550
2020-07-02 16:30 3.02 683 3650 (2017) 231 (1954) 776 233 246 303 318 547 836 992 1980 2550
2020-07-02 15:30 3.01 679 3650 (2017) 231 (1954) 776 233 246 303 318 547 836 992 1980 2550
2020-07-02 14:30 3.02 683 3650 (2017) 231 (1954) 776 233 246 303 318 547 836 992 1980 2550
2020-07-02 13:30 3.01 679 3650 (2017) 231 (1954) 776 233 246 303 318 547 836 992 1980 2550
2020-07-02 12:30 3.02 683 3650 (2017) 231 (1954) 776 233 246 303 318 547 836 992 1980 2550
2020-07-02 11:30 3.00 674 3650 (2017) 231 (1954) 776 233 246 303 318 547 836 992 1980 2550
2020-07-02 10:30 3.02 683 3650 (2017) 231 (1954) 776 233 246 303 318 547 836 992 1980 2550
2020-07-02 09:30 3.02 683 3650 (2017) 231 (1954) 776 233 246 303 318 547 836 992 1980 2550
2020-07-02 08:30 3.02 683 3650 (2017) 231 (1954) 776 233 246 303 318 547 836 992 1980 2550
2020-07-02 07:30 3.02 683 3650 (2017) 231 (1954) 776 233 246 303 318 547 836 992 1980 2550
2020-07-02 06:30 3.02 683 3650 (2017) 231 (1954) 776 233 246 303 318 547 836 992 1980 2550
2020-07-02 05:30 3.02 683 3650 (2017) 231 (1954) 776 233 246 303 318 547 836 992 1980 2550
2020-07-02 04:30 3.03 688 3650 (2017) 231 (1954) 776 233 246 303 318 547 836 992 1980 2550
2020-07-02 03:30 3.04 693 3650 (2017) 231 (1954) 776 233 246 303 318 547 836 992 1980 2550
2020-07-02 02:30 3.03 688 3650 (2017) 231 (1954) 776 233 246 303 318 547 836 992 1980 2550
2020-07-02 01:30 3.03 688 3650 (2017) 231 (1954) 776 233 246 303 318 547 836 992 1980 2550
2020-07-02 00:30 3.02 683 3650 (2017) 231 (1954) 776 233 246 303 318 547 836 992 1980 2550
2020-07-01 23:30 3.03 688 3690 (2017) 235 (1955) 823 238 242 289 303 581 1020 1120 1990 2560
2020-07-01 22:30 3.02 683 3690 (2017) 235 (1955) 823 238 242 289 303 581 1020 1120 1990 2560
2020-07-01 21:30 3.02 683 3690 (2017) 235 (1955) 823 238 242 289 303 581 1020 1120 1990 2560
2020-07-01 20:30 3.03 688 3690 (2017) 235 (1955) 823 238 242 289 303 581 1020 1120 1990 2560
2020-07-01 19:30 3.04 693 3690 (2017) 235 (1955) 823 238 242 289 303 581 1020 1120 1990 2560
2020-07-01 18:30 3.04 693 3690 (2017) 235 (1955) 823 238 242 289 303 581 1020 1120 1990 2560
2020-07-01 17:30 3.03 688 3690 (2017) 235 (1955) 823 238 242 289 303 581 1020 1120 1990 2560
2020-07-01 16:30 3.04 693 3690 (2017) 235 (1955) 823 238 242 289 303 581 1020 1120 1990 2560
2020-07-01 15:30 3.04 693 3690 (2017) 235 (1955) 823 238 242 289 303 581 1020 1120 1990 2560
2020-07-01 14:30 3.04 693 3690 (2017) 235 (1955) 823 238 242 289 303 581 1020 1120 1990 2560
2020-07-01 13:30 3.04 693 3690 (2017) 235 (1955) 823 238 242 289 303 581 1020 1120 1990 2560
2020-07-01 12:30 3.02 683 3690 (2017) 235 (1955) 823 238 242 289 303 581 1020 1120 1990 2560
2020-07-01 11:30 3.03 688 3690 (2017) 235 (1955) 823 238 242 289 303 581 1020 1120 1990 2560
2020-07-01 10:30 3.03 688 3690 (2017) 235 (1955) 823 238 242 289 303 581 1020 1120 1990 2560
2020-07-01 09:30 3.03 688 3690 (2017) 235 (1955) 823 238 242 289 303 581 1020 1120 1990 2560
2020-07-01 08:30 3.03 688 3690 (2017) 235 (1955) 823 238 242 289 303 581 1020 1120 1990 2560
2020-07-01 07:30 3.02 683 3690 (2017) 235 (1955) 823 238 242 289 303 581 1020 1120 1990 2560
2020-07-01 06:30 3.04 693 3690 (2017) 235 (1955) 823 238 242 289 303 581 1020 1120 1990 2560
2020-07-01 05:30 3.03 688 3690 (2017) 235 (1955) 823 238 242 289 303 581 1020 1120 1990 2560
2020-07-01 04:30 3.04 693 3690 (2017) 235 (1955) 823 238 242 289 303 581 1020 1120 1990 2560
2020-07-01 03:30 3.04 693 3690 (2017) 235 (1955) 823 238 242 289 303 581 1020 1120 1990 2560
2020-07-01 02:30 3.04 693 3690 (2017) 235 (1955) 823 238 242 289 303 581 1020 1120 1990 2560
2020-07-01 01:30 3.05 697 3690 (2017) 235 (1955) 823 238 242 289 303 581 1020 1120 1990 2560
2020-07-01 00:30 3.05 697 3690 (2017) 235 (1955) 823 238 242 289 303 581 1020 1120 1990 2560
2020-06-30 23:30 3.05 697 3720 (2017) 185 (1963) 848 238 255 272 290 518 1130 1350 2010 2560
2020-06-30 22:30 3.05 697 3720 (2017) 185 (1963) 848 238 255 272 290 518 1130 1350 2010 2560
2020-06-30 21:30 3.03 688 3720 (2017) 185 (1963) 848 238 255 272 290 518 1130 1350 2010 2560
2020-06-30 20:30 3.04 693 3720 (2017) 185 (1963) 848 238 255 272 290 518 1130 1350 2010 2560
2020-06-30 19:30 3.04 693 3720 (2017) 185 (1963) 848 238 255 272 290 518 1130 1350 2010 2560
2020-06-30 18:30 3.05 697 3720 (2017) 185 (1963) 848 238 255 272 290 518 1130 1350 2010 2560
2020-06-30 17:30 3.03 688 3720 (2017) 185 (1963) 848 238 255 272 290 518 1130 1350 2010 2560
2020-06-30 16:30 3.04 693 3720 (2017) 185 (1963) 848 238 255 272 290 518 1130 1350 2010 2560
2020-06-30 15:30 3.04 693 3720 (2017) 185 (1963) 848 238 255 272 290 518 1130 1350 2010 2560
2020-06-30 14:30 3.03 688 3720 (2017) 185 (1963) 848 238 255 272 290 518 1130 1350 2010 2560
2020-06-30 13:30 3.05 697 3720 (2017) 185 (1963) 848 238 255 272 290 518 1130 1350 2010 2560
2020-06-30 12:30 3.04 693 3720 (2017) 185 (1963) 848 238 255 272 290 518 1130 1350 2010 2560
2020-06-30 11:30 3.04 693 3720 (2017) 185 (1963) 848 238 255 272 290 518 1130 1350 2010 2560
2020-06-30 10:30 3.05 697 3720 (2017) 185 (1963) 848 238 255 272 290 518 1130 1350 2010 2560
2020-06-30 09:30 3.04 693 3720 (2017) 185 (1963) 848 238 255 272 290 518 1130 1350 2010 2560
2020-06-30 08:30 3.06 702 3720 (2017) 185 (1963) 848 238 255 272 290 518 1130 1350 2010 2560
2020-06-30 07:30 3.04 693 3720 (2017) 185 (1963) 848 238 255 272 290 518 1130 1350 2010 2560
2020-06-30 06:30 3.06 702 3720 (2017) 185 (1963) 848 238 255 272 290 518 1130 1350 2010 2560
2020-06-30 05:30 3.06 702 3720 (2017) 185 (1963) 848 238 255 272 290 518 1130 1350 2010 2560
2020-06-30 04:30 3.07 706 3720 (2017) 185 (1963) 848 238 255 272 290 518 1130 1350 2010 2560
2020-06-30 03:30 3.06 702 3720 (2017) 185 (1963) 848 238 255 272 290 518 1130 1350 2010 2560
2020-06-30 02:30 3.04 693 3720 (2017) 185 (1963) 848 238 255 272 290 518 1130 1350 2010 2560
2020-06-30 01:30 3.07 706 3720 (2017) 185 (1963) 848 238 255 272 290 518 1130 1350 2010 2560
2020-06-30 00:30 3.05 697 3720 (2017) 185 (1963) 848 238 255 272 290 518 1130 1350 2010 2560
2020-06-29 23:30 3.05 697 3760 (2017) 193 (1963) 897 228 255 307 323 508 1270 1660 2090 2490
2020-06-29 22:30 3.06 702 3760 (2017) 193 (1963) 897 228 255 307 323 508 1270 1660 2090 2490
2020-06-29 21:30 3.07 706 3760 (2017) 193 (1963) 897 228 255 307 323 508 1270 1660 2090 2490
2020-06-29 20:30 3.06 702 3760 (2017) 193 (1963) 897 228 255 307 323 508 1270 1660 2090 2490
2020-06-29 19:30 3.06 702 3760 (2017) 193 (1963) 897 228 255 307 323 508 1270 1660 2090 2490
2020-06-29 18:30 3.07 706 3760 (2017) 193 (1963) 897 228 255 307 323 508 1270 1660 2090 2490
2020-06-29 17:30 3.07 706 3760 (2017) 193 (1963) 897 228 255 307 323 508 1270 1660 2090 2490
2020-06-29 16:30 3.09 716 3760 (2017) 193 (1963) 897 228 255 307 323 508 1270 1660 2090 2490
2020-06-29 15:30 3.11 725 3760 (2017) 193 (1963) 897 228 255 307 323 508 1270 1660 2090 2490
2020-06-29 14:30 3.11 725 3760 (2017) 193 (1963) 897 228 255 307 323 508 1270 1660 2090 2490
2020-06-29 13:30 3.12 730 3760 (2017) 193 (1963) 897 228 255 307 323 508 1270 1660 2090 2490
2020-06-29 12:30 3.15 744 3760 (2017) 193 (1963) 897 228 255 307 323 508 1270 1660 2090 2490
2020-06-29 11:30 3.16 748 3760 (2017) 193 (1963) 897 228 255 307 323 508 1270 1660 2090 2490
2020-06-29 10:30 3.18 758 3760 (2017) 193 (1963) 897 228 255 307 323 508 1270 1660 2090 2490
2020-06-29 09:30 3.18 758 3760 (2017) 193 (1963) 897 228 255 307 323 508 1270 1660 2090 2490
2020-06-29 08:30 3.18 758 3760 (2017) 193 (1963) 897 228 255 307 323 508 1270 1660 2090 2490
2020-06-29 07:30 3.18 758 3760 (2017) 193 (1963) 897 228 255 307 323 508 1270 1660 2090 2490
2020-06-29 06:30 3.19 763 3760 (2017) 193 (1963) 897 228 255 307 323 508 1270 1660 2090 2490
2020-06-29 05:30 3.18 758 3760 (2017) 193 (1963) 897 228 255 307 323 508 1270 1660 2090 2490
2020-06-29 04:30 3.18 758 3760 (2017) 193 (1963) 897 228 255 307 323 508 1270 1660 2090 2490
2020-06-29 03:30 3.18 758 3760 (2017) 193 (1963) 897 228 255 307 323 508 1270 1660 2090 2490
2020-06-29 02:30 3.18 758 3760 (2017) 193 (1963) 897 228 255 307 323 508 1270 1660 2090 2490
2020-06-29 01:30 3.18 758 3760 (2017) 193 (1963) 897 228 255 307 323 508 1270 1660 2090 2490
2020-06-29 00:30 3.18 758 3760 (2017) 193 (1963) 897 228 255 307 323 508 1270 1660 2090 2490
2020-06-28 23:30 3.18 758 3790 (2017) 201 (1963) 956 233 251 310 330 589 1440 1780 2290 3010
2020-06-28 22:30 3.17 753 3790 (2017) 201 (1963) 956 233 251 310 330 589 1440 1780 2290 3010
2020-06-28 21:30 3.17 753 3790 (2017) 201 (1963) 956 233 251 310 330 589 1440 1780 2290 3010
2020-06-28 20:30 3.17 753 3790 (2017) 201 (1963) 956 233 251 310 330 589 1440 1780 2290 3010
2020-06-28 19:30 3.17 753 3790 (2017) 201 (1963) 956 233 251 310 330 589 1440 1780 2290 3010
2020-06-28 18:30 3.17 753 3790 (2017) 201 (1963) 956 233 251 310 330 589 1440 1780 2290 3010
2020-06-28 17:30 3.16 748 3790 (2017) 201 (1963) 956 233 251 310 330 589 1440 1780 2290 3010
2020-06-28 16:30 3.19 763 3790 (2017) 201 (1963) 956 233 251 310 330 589 1440 1780 2290 3010
2020-06-28 15:30 3.17 753 3790 (2017) 201 (1963) 956 233 251 310 330 589 1440 1780 2290 3010
2020-06-28 14:30 3.18 758 3790 (2017) 201 (1963) 956 233 251 310 330 589 1440 1780 2290 3010
2020-06-28 13:30 3.17 753 3790 (2017) 201 (1963) 956 233 251 310 330 589 1440 1780 2290 3010
2020-06-28 12:30 3.17 753 3790 (2017) 201 (1963) 956 233 251 310 330 589 1440 1780 2290 3010
2020-06-28 11:30 3.18 758 3790 (2017) 201 (1963) 956 233 251 310 330 589 1440 1780 2290 3010
2020-06-28 10:30 3.18 758 3790 (2017) 201 (1963) 956 233 251 310 330 589 1440 1780 2290 3010
2020-06-28 09:30 3.19 763 3790 (2017) 201 (1963) 956 233 251 310 330 589 1440 1780 2290 3010
2020-06-28 08:30 3.18 758 3790 (2017) 201 (1963) 956 233 251 310 330 589 1440 1780 2290 3010
2020-06-28 07:30 3.18 758 3790 (2017) 201 (1963) 956 233 251 310 330 589 1440 1780 2290 3010
2020-06-28 06:30 3.18 758 3790 (2017) 201 (1963) 956 233 251 310 330 589 1440 1780 2290 3010
2020-06-28 05:30 3.19 763 3790 (2017) 201 (1963) 956 233 251 310 330 589 1440 1780 2290 3010
2020-06-28 04:30 3.18 758 3790 (2017) 201 (1963) 956 233 251 310 330 589 1440 1780 2290 3010
2020-06-28 03:30 3.19 763 3790 (2017) 201 (1963) 956 233 251 310 330 589 1440 1780 2290 3010
2020-06-28 02:30 3.19 763 3790 (2017) 201 (1963) 956 233 251 310 330 589 1440 1780 2290 3010
2020-06-28 01:30 3.19 763 3790 (2017) 201 (1963) 956 233 251 310 330 589 1440 1780 2290 3010
2020-06-28 00:30 3.20 767 3790 (2017) 201 (1963) 956 233 251 310 330 589 1440 1780 2290 3010
2020-06-27 23:30 3.20 767 3750 (2017) 215 (1963) 995 247 269 332 374 550 1620 1790 2640 3220
2020-06-27 22:30 3.19 763 3750 (2017) 215 (1963) 995 247 269 332 374 550 1620 1790 2640 3220
2020-06-27 21:30 3.18 758 3750 (2017) 215 (1963) 995 247 269 332 374 550 1620 1790 2640 3220
2020-06-27 20:30 3.20 767 3750 (2017) 215 (1963) 995 247 269 332 374 550 1620 1790 2640 3220
2020-06-27 19:30 3.19 763 3750 (2017) 215 (1963) 995 247 269 332 374 550 1620 1790 2640 3220
2020-06-27 18:30 3.19 763 3750 (2017) 215 (1963) 995 247 269 332 374 550 1620 1790 2640 3220
2020-06-27 17:30 3.18 758 3750 (2017) 215 (1963) 995 247 269 332 374 550 1620 1790 2640 3220
2020-06-27 16:30 3.20 767 3750 (2017) 215 (1963) 995 247 269 332 374 550 1620 1790 2640 3220
2020-06-27 15:30 3.19 763 3750 (2017) 215 (1963) 995 247 269 332 374 550 1620 1790 2640 3220
2020-06-27 14:30 3.20 767 3750 (2017) 215 (1963) 995 247 269 332 374 550 1620 1790 2640 3220
2020-06-27 13:30 3.19 763 3750 (2017) 215 (1963) 995 247 269 332 374 550 1620 1790 2640 3220
2020-06-27 12:30 3.19 763 3750 (2017) 215 (1963) 995 247 269 332 374 550 1620 1790 2640 3220
2020-06-27 11:30 3.19 763 3750 (2017) 215 (1963) 995 247 269 332 374 550 1620 1790 2640 3220
2020-06-27 10:30 3.19 763 3750 (2017) 215 (1963) 995 247 269 332 374 550 1620 1790 2640 3220
2020-06-27 09:30 3.19 763 3750 (2017) 215 (1963) 995 247 269 332 374 550 1620 1790 2640 3220
2020-06-27 08:30 3.20 767 3750 (2017) 215 (1963) 995 247 269 332 374 550 1620 1790 2640 3220
2020-06-27 07:30 3.20 767 3750 (2017) 215 (1963) 995 247 269 332 374 550 1620 1790 2640 3220
2020-06-27 06:30 3.21 772 3750 (2017) 215 (1963) 995 247 269 332 374 550 1620 1790 2640 3220
2020-06-27 05:30 3.22 777 3750 (2017) 215 (1963) 995 247 269 332 374 550 1620 1790 2640 3220
2020-06-27 04:30 3.19 763 3750 (2017) 215 (1963) 995 247 269 332 374 550 1620 1790 2640 3220
2020-06-27 03:30 3.20 767 3750 (2017) 215 (1963) 995 247 269 332 374 550 1620 1790 2640 3220
2020-06-27 02:30 3.21 772 3750 (2017) 215 (1963) 995 247 269 332 374 550 1620 1790 2640 3220
2020-06-27 01:30 3.19 763 3750 (2017) 215 (1963) 995 247 269 332 374 550 1620 1790 2640 3220
2020-06-27 00:30 3.20 767 3750 (2017) 215 (1963) 995 247 269 332 374 550 1620 1790 2640 3220
2020-06-26 23:30 3.19 763 3740 (2017) 245 (1960) 1060 256 276 328 379 529 1810 1970 2680 3220
2020-06-26 22:30 3.19 763 3740 (2017) 245 (1960) 1060 256 276 328 379 529 1810 1970 2680 3220
2020-06-26 21:30 3.21 772 3740 (2017) 245 (1960) 1060 256 276 328 379 529 1810 1970 2680 3220
2020-06-26 20:30 3.20 767 3740 (2017) 245 (1960) 1060 256 276 328 379 529 1810 1970 2680 3220
2020-06-26 19:30 3.20 767 3740 (2017) 245 (1960) 1060 256 276 328 379 529 1810 1970 2680 3220
2020-06-26 18:30 3.20 767 3740 (2017) 245 (1960) 1060 256 276 328 379 529 1810 1970 2680 3220
2020-06-26 17:30 3.21 772 3740 (2017) 245 (1960) 1060 256 276 328 379 529 1810 1970 2680 3220
2020-06-26 16:30 3.19 763 3740 (2017) 245 (1960) 1060 256 276 328 379 529 1810 1970 2680 3220
2020-06-26 15:30 3.21 772 3740 (2017) 245 (1960) 1060 256 276 328 379 529 1810 1970 2680 3220
2020-06-26 14:30 3.20 767 3740 (2017) 245 (1960) 1060 256 276 328 379 529 1810 1970 2680 3220
2020-06-26 13:30 3.21 772 3740 (2017) 245 (1960) 1060 256 276 328 379 529 1810 1970 2680 3220
2020-06-26 12:30 3.20 767 3740 (2017) 245 (1960) 1060 256 276 328 379 529 1810 1970 2680 3220
2020-06-26 11:30 3.21 772 3740 (2017) 245 (1960) 1060 256 276 328 379 529 1810 1970 2680 3220
2020-06-26 10:30 3.20 767 3740 (2017) 245 (1960) 1060 256 276 328 379 529 1810 1970 2680 3220
2020-06-26 09:30 3.21 772 3740 (2017) 245 (1960) 1060 256 276 328 379 529 1810 1970 2680 3220
2020-06-26 08:30 3.21 772 3740 (2017) 245 (1960) 1060 256 276 328 379 529 1810 1970 2680 3220
2020-06-26 07:30 3.21 772 3740 (2017) 245 (1960) 1060 256 276 328 379 529 1810 1970 2680 3220
2020-06-26 06:30 3.22 777 3740 (2017) 245 (1960) 1060 256 276 328 379 529 1810 1970 2680 3220
2020-06-26 05:30 3.22 777 3740 (2017) 245 (1960) 1060 256 276 328 379 529 1810 1970 2680 3220
2020-06-26 04:30 3.21 772 3740 (2017) 245 (1960) 1060 256 276 328 379 529 1810 1970 2680 3220
2020-06-26 03:30 3.22 777 3740 (2017) 245 (1960) 1060 256 276 328 379 529 1810 1970 2680 3220
2020-06-26 02:30 3.22 777 3740 (2017) 245 (1960) 1060 256 276 328 379 529 1810 1970 2680 3220
2020-06-26 01:30 3.20 767 3740 (2017) 245 (1960) 1060 256 276 328 379 529 1810 1970 2680 3220
2020-06-26 00:30 3.20 767 3740 (2017) 245 (1960) 1060 256 276 328 379 529 1810 1970 2680 3220
2020-06-25 23:30 3.21 772 3760 (2017) 244 (1955) 1070 248 273 364 386 538 1810 2140 2620 3310
2020-06-25 22:30 3.23 782 3760 (2017) 244 (1955) 1070 248 273 364 386 538 1810 2140 2620 3310
2020-06-25 21:30 3.20 767 3760 (2017) 244 (1955) 1070 248 273 364 386 538 1810 2140 2620 3310
2020-06-25 20:30 3.20 767 3760 (2017) 244 (1955) 1070 248 273 364 386 538 1810 2140 2620 3310
2020-06-25 19:30 3.21 772 3760 (2017) 244 (1955) 1070 248 273 364 386 538 1810 2140 2620 3310
2020-06-25 18:30 3.22 777 3760 (2017) 244 (1955) 1070 248 273 364 386 538 1810 2140 2620 3310
2020-06-25 17:30 3.21 772 3760 (2017) 244 (1955) 1070 248 273 364 386 538 1810 2140 2620 3310
2020-06-25 16:30 3.21 772 3760 (2017) 244 (1955) 1070 248 273 364 386 538 1810 2140 2620 3310
2020-06-25 15:30 3.22 777 3760 (2017) 244 (1955) 1070 248 273 364 386 538 1810 2140 2620 3310
2020-06-25 14:30 3.23 782 3760 (2017) 244 (1955) 1070 248 273 364 386 538 1810 2140 2620 3310
2020-06-25 13:30 3.23 782 3760 (2017) 244 (1955) 1070 248 273 364 386 538 1810 2140 2620 3310
2020-06-25 12:30 3.22 777 3760 (2017) 244 (1955) 1070 248 273 364 386 538 1810 2140 2620 3310
2020-06-25 11:30 3.23 782 3760 (2017) 244 (1955) 1070 248 273 364 386 538 1810 2140 2620 3310
2020-06-25 10:30 3.21 772 3760 (2017) 244 (1955) 1070 248 273 364 386 538 1810 2140 2620 3310
2020-06-25 09:30 3.25 791 3760 (2017) 244 (1955) 1070 248 273 364 386 538 1810 2140 2620 3310
2020-06-25 08:30 3.24 787 3760 (2017) 244 (1955) 1070 248 273 364 386 538 1810 2140 2620 3310
2020-06-25 07:30 3.23 782 3760 (2017) 244 (1955) 1070 248 273 364 386 538 1810 2140 2620 3310
2020-06-25 06:30 3.23 782 3760 (2017) 244 (1955) 1070 248 273 364 386 538 1810 2140 2620 3310
2020-06-25 05:30 3.23 782 3760 (2017) 244 (1955) 1070 248 273 364 386 538 1810 2140 2620 3310
2020-06-25 04:30 3.23 782 3760 (2017) 244 (1955) 1070 248 273 364 386 538 1810 2140 2620 3310
2020-06-25 03:30 3.23 782 3760 (2017) 244 (1955) 1070 248 273 364 386 538 1810 2140 2620 3310
2020-06-25 02:30 3.24 787 3760 (2017) 244 (1955) 1070 248 273 364 386 538 1810 2140 2620 3310
2020-06-25 01:30 3.25 791 3760 (2017) 244 (1955) 1070 248 273 364 386 538 1810 2140 2620 3310
2020-06-25 00:30 3.24 787 3760 (2017) 244 (1955) 1070 248 273 364 386 538 1810 2140 2620 3310
2020-06-24 23:30 3.24 787 3780 (2017) 242 (1955) 1080 253 272 341 357 587 1810 1930 2810 3410
2020-06-24 22:30 3.23 782 3780 (2017) 242 (1955) 1080 253 272 341 357 587 1810 1930 2810 3410
2020-06-24 21:30 3.26 796 3780 (2017) 242 (1955) 1080 253 272 341 357 587 1810 1930 2810 3410
2020-06-24 20:30 3.25 791 3780 (2017) 242 (1955) 1080 253 272 341 357 587 1810 1930 2810 3410
2020-06-24 19:30 3.27 801 3780 (2017) 242 (1955) 1080 253 272 341 357 587 1810 1930 2810 3410
2020-06-24 18:30 3.26 796 3780 (2017) 242 (1955) 1080 253 272 341 357 587 1810 1930 2810 3410
2020-06-24 17:30 3.27 801 3780 (2017) 242 (1955) 1080 253 272 341 357 587 1810 1930 2810 3410
2020-06-24 16:30 3.29 811 3780 (2017) 242 (1955) 1080 253 272 341 357 587 1810 1930 2810 3410
2020-06-24 15:30 3.28 806 3780 (2017) 242 (1955) 1080 253 272 341 357 587 1810 1930 2810 3410
2020-06-24 14:30 3.31 821 3780 (2017) 242 (1955) 1080 253 272 341 357 587 1810 1930 2810 3410
2020-06-24 13:30 3.34 835 3780 (2017) 242 (1955) 1080 253 272 341 357 587 1810 1930 2810 3410
2020-06-24 12:30 3.36 845 3780 (2017) 242 (1955) 1080 253 272 341 357 587 1810 1930 2810 3410
2020-06-24 11:30 3.37 850 3780 (2017) 242 (1955) 1080 253 272 341 357 587 1810 1930 2810 3410
2020-06-24 10:30 3.40 865 3780 (2017) 242 (1955) 1080 253 272 341 357 587 1810 1930 2810 3410
2020-06-24 09:30 3.42 875 3780 (2017) 242 (1955) 1080 253 272 341 357 587 1810 1930 2810 3410
2020-06-24 08:30 3.41 870 3780 (2017) 242 (1955) 1080 253 272 341 357 587 1810 1930 2810 3410
2020-06-24 07:30 3.41 870 3780 (2017) 242 (1955) 1080 253 272 341 357 587 1810 1930 2810 3410
2020-06-24 06:30 3.43 880 3780 (2017) 242 (1955) 1080 253 272 341 357 587 1810 1930 2810 3410
2020-06-24 05:30 3.40 865 3780 (2017) 242 (1955) 1080 253 272 341 357 587 1810 1930 2810 3410
2020-06-24 04:30 3.42 875 3780 (2017) 242 (1955) 1080 253 272 341 357 587 1810 1930 2810 3410
2020-06-24 03:30 3.43 880 3780 (2017) 242 (1955) 1080 253 272 341 357 587 1810 1930 2810 3410
2020-06-24 02:30 3.40 865 3780 (2017) 242 (1955) 1080 253 272 341 357 587 1810 1930 2810 3410
2020-06-24 01:30 3.44 885 3780 (2017) 242 (1955) 1080 253 272 341 357 587 1810 1930 2810 3410
2020-06-24 00:30 3.42 875 3780 (2017) 242 (1955) 1080 253 272 341 357 587 1810 1930 2810 3410
2020-06-23 23:30 3.44 885 3810 (2017) 232 (1968) 1100 261 274 296 310 650 1770 1910 3170 3460
2020-06-23 22:30 3.44 885 3810 (2017) 232 (1968) 1100 261 274 296 310 650 1770 1910 3170 3460
2020-06-23 21:30 3.44 885 3810 (2017) 232 (1968) 1100 261 274 296 310 650 1770 1910 3170 3460
2020-06-23 20:30 3.43 880 3810 (2017) 232 (1968) 1100 261 274 296 310 650 1770 1910 3170 3460
2020-06-23 19:30 3.44 885 3810 (2017) 232 (1968) 1100 261 274 296 310 650 1770 1910 3170 3460
2020-06-23 18:30 3.43 880 3810 (2017) 232 (1968) 1100 261 274 296 310 650 1770 1910 3170 3460
2020-06-23 17:30 3.44 885 3810 (2017) 232 (1968) 1100 261 274 296 310 650 1770 1910 3170 3460
2020-06-23 16:30 3.44 885 3810 (2017) 232 (1968) 1100 261 274 296 310 650 1770 1910 3170 3460
2020-06-23 15:30 3.45 890 3810 (2017) 232 (1968) 1100 261 274 296 310 650 1770 1910 3170 3460
2020-06-23 14:30 3.45 890 3810 (2017) 232 (1968) 1100 261 274 296 310 650 1770 1910 3170 3460
2020-06-23 13:30 3.48 906 3810 (2017) 232 (1968) 1100 261 274 296 310 650 1770 1910 3170 3460
2020-06-23 12:30 3.50 916 3810 (2017) 232 (1968) 1100 261 274 296 310 650 1770 1910 3170 3460
2020-06-23 11:30 3.48 906 3810 (2017) 232 (1968) 1100 261 274 296 310 650 1770 1910 3170 3460
2020-06-23 10:30 3.49 911 3810 (2017) 232 (1968) 1100 261 274 296 310 650 1770 1910 3170 3460
2020-06-23 09:30 3.49 911 3810 (2017) 232 (1968) 1100 261 274 296 310 650 1770 1910 3170 3460
2020-06-23 08:30 3.49 911 3810 (2017) 232 (1968) 1100 261 274 296 310 650 1770 1910 3170 3460
2020-06-23 07:30 3.51 921 3810 (2017) 232 (1968) 1100 261 274 296 310 650 1770 1910 3170 3460
2020-06-23 06:30 3.50 916 3810 (2017) 232 (1968) 1100 261 274 296 310 650 1770 1910 3170 3460
2020-06-23 05:30 3.52 926 3810 (2017) 232 (1968) 1100 261 274 296 310 650 1770 1910 3170 3460
2020-06-23 04:30 3.51 921 3810 (2017) 232 (1968) 1100 261 274 296 310 650 1770 1910 3170 3460
2020-06-23 03:30 3.52 926 3810 (2017) 232 (1968) 1100 261 274 296 310 650 1770 1910 3170 3460
2020-06-23 02:30 3.50 916 3810 (2017) 232 (1968) 1100 261 274 296 310 650 1770 1910 3170 3460
2020-06-23 01:30 3.54 936 3810 (2017) 232 (1968) 1100 261 274 296 310 650 1770 1910 3170 3460
2020-06-23 00:30 3.52 926 3810 (2017) 232 (1968) 1100 261 274 296 310 650 1770 1910 3170 3460
2020-06-22 23:30 3.52 926 3830 (2017) 232 (1978) 1070 244 269 329 351 540 1740 1910 3300 3440
2020-06-22 22:30 3.54 936 3830 (2017) 232 (1978) 1070 244 269 329 351 540 1740 1910 3300 3440
2020-06-22 21:30 3.52 926 3830 (2017) 232 (1978) 1070 244 269 329 351 540 1740 1910 3300 3440
2020-06-22 20:30 3.52 926 3830 (2017) 232 (1978) 1070 244 269 329 351 540 1740 1910 3300 3440
2020-06-22 19:30 3.50 916 3830 (2017) 232 (1978) 1070 244 269 329 351 540 1740 1910 3300 3440
2020-06-22 18:30 3.52 926 3830 (2017) 232 (1978) 1070 244 269 329 351 540 1740 1910 3300 3440
2020-06-22 17:30 3.52 926 3830 (2017) 232 (1978) 1070 244 269 329 351 540 1740 1910 3300 3440
2020-06-22 16:30 3.53 931 3830 (2017) 232 (1978) 1070 244 269 329 351 540 1740 1910 3300 3440
2020-06-22 15:30 3.54 936 3830 (2017) 232 (1978) 1070 244 269 329 351 540 1740 1910 3300 3440
2020-06-22 14:30 3.55 941 3830 (2017) 232 (1978) 1070 244 269 329 351 540 1740 1910 3300 3440
2020-06-22 13:30 3.55 941 3830 (2017) 232 (1978) 1070 244 269 329 351 540 1740 1910 3300 3440
2020-06-22 12:30 3.52 926 3830 (2017) 232 (1978) 1070 244 269 329 351 540 1740 1910 3300 3440
2020-06-22 11:30 3.52 926 3830 (2017) 232 (1978) 1070 244 269 329 351 540 1740 1910 3300 3440
2020-06-22 10:30 3.52 926 3830 (2017) 232 (1978) 1070 244 269 329 351 540 1740 1910 3300 3440
2020-06-22 09:30 3.51 921 3830 (2017) 232 (1978) 1070 244 269 329 351 540 1740 1910 3300 3440
2020-06-22 08:30 3.51 921 3830 (2017) 232 (1978) 1070 244 269 329 351 540 1740 1910 3300 3440
2020-06-22 07:30 3.52 926 3830 (2017) 232 (1978) 1070 244 269 329 351 540 1740 1910 3300 3440
2020-06-22 06:30 3.50 916 3830 (2017) 232 (1978) 1070 244 269 329 351 540 1740 1910 3300 3440
2020-06-22 05:30 3.51 921 3830 (2017) 232 (1978) 1070 244 269 329 351 540 1740 1910 3300 3440
2020-06-22 04:30 3.53 931 3830 (2017) 232 (1978) 1070 244 269 329 351 540 1740 1910 3300 3440
2020-06-22 03:30 3.50 916 3830 (2017) 232 (1978) 1070 244 269 329 351 540 1740 1910 3300 3440
2020-06-22 02:30 3.52 926 3830 (2017) 232 (1978) 1070 244 269 329 351 540 1740 1910 3300 3440
2020-06-22 01:30 3.51 921 3830 (2017) 232 (1978) 1070 244 269 329 351 540 1740 1910 3300 3440
2020-06-22 00:30 3.52 926 3830 (2017) 232 (1978) 1070 244 269 329 351 540 1740 1910 3300 3440
2020-06-21 23:30 3.52 926 3780 (2017) 231 (1978) 1070 239 264 302 344 539 1770 1950 3170 3470
2020-06-21 22:30 3.51 921 3780 (2017) 231 (1978) 1070 239 264 302 344 539 1770 1950 3170 3470
2020-06-21 21:30 3.51 921 3780 (2017) 231 (1978) 1070 239 264 302 344 539 1770 1950 3170 3470
2020-06-21 20:30 3.52 926 3780 (2017) 231 (1978) 1070 239 264 302 344 539 1770 1950 3170 3470
2020-06-21 19:30 3.52 926 3780 (2017) 231 (1978) 1070 239 264 302 344 539 1770 1950 3170 3470
2020-06-21 18:30 3.53 931 3780 (2017) 231 (1978) 1070 239 264 302 344 539 1770 1950 3170 3470
2020-06-21 17:30 3.53 931 3780 (2017) 231 (1978) 1070 239 264 302 344 539 1770 1950 3170 3470
2020-06-21 16:30 3.54 936 3780 (2017) 231 (1978) 1070 239 264 302 344 539 1770 1950 3170 3470
2020-06-21 15:30 3.55 941 3780 (2017) 231 (1978) 1070 239 264 302 344 539 1770 1950 3170 3470
2020-06-21 14:30 3.55 941 3780 (2017) 231 (1978) 1070 239 264 302 344 539 1770 1950 3170 3470
2020-06-21 13:30 3.54 936 3780 (2017) 231 (1978) 1070 239 264 302 344 539 1770 1950 3170 3470
2020-06-21 12:30 3.54 936 3780 (2017) 231 (1978) 1070 239 264 302 344 539 1770 1950 3170 3470
2020-06-21 11:30 3.54 936 3780 (2017) 231 (1978) 1070 239 264 302 344 539 1770 1950 3170 3470
2020-06-21 10:30 3.55 941 3780 (2017) 231 (1978) 1070 239 264 302 344 539 1770 1950 3170 3470
2020-06-21 09:30 3.55 941 3780 (2017) 231 (1978) 1070 239 264 302 344 539 1770 1950 3170 3470
2020-06-21 08:30 3.55 941 3780 (2017) 231 (1978) 1070 239 264 302 344 539 1770 1950 3170 3470
2020-06-21 07:30 3.58 957 3780 (2017) 231 (1978) 1070 239 264 302 344 539 1770 1950 3170 3470
2020-06-21 06:30 3.55 941 3780 (2017) 231 (1978) 1070 239 264 302 344 539 1770 1950 3170 3470
2020-06-21 05:30 3.55 941 3780 (2017) 231 (1978) 1070 239 264 302 344 539 1770 1950 3170 3470
2020-06-21 04:30 3.56 947 3780 (2017) 231 (1978) 1070 239 264 302 344 539 1770 1950 3170 3470
2020-06-21 03:30 3.55 941 3780 (2017) 231 (1978) 1070 239 264 302 344 539 1770 1950 3170 3470
2020-06-21 02:30 3.56 947 3780 (2017) 231 (1978) 1070 239 264 302 344 539 1770 1950 3170 3470
2020-06-21 01:30 3.54 936 3780 (2017) 231 (1978) 1070 239 264 302 344 539 1770 1950 3170 3470
2020-06-21 00:30 3.54 936 3780 (2017) 231 (1978) 1070 239 264 302 344 539 1770 1950 3170 3470
2020-06-20 23:30 3.54 936 3760 (2017) 214 (1980) 1120 239 281 314 348 546 1790 2120 3140 3490
2020-06-20 22:30 3.55 941 3760 (2017) 214 (1980) 1120 239 281 314 348 546 1790 2120 3140 3490
2020-06-20 21:30 3.55 941 3760 (2017) 214 (1980) 1120 239 281 314 348 546 1790 2120 3140 3490
2020-06-20 20:30 3.54 936 3760 (2017) 214 (1980) 1120 239 281 314 348 546 1790 2120 3140 3490
2020-06-20 19:30 3.53 931 3760 (2017) 214 (1980) 1120 239 281 314 348 546 1790 2120 3140 3490
2020-06-20 18:30 3.53 931 3760 (2017) 214 (1980) 1120 239 281 314 348 546 1790 2120 3140 3490
2020-06-20 17:30 3.52 926 3760 (2017) 214 (1980) 1120 239 281 314 348 546 1790 2120 3140 3490
2020-06-20 16:30 3.53 931 3760 (2017) 214 (1980) 1120 239 281 314 348 546 1790 2120 3140 3490
2020-06-20 15:30 3.54 936 3760 (2017) 214 (1980) 1120 239 281 314 348 546 1790 2120 3140 3490
2020-06-20 14:30 3.54 936 3760 (2017) 214 (1980) 1120 239 281 314 348 546 1790 2120 3140 3490
2020-06-20 13:30 3.54 936 3760 (2017) 214 (1980) 1120 239 281 314 348 546 1790 2120 3140 3490
2020-06-20 12:30 3.54 936 3760 (2017) 214 (1980) 1120 239 281 314 348 546 1790 2120 3140 3490
2020-06-20 11:30 3.53 931 3760 (2017) 214 (1980) 1120 239 281 314 348 546 1790 2120 3140 3490
2020-06-20 10:30 3.55 941 3760 (2017) 214 (1980) 1120 239 281 314 348 546 1790 2120 3140 3490
2020-06-20 09:30 3.57 952 3760 (2017) 214 (1980) 1120 239 281 314 348 546 1790 2120 3140 3490
2020-06-20 08:30 3.55 941 3760 (2017) 214 (1980) 1120 239 281 314 348 546 1790 2120 3140 3490
2020-06-20 07:30 3.56 947 3760 (2017) 214 (1980) 1120 239 281 314 348 546 1790 2120 3140 3490
2020-06-20 06:30 3.56 947 3760 (2017) 214 (1980) 1120 239 281 314 348 546 1790 2120 3140 3490
2020-06-20 05:30 3.56 947 3760 (2017) 214 (1980) 1120 239 281 314 348 546 1790 2120 3140 3490
2020-06-20 04:30 3.54 936 3760 (2017) 214 (1980) 1120 239 281 314 348 546 1790 2120 3140 3490
2020-06-20 03:30 3.54 936 3760 (2017) 214 (1980) 1120 239 281 314 348 546 1790 2120 3140 3490
2020-06-20 02:30 3.56 947 3760 (2017) 214 (1980) 1120 239 281 314 348 546 1790 2120 3140 3490
2020-06-20 01:30 3.56 947 3760 (2017) 214 (1980) 1120 239 281 314 348 546 1790 2120 3140 3490
2020-06-20 00:30 3.56 947 3760 (2017) 214 (1980) 1120 239 281 314 348 546 1790 2120 3140 3490
2020-06-19 23:30 3.56 947 3690 (2017) 228 (1977) 1140 262 280 320 371 640 1760 1940 3130 3470
2020-06-19 22:30 3.56 947 3690 (2017) 228 (1977) 1140 262 280 320 371 640 1760 1940 3130 3470
2020-06-19 21:30 3.56 947 3690 (2017) 228 (1977) 1140 262 280 320 371 640 1760 1940 3130 3470
2020-06-19 20:30 3.57 952 3690 (2017) 228 (1977) 1140 262 280 320 371 640 1760 1940 3130 3470
2020-06-19 19:30 3.58 957 3690 (2017) 228 (1977) 1140 262 280 320 371 640 1760 1940 3130 3470
2020-06-19 18:30 3.57 952 3690 (2017) 228 (1977) 1140 262 280 320 371 640 1760 1940 3130 3470
2020-06-19 17:30 3.57 952 3690 (2017) 228 (1977) 1140 262 280 320 371 640 1760 1940 3130 3470
2020-06-19 16:30 3.59 962 3690 (2017) 228 (1977) 1140 262 280 320 371 640 1760 1940 3130 3470
2020-06-19 15:30 3.61 973 3690 (2017) 228 (1977) 1140 262 280 320 371 640 1760 1940 3130 3470
2020-06-19 14:30 3.60 967 3690 (2017) 228 (1977) 1140 262 280 320 371 640 1760 1940 3130 3470
2020-06-19 13:30 3.63 983 3690 (2017) 228 (1977) 1140 262 280 320 371 640 1760 1940 3130 3470
2020-06-19 12:30 3.67 1000 3690 (2017) 228 (1977) 1140 262 280 320 371 640 1760 1940 3130 3470
2020-06-19 11:30 3.68 1010 3690 (2017) 228 (1977) 1140 262 280 320 371 640 1760 1940 3130 3470
2020-06-19 10:30 3.70 1020 3690 (2017) 228 (1977) 1140 262 280 320 371 640 1760 1940 3130 3470
2020-06-19 09:30 3.68 1010 3690 (2017) 228 (1977) 1140 262 280 320 371 640 1760 1940 3130 3470
2020-06-19 08:30 3.69 1010 3690 (2017) 228 (1977) 1140 262 280 320 371 640 1760 1940 3130 3470
2020-06-19 07:30 3.69 1010 3690 (2017) 228 (1977) 1140 262 280 320 371 640 1760 1940 3130 3470
2020-06-19 06:30 3.69 1010 3690 (2017) 228 (1977) 1140 262 280 320 371 640 1760 1940 3130 3470
2020-06-19 05:30 3.70 1020 3690 (2017) 228 (1977) 1140 262 280 320 371 640 1760 1940 3130 3470
2020-06-19 04:30 3.71 1030 3690 (2017) 228 (1977) 1140 262 280 320 371 640 1760 1940 3130 3470
2020-06-19 03:30 3.71 1030 3690 (2017) 228 (1977) 1140 262 280 320 371 640 1760 1940 3130 3470
2020-06-19 02:30 3.70 1020 3690 (2017) 228 (1977) 1140 262 280 320 371 640 1760 1940 3130 3470
2020-06-19 01:30 3.71 1030 3690 (2017) 228 (1977) 1140 262 280 320 371 640 1760 1940 3130 3470
2020-06-19 00:30 3.70 1020 3690 (2017) 228 (1977) 1140 262 280 320 371 640 1760 1940 3130 3470
2020-06-18 23:30 3.70 1020 3660 (2017) 251 (1977) 1190 266 289 336 386 714 1850 2040 2950 3480
2020-06-18 22:30 3.72 1030 3660 (2017) 251 (1977) 1190 266 289 336 386 714 1850 2040 2950 3480
2020-06-18 21:30 3.71 1030 3660 (2017) 251 (1977) 1190 266 289 336 386 714 1850 2040 2950 3480
2020-06-18 20:30 3.71 1030 3660 (2017) 251 (1977) 1190 266 289 336 386 714 1850 2040 2950 3480
2020-06-18 19:30 3.73 1040 3660 (2017) 251 (1977) 1190 266 289 336 386 714 1850 2040 2950 3480
2020-06-18 18:30 3.72 1030 3660 (2017) 251 (1977) 1190 266 289 336 386 714 1850 2040 2950 3480
2020-06-18 17:30 3.72 1030 3660 (2017) 251 (1977) 1190 266 289 336 386 714 1850 2040 2950 3480
2020-06-18 16:30 3.71 1030 3660 (2017) 251 (1977) 1190 266 289 336 386 714 1850 2040 2950 3480
2020-06-18 15:30 3.73 1040 3660 (2017) 251 (1977) 1190 266 289 336 386 714 1850 2040 2950 3480
2020-06-18 14:30 3.73 1040 3660 (2017) 251 (1977) 1190 266 289 336 386 714 1850 2040 2950 3480
2020-06-18 13:30 3.73 1040 3660 (2017) 251 (1977) 1190 266 289 336 386 714 1850 2040 2950 3480
2020-06-18 12:30 3.73 1040 3660 (2017) 251 (1977) 1190 266 289 336 386 714 1850 2040 2950 3480
2020-06-18 11:30 3.73 1040 3660 (2017) 251 (1977) 1190 266 289 336 386 714 1850 2040 2950 3480
2020-06-18 10:30 3.72 1030 3660 (2017) 251 (1977) 1190 266 289 336 386 714 1850 2040 2950 3480
2020-06-18 09:30 3.71 1030 3660 (2017) 251 (1977) 1190 266 289 336 386 714 1850 2040 2950 3480
2020-06-18 08:30 3.74 1040 3660 (2017) 251 (1977) 1190 266 289 336 386 714 1850 2040 2950 3480
2020-06-18 07:30 3.72 1030 3660 (2017) 251 (1977) 1190 266 289 336 386 714 1850 2040 2950 3480
2020-06-18 06:30 3.75 1050 3660 (2017) 251 (1977) 1190 266 289 336 386 714 1850 2040 2950 3480
2020-06-18 05:30 3.74 1040 3660 (2017) 251 (1977) 1190 266 289 336 386 714 1850 2040 2950 3480
2020-06-18 04:30 3.74 1040 3660 (2017) 251 (1977) 1190 266 289 336 386 714 1850 2040 2950 3480
2020-06-18 03:30 3.73 1040 3660 (2017) 251 (1977) 1190 266 289 336 386 714 1850 2040 2950 3480
2020-06-18 02:30 3.74 1040 3660 (2017) 251 (1977) 1190 266 289 336 386 714 1850 2040 2950 3480
2020-06-18 01:30 3.72 1030 3660 (2017) 251 (1977) 1190 266 289 336 386 714 1850 2040 2950 3480
2020-06-18 00:30 3.72 1030 3660 (2017) 251 (1977) 1190 266 289 336 386 714 1850 2040 2950 3480
2020-06-17 23:30 3.72 1030 3630 (2017) 238 (1977) 1200 261 294 358 385 656 2020 2130 2580 3480
2020-06-17 22:30 3.74 1040 3630 (2017) 238 (1977) 1200 261 294 358 385 656 2020 2130 2580 3480
2020-06-17 21:30 3.73 1040 3630 (2017) 238 (1977) 1200 261 294 358 385 656 2020 2130 2580 3480
2020-06-17 20:30 3.73 1040 3630 (2017) 238 (1977) 1200 261 294 358 385 656 2020 2130 2580 3480
2020-06-17 19:30 3.73 1040 3630 (2017) 238 (1977) 1200 261 294 358 385 656 2020 2130 2580 3480
2020-06-17 18:30 3.74 1040 3630 (2017) 238 (1977) 1200 261 294 358 385 656 2020 2130 2580 3480
2020-06-17 17:30 3.74 1040 3630 (2017) 238 (1977) 1200 261 294 358 385 656 2020 2130 2580 3480
2020-06-17 16:30 3.74 1040 3630 (2017) 238 (1977) 1200 261 294 358 385 656 2020 2130 2580 3480
2020-06-17 15:30 3.77 1060 3630 (2017) 238 (1977) 1200 261 294 358 385 656 2020 2130 2580 3480
2020-06-17 14:30 3.77 1060 3630 (2017) 238 (1977) 1200 261 294 358 385 656 2020 2130 2580 3480
2020-06-17 13:30 3.75 1050 3630 (2017) 238 (1977) 1200 261 294 358 385 656 2020 2130 2580 3480
2020-06-17 12:30 3.75 1050 3630 (2017) 238 (1977) 1200 261 294 358 385 656 2020 2130 2580 3480
2020-06-17 11:30 3.74 1040 3630 (2017) 238 (1977) 1200 261 294 358 385 656 2020 2130 2580 3480
2020-06-17 10:30 3.75 1050 3630 (2017) 238 (1977) 1200 261 294 358 385 656 2020 2130 2580 3480
2020-06-17 09:30 3.74 1040 3630 (2017) 238 (1977) 1200 261 294 358 385 656 2020 2130 2580 3480
2020-06-17 08:30 3.76 1050 3630 (2017) 238 (1977) 1200 261 294 358 385 656 2020 2130 2580 3480
2020-06-17 07:30 3.75 1050 3630 (2017) 238 (1977) 1200 261 294 358 385 656 2020 2130 2580 3480
2020-06-17 06:30 3.77 1060 3630 (2017) 238 (1977) 1200 261 294 358 385 656 2020 2130 2580 3480
2020-06-17 05:30 3.77 1060 3630 (2017) 238 (1977) 1200 261 294 358 385 656 2020 2130 2580 3480
2020-06-17 04:30 3.76 1050 3630 (2017) 238 (1977) 1200 261 294 358 385 656 2020 2130 2580 3480
2020-06-17 03:30 3.75 1050 3630 (2017) 238 (1977) 1200 261 294 358 385 656 2020 2130 2580 3480
2020-06-17 02:30 3.76 1050 3630 (2017) 238 (1977) 1200 261 294 358 385 656 2020 2130 2580 3480
2020-06-17 01:30 3.76 1050 3630 (2017) 238 (1977) 1200 261 294 358 385 656 2020 2130 2580 3480
2020-06-17 00:30 3.78 1060 3630 (2017) 238 (1977) 1200 261 294 358 385 656 2020 2130 2580 3480
2020-06-16 23:30 3.77 1060 3550 (2011) 225 (1977) 1170 263 307 370 397 738 1830 2090 2540 3360
2020-06-16 22:30 3.77 1060 3550 (2011) 225 (1977) 1170 263 307 370 397 738 1830 2090 2540 3360
2020-06-16 21:30 3.77 1060 3550 (2011) 225 (1977) 1170 263 307 370 397 738 1830 2090 2540 3360
2020-06-16 20:30 3.79 1070 3550 (2011) 225 (1977) 1170 263 307 370 397 738 1830 2090 2540 3360
2020-06-16 19:30 3.80 1070 3550 (2011) 225 (1977) 1170 263 307 370 397 738 1830 2090 2540 3360
2020-06-16 18:30 3.78 1060 3550 (2011) 225 (1977) 1170 263 307 370 397 738 1830 2090 2540 3360
2020-06-16 17:30 3.81 1080 3550 (2011) 225 (1977) 1170 263 307 370 397 738 1830 2090 2540 3360
2020-06-16 16:30 3.81 1080 3550 (2011) 225 (1977) 1170 263 307 370 397 738 1830 2090 2540 3360
2020-06-16 15:30 3.83 1090 3550 (2011) 225 (1977) 1170 263 307 370 397 738 1830 2090 2540 3360
2020-06-16 14:30 3.83 1090 3550 (2011) 225 (1977) 1170 263 307 370 397 738 1830 2090 2540 3360
2020-06-16 13:30 3.84 1100 3550 (2011) 225 (1977) 1170 263 307 370 397 738 1830 2090 2540 3360
2020-06-16 12:30 3.86 1110 3550 (2011) 225 (1977) 1170 263 307 370 397 738 1830 2090 2540 3360
2020-06-16 11:30 3.91 1130 3550 (2011) 225 (1977) 1170 263 307 370 397 738 1830 2090 2540 3360
2020-06-16 10:30 3.88 1120 3550 (2011) 225 (1977) 1170 263 307 370 397 738 1830 2090 2540 3360
2020-06-16 09:30 3.91 1130 3550 (2011) 225 (1977) 1170 263 307 370 397 738 1830 2090 2540 3360
2020-06-16 08:30 3.92 1140 3550 (2011) 225 (1977) 1170 263 307 370 397 738 1830 2090 2540 3360
2020-06-16 07:30 3.91 1130 3550 (2011) 225 (1977) 1170 263 307 370 397 738 1830 2090 2540 3360
2020-06-16 06:30 3.91 1130 3550 (2011) 225 (1977) 1170 263 307 370 397 738 1830 2090 2540 3360
2020-06-16 05:30 3.93 1150 3550 (2011) 225 (1977) 1170 263 307 370 397 738 1830 2090 2540 3360
2020-06-16 04:30 3.92 1140 3550 (2011) 225 (1977) 1170 263 307 370 397 738 1830 2090 2540 3360
2020-06-16 03:30 3.93 1150 3550 (2011) 225 (1977) 1170 263 307 370 397 738 1830 2090 2540 3360
2020-06-16 02:30 3.94 1150 3550 (2011) 225 (1977) 1170 263 307 370 397 738 1830 2090 2540 3360
2020-06-16 01:30 3.93 1150 3550 (2011) 225 (1977) 1170 263 307 370 397 738 1830 2090 2540 3360
2020-06-16 00:30 3.93 1150 3550 (2011) 225 (1977) 1170 263 307 370 397 738 1830 2090 2540 3360
2020-06-15 23:30 3.93 1150 3580 (2011) 224 (1977) 1230 255 295 336 420 776 1900 2060 3080 3460
2020-06-15 22:30 3.93 1150 3580 (2011) 224 (1977) 1230 255 295 336 420 776 1900 2060 3080 3460
2020-06-15 21:30 3.96 1160 3580 (2011) 224 (1977) 1230 255 295 336 420 776 1900 2060 3080 3460
2020-06-15 20:30 3.95 1160 3580 (2011) 224 (1977) 1230 255 295 336 420 776 1900 2060 3080 3460
2020-06-15 19:30 3.96 1160 3580 (2011) 224 (1977) 1230 255 295 336 420 776 1900 2060 3080 3460
2020-06-15 18:30 3.97 1170 3580 (2011) 224 (1977) 1230 255 295 336 420 776 1900 2060 3080 3460
2020-06-15 17:30 3.99 1180 3580 (2011) 224 (1977) 1230 255 295 336 420 776 1900 2060 3080 3460
2020-06-15 16:30 3.99 1180 3580 (2011) 224 (1977) 1230 255 295 336 420 776 1900 2060 3080 3460
2020-06-15 15:30 4.02 1200 3580 (2011) 224 (1977) 1230 255 295 336 420 776 1900 2060 3080 3460
2020-06-15 14:30 4.03 1200 3580 (2011) 224 (1977) 1230 255 295 336 420 776 1900 2060 3080 3460
2020-06-15 13:30 4.08 1230 3580 (2011) 224 (1977) 1230 255 295 336 420 776 1900 2060 3080 3460
2020-06-15 12:30 4.12 1250 3580 (2011) 224 (1977) 1230 255 295 336 420 776 1900 2060 3080 3460
2020-06-15 11:30 4.16 1280 3580 (2011) 224 (1977) 1230 255 295 336 420 776 1900 2060 3080 3460
2020-06-15 10:30 4.20 1300 3580 (2011) 224 (1977) 1230 255 295 336 420 776 1900 2060 3080 3460
2020-06-15 09:30 4.21 1310 3580 (2011) 224 (1977) 1230 255 295 336 420 776 1900 2060 3080 3460
2020-06-15 08:30 4.22 1310 3580 (2011) 224 (1977) 1230 255 295 336 420 776 1900 2060 3080 3460
2020-06-15 07:30 4.22 1310 3580 (2011) 224 (1977) 1230 255 295 336 420 776 1900 2060 3080 3460
2020-06-15 06:30 4.22 1310 3580 (2011) 224 (1977) 1230 255 295 336 420 776 1900 2060 3080 3460
2020-06-15 05:30 4.22 1310 3580 (2011) 224 (1977) 1230 255 295 336 420 776 1900 2060 3080 3460
2020-06-15 04:30 4.21 1310 3580 (2011) 224 (1977) 1230 255 295 336 420 776 1900 2060 3080 3460
2020-06-15 03:30 4.23 1320 3580 (2011) 224 (1977) 1230 255 295 336 420 776 1900 2060 3080 3460
2020-06-15 02:30 4.22 1310 3580 (2011) 224 (1977) 1230 255 295 336 420 776 1900 2060 3080 3460
2020-06-15 01:30 4.24 1320 3580 (2011) 224 (1977) 1230 255 295 336 420 776 1900 2060 3080 3460
2020-06-15 00:30 4.23 1320 3580 (2011) 224 (1977) 1230 255 295 336 420 776 1900 2060 3080 3460
2020-06-14 23:30 4.23 1320 3640 (2016) 221 (1977) 1240 262 296 326 363 805 1950 2200 3220 3490
2020-06-14 22:30 4.23 1320 3640 (2016) 221 (1977) 1240 262 296 326 363 805 1950 2200 3220 3490
2020-06-14 21:30 4.23 1320 3640 (2016) 221 (1977) 1240 262 296 326 363 805 1950 2200 3220 3490
2020-06-14 20:30 4.22 1310 3640 (2016) 221 (1977) 1240 262 296 326 363 805 1950 2200 3220 3490
2020-06-14 19:30 4.25 1330 3640 (2016) 221 (1977) 1240 262 296 326 363 805 1950 2200 3220 3490
2020-06-14 18:30 4.24 1320 3640 (2016) 221 (1977) 1240 262 296 326 363 805 1950 2200 3220 3490
2020-06-14 17:30 4.24 1320 3640 (2016) 221 (1977) 1240 262 296 326 363 805 1950 2200 3220 3490
2020-06-14 16:30 4.25 1330 3640 (2016) 221 (1977) 1240 262 296 326 363 805 1950 2200 3220 3490
2020-06-14 15:30 4.24 1320 3640 (2016) 221 (1977) 1240 262 296 326 363 805 1950 2200 3220 3490
2020-06-14 14:30 4.24 1320 3640 (2016) 221 (1977) 1240 262 296 326 363 805 1950 2200 3220 3490
2020-06-14 13:30 4.26 1340 3640 (2016) 221 (1977) 1240 262 296 326 363 805 1950 2200 3220 3490
2020-06-14 12:30 4.24 1320 3640 (2016) 221 (1977) 1240 262 296 326 363 805 1950 2200 3220 3490
2020-06-14 11:30 4.26 1340 3640 (2016) 221 (1977) 1240 262 296 326 363 805 1950 2200 3220 3490
2020-06-14 10:30 4.27 1340 3640 (2016) 221 (1977) 1240 262 296 326 363 805 1950 2200 3220 3490
2020-06-14 09:30 4.26 1340 3640 (2016) 221 (1977) 1240 262 296 326 363 805 1950 2200 3220 3490
2020-06-14 08:30 4.27 1340 3640 (2016) 221 (1977) 1240 262 296 326 363 805 1950 2200 3220 3490
2020-06-14 07:30 4.26 1340 3640 (2016) 221 (1977) 1240 262 296 326 363 805 1950 2200 3220 3490
2020-06-14 06:30 4.27 1340 3640 (2016) 221 (1977) 1240 262 296 326 363 805 1950 2200 3220 3490
2020-06-14 05:30 4.26 1340 3640 (2016) 221 (1977) 1240 262 296 326 363 805 1950 2200 3220 3490
2020-06-14 04:30 4.26 1340 3640 (2016) 221 (1977) 1240 262 296 326 363 805 1950 2200 3220 3490
2020-06-14 03:30 4.27 1340 3640 (2016) 221 (1977) 1240 262 296 326 363 805 1950 2200 3220 3490
2020-06-14 02:30 4.27 1340 3640 (2016) 221 (1977) 1240 262 296 326 363 805 1950 2200 3220 3490
2020-06-14 01:30 4.29 1350 3640 (2016) 221 (1977) 1240 262 296 326 363 805 1950 2200 3220 3490
2020-06-14 00:30 4.29 1350 3640 (2016) 221 (1977) 1240 262 296 326 363 805 1950 2200 3220 3490
2020-06-13 23:30 4.31 1370 3640 (2016) 221 (1977) 1270 282 300 353 449 685 1990 2460 3220 3490
2020-06-13 22:30 4.31 1370 3640 (2016) 221 (1977) 1270 282 300 353 449 685 1990 2460 3220 3490
2020-06-13 21:30 4.33 1380 3640 (2016) 221 (1977) 1270 282 300 353 449 685 1990 2460 3220 3490
2020-06-13 20:30 4.34 1380 3640 (2016) 221 (1977) 1270 282 300 353 449 685 1990 2460 3220 3490
2020-06-13 19:30 4.35 1390 3640 (2016) 221 (1977) 1270 282 300 353 449 685 1990 2460 3220 3490
2020-06-13 18:30 4.37 1400 3640 (2016) 221 (1977) 1270 282 300 353 449 685 1990 2460 3220 3490
2020-06-13 17:30 4.42 1430 3640 (2016) 221 (1977) 1270 282 300 353 449 685 1990 2460 3220 3490
2020-06-13 16:30 4.46 1460 3640 (2016) 221 (1977) 1270 282 300 353 449 685 1990 2460 3220 3490
2020-06-13 15:30 4.53 1500 3640 (2016) 221 (1977) 1270 282 300 353 449 685 1990 2460 3220 3490
2020-06-13 14:30 4.61 1550 3640 (2016) 221 (1977) 1270 282 300 353 449 685 1990 2460 3220 3490
2020-06-13 13:30 4.69 1600 3640 (2016) 221 (1977) 1270 282 300 353 449 685 1990 2460 3220 3490
2020-06-13 12:30 4.72 1620 3640 (2016) 221 (1977) 1270 282 300 353 449 685 1990 2460 3220 3490
2020-06-13 11:30 4.74 1630 3640 (2016) 221 (1977) 1270 282 300 353 449 685 1990 2460 3220 3490
2020-06-13 10:30 4.74 1630 3640 (2016) 221 (1977) 1270 282 300 353 449 685 1990 2460 3220 3490
2020-06-13 09:30 4.72 1620 3640 (2016) 221 (1977) 1270 282 300 353 449 685 1990 2460 3220 3490
2020-06-13 08:30 4.74 1630 3640 (2016) 221 (1977) 1270 282 300 353 449 685 1990 2460 3220 3490
2020-06-13 07:30 4.74 1630 3640 (2016) 221 (1977) 1270 282 300 353 449 685 1990 2460 3220 3490
2020-06-13 06:30 4.73 1630 3640 (2016) 221 (1977) 1270 282 300 353 449 685 1990 2460 3220 3490
2020-06-13 05:30 4.74 1630 3640 (2016) 221 (1977) 1270 282 300 353 449 685 1990 2460 3220 3490
2020-06-13 04:30 4.75 1640 3640 (2016) 221 (1977) 1270 282 300 353 449 685 1990 2460 3220 3490
2020-06-13 03:30 4.75 1640 3640 (2016) 221 (1977) 1270 282 300 353 449 685 1990 2460 3220 3490
2020-06-13 02:30 4.75 1640 3640 (2016) 221 (1977) 1270 282 300 353 449 685 1990 2460 3220 3490
2020-06-13 01:30 4.76 1650 3640 (2016) 221 (1977) 1270 282 300 353 449 685 1990 2460 3220 3490
2020-06-13 00:30 4.75 1640 3640 (2016) 221 (1977) 1270 282 300 353 449 685 1990 2460 3220 3490
2020-06-12 23:30 4.76 1650 3670 (2016) 222 (1977) 1310 269 321 383 458 650 2160 2400 3280 3570
2020-06-12 22:30 4.78 1660 3670 (2016) 222 (1977) 1310 269 321 383 458 650 2160 2400 3280 3570
2020-06-12 21:30 4.76 1650 3670 (2016) 222 (1977) 1310 269 321 383 458 650 2160 2400 3280 3570
2020-06-12 20:30 4.78 1660 3670 (2016) 222 (1977) 1310 269 321 383 458 650 2160 2400 3280 3570
2020-06-12 19:30 4.78 1660 3670 (2016) 222 (1977) 1310 269 321 383 458 650 2160 2400 3280 3570
2020-06-12 18:30 4.79 1660 3670 (2016) 222 (1977) 1310 269 321 383 458 650 2160 2400 3280 3570
2020-06-12 17:30 4.80 1670 3670 (2016) 222 (1977) 1310 269 321 383 458 650 2160 2400 3280 3570
2020-06-12 16:30 4.82 1680 3670 (2016) 222 (1977) 1310 269 321 383 458 650 2160 2400 3280 3570
2020-06-12 15:30 4.87 1720 3670 (2016) 222 (1977) 1310 269 321 383 458 650 2160 2400 3280 3570
2020-06-12 14:30 4.91 1740 3670 (2016) 222 (1977) 1310 269 321 383 458 650 2160 2400 3280 3570
2020-06-12 13:30 4.94 1760 3670 (2016) 222 (1977) 1310 269 321 383 458 650 2160 2400 3280 3570
2020-06-12 12:30 5.01 1810 3670 (2016) 222 (1977) 1310 269 321 383 458 650 2160 2400 3280 3570
2020-06-12 11:30 5.06 1840 3670 (2016) 222 (1977) 1310 269 321 383 458 650 2160 2400 3280 3570
2020-06-12 10:30 5.09 1860 3670 (2016) 222 (1977) 1310 269 321 383 458 650 2160 2400 3280 3570
2020-06-12 09:30 5.12 1880 3670 (2016) 222 (1977) 1310 269 321 383 458 650 2160 2400 3280 3570
2020-06-12 08:30 5.10 1870 3670 (2016) 222 (1977) 1310 269 321 383 458 650 2160 2400 3280 3570
2020-06-12 07:30 5.11 1880 3670 (2016) 222 (1977) 1310 269 321 383 458 650 2160 2400 3280 3570
2020-06-12 06:30 5.12 1880 3670 (2016) 222 (1977) 1310 269 321 383 458 650 2160 2400 3280 3570
2020-06-12 05:30 5.11 1880 3670 (2016) 222 (1977) 1310 269 321 383 458 650 2160 2400 3280 3570
2020-06-12 04:30 5.11 1880 3670 (2016) 222 (1977) 1310 269 321 383 458 650 2160 2400 3280 3570
2020-06-12 03:30 5.11 1880 3670 (2016) 222 (1977) 1310 269 321 383 458 650 2160 2400 3280 3570
2020-06-12 02:30 5.11 1880 3670 (2016) 222 (1977) 1310 269 321 383 458 650 2160 2400 3280 3570
2020-06-12 01:30 5.11 1880 3670 (2016) 222 (1977) 1310 269 321 383 458 650 2160 2400 3280 3570
2020-06-12 00:30 5.13 1890 3670 (2016) 222 (1977) 1310 269 321 383 458 650 2160 2400 3280 3570
2020-06-11 23:30 5.13 1890 3740 (2016) 220 (1977) 1310 272 308 418 473 763 2120 2410 3210 3600
2020-06-11 22:30 5.13 1890 3740 (2016) 220 (1977) 1310 272 308 418 473 763 2120 2410 3210 3600
2020-06-11 21:30 5.13 1890 3740 (2016) 220 (1977) 1310 272 308 418 473 763 2120 2410 3210 3600
2020-06-11 20:30 5.13 1890 3740 (2016) 220 (1977) 1310 272 308 418 473 763 2120 2410 3210 3600
2020-06-11 19:30 5.12 1880 3740 (2016) 220 (1977) 1310 272 308 418 473 763 2120 2410 3210 3600
2020-06-11 18:30 5.15 1900 3740 (2016) 220 (1977) 1310 272 308 418 473 763 2120 2410 3210 3600
2020-06-11 17:30 5.17 1920 3740 (2016) 220 (1977) 1310 272 308 418 473 763 2120 2410 3210 3600
2020-06-11 16:30 5.21 1940 3740 (2016) 220 (1977) 1310 272 308 418 473 763 2120 2410 3210 3600
2020-06-11 15:30 5.21 1940 3740 (2016) 220 (1977) 1310 272 308 418 473 763 2120 2410 3210 3600
2020-06-11 14:30 5.26 1980 3740 (2016) 220 (1977) 1310 272 308 418 473 763 2120 2410 3210 3600
2020-06-11 13:30 5.31 2010 3740 (2016) 220 (1977) 1310 272 308 418 473 763 2120 2410 3210 3600
2020-06-11 12:30 5.38 2060 3740 (2016) 220 (1977) 1310 272 308 418 473 763 2120 2410 3210 3600
2020-06-11 11:30 5.42 2090 3740 (2016) 220 (1977) 1310 272 308 418 473 763 2120 2410 3210 3600
2020-06-11 10:30 5.48 2130 3740 (2016) 220 (1977) 1310 272 308 418 473 763 2120 2410 3210 3600
2020-06-11 09:30 5.46 2120 3740 (2016) 220 (1977) 1310 272 308 418 473 763 2120 2410 3210 3600
2020-06-11 08:30 5.48 2130 3740 (2016) 220 (1977) 1310 272 308 418 473 763 2120 2410 3210 3600
2020-06-11 07:30 5.47 2130 3740 (2016) 220 (1977) 1310 272 308 418 473 763 2120 2410 3210 3600
2020-06-11 06:30 5.47 2130 3740 (2016) 220 (1977) 1310 272 308 418 473 763 2120 2410 3210 3600
2020-06-11 05:30 5.47 2130 3740 (2016) 220 (1977) 1310 272 308 418 473 763 2120 2410 3210 3600
2020-06-11 04:30 5.48 2130 3740 (2016) 220 (1977) 1310 272 308 418 473 763 2120 2410 3210 3600
2020-06-11 03:30 5.47 2130 3740 (2016) 220 (1977) 1310 272 308 418 473 763 2120 2410 3210 3600
2020-06-11 02:30 5.46 2120 3740 (2016) 220 (1977) 1310 272 308 418 473 763 2120 2410 3210 3600
2020-06-11 01:30 5.47 2130 3740 (2016) 220 (1977) 1310 272 308 418 473 763 2120 2410 3210 3600
2020-06-11 00:30 5.43 2100 3740 (2016) 220 (1977) 1310 272 308 418 473 763 2120 2410 3210 3600
2020-06-10 23:30 5.44 2100 3740 (2016) 222 (1977) 1310 276 311 367 429 772 1980 2410 3510 3620
2020-06-10 22:30 5.42 2090 3740 (2016) 222 (1977) 1310 276 311 367 429 772 1980 2410 3510 3620
2020-06-10 21:30 5.39 2070 3740 (2016) 222 (1977) 1310 276 311 367 429 772 1980 2410 3510 3620
2020-06-10 20:30 5.36 2050 3740 (2016) 222 (1977) 1310 276 311 367 429 772 1980 2410 3510 3620
2020-06-10 19:30 5.29 2000 3740 (2016) 222 (1977) 1310 276 311 367 429 772 1980 2410 3510 3620
2020-06-10 18:30 5.21 1940 3740 (2016) 222 (1977) 1310 276 311 367 429 772 1980 2410 3510 3620
2020-06-10 17:30 5.11 1880 3740 (2016) 222 (1977) 1310 276 311 367 429 772 1980 2410 3510 3620
2020-06-10 16:30 4.99 1800 3740 (2016) 222 (1977) 1310 276 311 367 429 772 1980 2410 3510 3620
2020-06-10 15:30 4.90 1740 3740 (2016) 222 (1977) 1310 276 311 367 429 772 1980 2410 3510 3620
2020-06-10 14:30 4.83 1690 3740 (2016) 222 (1977) 1310 276 311 367 429 772 1980 2410 3510 3620
2020-06-10 13:30 4.82 1680 3740 (2016) 222 (1977) 1310 276 311 367 429 772 1980 2410 3510 3620
2020-06-10 12:30 4.79 1660 3740 (2016) 222 (1977) 1310 276 311 367 429 772 1980 2410 3510 3620
2020-06-10 11:30 4.76 1650 3740 (2016) 222 (1977) 1310 276 311 367 429 772 1980 2410 3510 3620
2020-06-10 10:30 4.73 1630 3740 (2016) 222 (1977) 1310 276 311 367 429 772 1980 2410 3510 3620
2020-06-10 09:30 4.76 1650 3740 (2016) 222 (1977) 1310 276 311 367 429 772 1980 2410 3510 3620
2020-06-10 08:30 4.74 1630 3740 (2016) 222 (1977) 1310 276 311 367 429 772 1980 2410 3510 3620
2020-06-10 07:30 4.76 1650 3740 (2016) 222 (1977) 1310 276 311 367 429 772 1980 2410 3510 3620
2020-06-10 06:30 4.76 1650 3740 (2016) 222 (1977) 1310 276 311 367 429 772 1980 2410 3510 3620
2020-06-10 05:30 4.77 1650 3740 (2016) 222 (1977) 1310 276 311 367 429 772 1980 2410 3510 3620
2020-06-10 04:30 4.77 1650 3740 (2016) 222 (1977) 1310 276 311 367 429 772 1980 2410 3510 3620
2020-06-10 03:30 4.78 1660 3740 (2016) 222 (1977) 1310 276 311 367 429 772 1980 2410 3510 3620
2020-06-10 02:30 4.78 1660 3740 (2016) 222 (1977) 1310 276 311 367 429 772 1980 2410 3510 3620
2020-06-10 01:30 4.79 1660 3740 (2016) 222 (1977) 1310 276 311 367 429 772 1980 2410 3510 3620
2020-06-10 00:30 4.80 1670 3740 (2016) 222 (1977) 1310 276 311 367 429 772 1980 2410 3510 3620
2020-06-09 23:30 4.81 1680 3910 (2017) 226 (1977) 1290 288 341 373 459 737 2040 2430 3320 3650
2020-06-09 22:30 4.81 1680 3910 (2017) 226 (1977) 1290 288 341 373 459 737 2040 2430 3320 3650
2020-06-09 21:30 4.83 1690 3910 (2017) 226 (1977) 1290 288 341 373 459 737 2040 2430 3320 3650
2020-06-09 20:30 4.82 1680 3910 (2017) 226 (1977) 1290 288 341 373 459 737 2040 2430 3320 3650
2020-06-09 19:30 4.85 1700 3910 (2017) 226 (1977) 1290 288 341 373 459 737 2040 2430 3320 3650
2020-06-09 18:30 4.85 1700 3910 (2017) 226 (1977) 1290 288 341 373 459 737 2040 2430 3320 3650
2020-06-09 17:30 4.89 1730 3910 (2017) 226 (1977) 1290 288 341 373 459 737 2040 2430 3320 3650
2020-06-09 16:30 4.90 1740 3910 (2017) 226 (1977) 1290 288 341 373 459 737 2040 2430 3320 3650
2020-06-09 15:30 4.93 1760 3910 (2017) 226 (1977) 1290 288 341 373 459 737 2040 2430 3320 3650
2020-06-09 14:30 4.97 1780 3910 (2017) 226 (1977) 1290 288 341 373 459 737 2040 2430 3320 3650
2020-06-09 13:30 5.01 1810 3910 (2017) 226 (1977) 1290 288 341 373 459 737 2040 2430 3320 3650
2020-06-09 12:30 5.03 1820 3910 (2017) 226 (1977) 1290 288 341 373 459 737 2040 2430 3320 3650
2020-06-09 11:30 5.04 1830 3910 (2017) 226 (1977) 1290 288 341 373 459 737 2040 2430 3320 3650
2020-06-09 10:30 5.03 1820 3910 (2017) 226 (1977) 1290 288 341 373 459 737 2040 2430 3320 3650
2020-06-09 09:30 5.03 1820 3910 (2017) 226 (1977) 1290 288 341 373 459 737 2040 2430 3320 3650
2020-06-09 08:30 5.03 1820 3910 (2017) 226 (1977) 1290 288 341 373 459 737 2040 2430 3320 3650
2020-06-09 07:30 5.00 1800 3910 (2017) 226 (1977) 1290 288 341 373 459 737 2040 2430 3320 3650
2020-06-09 06:30 4.94 1760 3910 (2017) 226 (1977) 1290 288 341 373 459 737 2040 2430 3320 3650
2020-06-09 05:30 4.90 1740 3910 (2017) 226 (1977) 1290 288 341 373 459 737 2040 2430 3320 3650
2020-06-09 04:30 4.89 1730 3910 (2017) 226 (1977) 1290 288 341 373 459 737 2040 2430 3320 3650
2020-06-09 03:30 4.90 1740 3910 (2017) 226 (1977) 1290 288 341 373 459 737 2040 2430 3320 3650
2020-06-09 02:30 4.88 1720 3910 (2017) 226 (1977) 1290 288 341 373 459 737 2040 2430 3320 3650
2020-06-09 01:30 4.89 1730 3910 (2017) 226 (1977) 1290 288 341 373 459 737 2040 2430 3320 3650
2020-06-09 00:30 4.92 1750 3910 (2017) 226 (1977) 1290 288 341 373 459 737 2040 2430 3320 3650
2020-06-08 23:30 4.94 1760 3850 (2017) 243 (1977) 1260 288 314 379 450 766 1800 2470 3360 3690
2020-06-08 22:30 4.97 1780 3850 (2017) 243 (1977) 1260 288 314 379 450 766 1800 2470 3360 3690
2020-06-08 21:30 5.01 1810 3850 (2017) 243 (1977) 1260 288 314 379 450 766 1800 2470 3360 3690
2020-06-08 20:30 5.07 1850 3850 (2017) 243 (1977) 1260 288 314 379 450 766 1800 2470 3360 3690
2020-06-08 19:30 5.13 1890 3850 (2017) 243 (1977) 1260 288 314 379 450 766 1800 2470 3360 3690
2020-06-08 18:30 5.28 1990 3850 (2017) 243 (1977) 1260 288 314 379 450 766 1800 2470 3360 3690
2020-06-08 17:30 5.49 2140 3850 (2017) 243 (1977) 1260 288 314 379 450 766 1800 2470 3360 3690
2020-06-08 16:30 5.74 2320 3850 (2017) 243 (1977) 1260 288 314 379 450 766 1800 2470 3360 3690
2020-06-08 15:30 6.01 2520 3850 (2017) 243 (1977) 1260 288 314 379 450 766 1800 2470 3360 3690
2020-06-08 14:30 6.30 2750 3850 (2017) 243 (1977) 1260 288 314 379 450 766 1800 2470 3360 3690
2020-06-08 13:30 6.50 2910 3850 (2017) 243 (1977) 1260 288 314 379 450 766 1800 2470 3360 3690
2020-06-08 12:30 6.73 3090 3850 (2017) 243 (1977) 1260 288 314 379 450 766 1800 2470 3360 3690
2020-06-08 11:30 6.97 3290 3850 (2017) 243 (1977) 1260 288 314 379 450 766 1800 2470 3360 3690
2020-06-08 10:30 7.12 3430 3850 (2017) 243 (1977) 1260 288 314 379 450 766 1800 2470 3360 3690
2020-06-08 09:30 7.17 3480 3850 (2017) 243 (1977) 1260 288 314 379 450 766 1800 2470 3360 3690
2020-06-08 08:30 7.16 3470 3850 (2017) 243 (1977) 1260 288 314 379 450 766 1800 2470 3360 3690
2020-06-08 07:30 7.16 3470 3850 (2017) 243 (1977) 1260 288 314 379 450 766 1800 2470 3360 3690
2020-06-08 06:30 7.18 3490 3850 (2017) 243 (1977) 1260 288 314 379 450 766 1800 2470 3360 3690
2020-06-08 05:30 7.19 3500 3850 (2017) 243 (1977) 1260 288 314 379 450 766 1800 2470 3360 3690
2020-06-08 04:30 7.19 3500 3850 (2017) 243 (1977) 1260 288 314 379 450 766 1800 2470 3360 3690
2020-06-08 03:30 7.18 3490 3850 (2017) 243 (1977) 1260 288 314 379 450 766 1800 2470 3360 3690
2020-06-08 02:30 7.19 3500 3850 (2017) 243 (1977) 1260 288 314 379 450 766 1800 2470 3360 3690
2020-06-08 01:30 7.20 3510 3850 (2017) 243 (1977) 1260 288 314 379 450 766 1800 2470 3360 3690
2020-06-08 00:30 7.19 3500 3850 (2017) 243 (1977) 1260 288 314 379 450 766 1800 2470 3360 3690
2020-06-07 23:30 7.21 3520 3810 (2016) 277 (1953) 1270 305 348 410 452 674 2100 2370 3420 3760
2020-06-07 22:30 7.20 3510 3810 (2016) 277 (1953) 1270 305 348 410 452 674 2100 2370 3420 3760
2020-06-07 21:30 7.21 3520 3810 (2016) 277 (1953) 1270 305 348 410 452 674 2100 2370 3420 3760
2020-06-07 20:30 7.22 3530 3810 (2016) 277 (1953) 1270 305 348 410 452 674 2100 2370 3420 3760
2020-06-07 19:30 7.22 3530 3810 (2016) 277 (1953) 1270 305 348 410 452 674 2100 2370 3420 3760
2020-06-07 18:30 7.22 3530 3810 (2016) 277 (1953) 1270 305 348 410 452 674 2100 2370 3420 3760
2020-06-07 17:30 7.24 3550 3810 (2016) 277 (1953) 1270 305 348 410 452 674 2100 2370 3420 3760
2020-06-07 16:30 7.24 3550 3810 (2016) 277 (1953) 1270 305 348 410 452 674 2100 2370 3420 3760
2020-06-07 15:30 7.25 3560 3810 (2016) 277 (1953) 1270 305 348 410 452 674 2100 2370 3420 3760
2020-06-07 14:30 7.28 3590 3810 (2016) 277 (1953) 1270 305 348 410 452 674 2100 2370 3420 3760
2020-06-07 13:30 7.27 3580 3810 (2016) 277 (1953) 1270 305 348 410 452 674 2100 2370 3420 3760
2020-06-07 12:30 7.27 3580 3810 (2016) 277 (1953) 1270 305 348 410 452 674 2100 2370 3420 3760
2020-06-07 11:30 7.25 3560 3810 (2016) 277 (1953) 1270 305 348 410 452 674 2100 2370 3420 3760
2020-06-07 10:30 7.28 3590 3810 (2016) 277 (1953) 1270 305 348 410 452 674 2100 2370 3420 3760
2020-06-07 09:30 7.28 3590 3810 (2016) 277 (1953) 1270 305 348 410 452 674 2100 2370 3420 3760
2020-06-07 08:30 7.28 3590 3810 (2016) 277 (1953) 1270 305 348 410 452 674 2100 2370 3420 3760
2020-06-07 07:30 7.30 3610 3810 (2016) 277 (1953) 1270 305 348 410 452 674 2100 2370 3420 3760
2020-06-07 06:30 7.31 3610 3810 (2016) 277 (1953) 1270 305 348 410 452 674 2100 2370 3420 3760
2020-06-07 05:30 7.30 3610 3810 (2016) 277 (1953) 1270 305 348 410 452 674 2100 2370 3420 3760
2020-06-07 04:30 7.31 3610 3810 (2016) 277 (1953) 1270 305 348 410 452 674 2100 2370 3420 3760
2020-06-07 03:30 7.32 3620 3810 (2016) 277 (1953) 1270 305 348 410 452 674 2100 2370 3420 3760
2020-06-07 02:30 7.31 3610 3810 (2016) 277 (1953) 1270 305 348 410 452 674 2100 2370 3420 3760
2020-06-07 01:30 7.33 3630 3810 (2016) 277 (1953) 1270 305 348 410 452 674 2100 2370 3420 3760
2020-06-07 00:30 7.33 3630 3810 (2016) 277 (1953) 1270 305 348 410 452 674 2100 2370 3420 3760
2020-06-06 23:30 7.35 3650 3760 (2019) 271 (1964) 1290 294 349 395 470 815 2100 2370 3200 3650
2020-06-06 22:30 7.34 3640 3760 (2019) 271 (1964) 1290 294 349 395 470 815 2100 2370 3200 3650
2020-06-06 21:30 7.34 3640 3760 (2019) 271 (1964) 1290 294 349 395 470 815 2100 2370 3200 3650
2020-06-06 20:30 7.35 3650 3760 (2019) 271 (1964) 1290 294 349 395 470 815 2100 2370 3200 3650
2020-06-06 19:30 7.36 3660 3760 (2019) 271 (1964) 1290 294 349 395 470 815 2100 2370 3200 3650
2020-06-06 18:30 7.36 3660 3760 (2019) 271 (1964) 1290 294 349 395 470 815 2100 2370 3200 3650
2020-06-06 17:30 7.36 3660 3760 (2019) 271 (1964) 1290 294 349 395 470 815 2100 2370 3200 3650
2020-06-06 16:30 7.38 3680 3760 (2019) 271 (1964) 1290 294 349 395 470 815 2100 2370 3200 3650
2020-06-06 15:30 7.37 3670 3760 (2019) 271 (1964) 1290 294 349 395 470 815 2100 2370 3200 3650
2020-06-06 14:30 7.36 3660 3760 (2019) 271 (1964) 1290 294 349 395 470 815 2100 2370 3200 3650
2020-06-06 13:30 7.38 3680 3760 (2019) 271 (1964) 1290 294 349 395 470 815 2100 2370 3200 3650
2020-06-06 12:30 7.40 3700 3760 (2019) 271 (1964) 1290 294 349 395 470 815 2100 2370 3200 3650
2020-06-06 11:30 7.41 3710 3760 (2019) 271 (1964) 1290 294 349 395 470 815 2100 2370 3200 3650
2020-06-06 10:30 7.41 3710 3760 (2019) 271 (1964) 1290 294 349 395 470 815 2100 2370 3200 3650
2020-06-06 09:30 7.41 3710 3760 (2019) 271 (1964) 1290 294 349 395 470 815 2100 2370 3200 3650
2020-06-06 08:30 7.41 3710 3760 (2019) 271 (1964) 1290 294 349 395 470 815 2100 2370 3200 3650
2020-06-06 07:30 7.42 3720 3760 (2019) 271 (1964) 1290 294 349 395 470 815 2100 2370 3200 3650
2020-06-06 06:30 7.42 3720 3760 (2019) 271 (1964) 1290 294 349 395 470 815 2100 2370 3200 3650
2020-06-06 05:30 7.42 3720 3760 (2019) 271 (1964) 1290 294 349 395 470 815 2100 2370 3200 3650
2020-06-06 04:30 7.45 3750 3760 (2019) 271 (1964) 1290 294 349 395 470 815 2100 2370 3200 3650
2020-06-06 03:30 7.45 3750 3760 (2019) 271 (1964) 1290 294 349 395 470 815 2100 2370 3200 3650
2020-06-06 02:30 7.45 3750 3760 (2019) 271 (1964) 1290 294 349 395 470 815 2100 2370 3200 3650
2020-06-06 01:30 7.45 3750 3760 (2019) 271 (1964) 1290 294 349 395 470 815 2100 2370 3200 3650
2020-06-06 00:30 7.46 3760 3760 (2019) 271 (1964) 1290 294 349 395 470 815 2100 2370 3200 3650
2020-06-05 23:30 7.46 3760 3750 (2019) 266 (1964) 1350 292 349 388 446 898 2130 2430 3250 3600
2020-06-05 22:30 7.45 3750 3750 (2019) 266 (1964) 1350 292 349 388 446 898 2130 2430 3250 3600
2020-06-05 21:30 7.45 3750 3750 (2019) 266 (1964) 1350 292 349 388 446 898 2130 2430 3250 3600
2020-06-05 20:30 7.45 3750 3750 (2019) 266 (1964) 1350 292 349 388 446 898 2130 2430 3250 3600
2020-06-05 19:30 7.46 3760 3750 (2019) 266 (1964) 1350 292 349 388 446 898 2130 2430 3250 3600
2020-06-05 18:30 7.46 3760 3750 (2019) 266 (1964) 1350 292 349 388 446 898 2130 2430 3250 3600
2020-06-05 17:30 7.44 3740 3750 (2019) 266 (1964) 1350 292 349 388 446 898 2130 2430 3250 3600
2020-06-05 16:30 7.43 3730 3750 (2019) 266 (1964) 1350 292 349 388 446 898 2130 2430 3250 3600
2020-06-05 15:30 7.43 3730 3750 (2019) 266 (1964) 1350 292 349 388 446 898 2130 2430 3250 3600
2020-06-05 14:30 7.37 3670 3750 (2019) 266 (1964) 1350 292 349 388 446 898 2130 2430 3250 3600
2020-06-05 13:30 7.28 3590 3750 (2019) 266 (1964) 1350 292 349 388 446 898 2130 2430 3250 3600
2020-06-05 12:30 7.19 3500 3750 (2019) 266 (1964) 1350 292 349 388 446 898 2130 2430 3250 3600
2020-06-05 11:30 7.11 3420 3750 (2019) 266 (1964) 1350 292 349 388 446 898 2130 2430 3250 3600
2020-06-05 10:30 7.03 3350 3750 (2019) 266 (1964) 1350 292 349 388 446 898 2130 2430 3250 3600
2020-06-05 09:30 7.01 3330 3750 (2019) 266 (1964) 1350 292 349 388 446 898 2130 2430 3250 3600
2020-06-05 08:30 7.03 3350 3750 (2019) 266 (1964) 1350 292 349 388 446 898 2130 2430 3250 3600
2020-06-05 07:30 7.04 3360 3750 (2019) 266 (1964) 1350 292 349 388 446 898 2130 2430 3250 3600
2020-06-05 06:30 7.02 3340 3750 (2019) 266 (1964) 1350 292 349 388 446 898 2130 2430 3250 3600
2020-06-05 05:30 7.02 3340 3750 (2019) 266 (1964) 1350 292 349 388 446 898 2130 2430 3250 3600
2020-06-05 04:30 7.03 3350 3750 (2019) 266 (1964) 1350 292 349 388 446 898 2130 2430 3250 3600
2020-06-05 03:30 7.01 3330 3750 (2019) 266 (1964) 1350 292 349 388 446 898 2130 2430 3250 3600
2020-06-05 02:30 7.05 3370 3750 (2019) 266 (1964) 1350 292 349 388 446 898 2130 2430 3250 3600
2020-06-05 01:30 7.02 3340 3750 (2019) 266 (1964) 1350 292 349 388 446 898 2130 2430 3250 3600
2020-06-05 00:30 7.02 3340 3750 (2019) 266 (1964) 1350 292 349 388 446 898 2130 2430 3250 3600
2020-06-04 23:30 7.01 3330 3770 (2017) 280 (2012) 1360 300 372 462 531 929 2110 2320 3480 3700
2020-06-04 22:30 6.97 3290 3770 (2017) 280 (2012) 1360 300 372 462 531 929 2110 2320 3480 3700
2020-06-04 21:30 6.94 3270 3770 (2017) 280 (2012) 1360 300 372 462 531 929 2110 2320 3480 3700
2020-06-04 20:30 6.89 3230 3770 (2017) 280 (2012) 1360 300 372 462 531 929 2110 2320 3480 3700
2020-06-04 19:30 6.81 3160 3770 (2017) 280 (2012) 1360 300 372 462 531 929 2110 2320 3480 3700
2020-06-04 18:30 6.70 3070 3770 (2017) 280 (2012) 1360 300 372 462 531 929 2110 2320 3480 3700
2020-06-04 17:30 6.62 3000 3770 (2017) 280 (2012) 1360 300 372 462 531 929 2110 2320 3480 3700
2020-06-04 16:30 6.61 3000 3770 (2017) 280 (2012) 1360 300 372 462 531 929 2110 2320 3480 3700
2020-06-04 15:30 6.71 3080 3770 (2017) 280 (2012) 1360 300 372 462 531 929 2110 2320 3480 3700
2020-06-04 14:30 6.88 3220 3770 (2017) 280 (2012) 1360 300 372 462 531 929 2110 2320 3480 3700
2020-06-04 13:30 7.13 3440 3770 (2017) 280 (2012) 1360 300 372 462 531 929 2110 2320 3480 3700
2020-06-04 12:30 7.32 3620 3770 (2017) 280 (2012) 1360 300 372 462 531 929 2110 2320 3480 3700
2020-06-04 11:30 7.44 3740 3770 (2017) 280 (2012) 1360 300 372 462 531 929 2110 2320 3480 3700
2020-06-04 10:30 7.47 3770 3770 (2017) 280 (2012) 1360 300 372 462 531 929 2110 2320 3480 3700
2020-06-04 09:30 7.49 3790 3770 (2017) 280 (2012) 1360 300 372 462 531 929 2110 2320 3480 3700
2020-06-04 08:30 7.48 3780 3770 (2017) 280 (2012) 1360 300 372 462 531 929 2110 2320 3480 3700
2020-06-04 07:30 7.48 3780 3770 (2017) 280 (2012) 1360 300 372 462 531 929 2110 2320 3480 3700
2020-06-04 06:30 7.46 3760 3770 (2017) 280 (2012) 1360 300 372 462 531 929 2110 2320 3480 3700
2020-06-04 05:30 7.47 3770 3770 (2017) 280 (2012) 1360 300 372 462 531 929 2110 2320 3480 3700
2020-06-04 04:30 7.49 3790 3770 (2017) 280 (2012) 1360 300 372 462 531 929 2110 2320 3480 3700
2020-06-04 03:30 7.49 3790 3770 (2017) 280 (2012) 1360 300 372 462 531 929 2110 2320 3480 3700
2020-06-04 02:30 7.51 3810 3770 (2017) 280 (2012) 1360 300 372 462 531 929 2110 2320 3480 3700
2020-06-04 01:30 7.53 3830 3770 (2017) 280 (2012) 1360 300 372 462 531 929 2110 2320 3480 3700
2020-06-04 00:30 7.57 3870 3770 (2017) 280 (2012) 1360 300 372 462 531 929 2110 2320 3480 3700
2020-06-03 23:30 7.60 3900 3760 (2017) 281 (2012) 1390 345 385 495 526 892 1950 2500 3450 3690
2020-06-03 22:30 7.60 3900 3760 (2017) 281 (2012) 1390 345 385 495 526 892 1950 2500 3450 3690
2020-06-03 21:30 7.58 3880 3760 (2017) 281 (2012) 1390 345 385 495 526 892 1950 2500 3450 3690
2020-06-03 20:30 7.52 3820 3760 (2017) 281 (2012) 1390 345 385 495 526 892 1950 2500 3450 3690
2020-06-03 19:30 7.47 3770 3760 (2017) 281 (2012) 1390 345 385 495 526 892 1950 2500 3450 3690
2020-06-03 18:30 7.47 3770 3760 (2017) 281 (2012) 1390 345 385 495 526 892 1950 2500 3450 3690
2020-06-03 17:30 7.45 3750 3760 (2017) 281 (2012) 1390 345 385 495 526 892 1950 2500 3450 3690
2020-06-03 16:30 7.46 3760 3760 (2017) 281 (2012) 1390 345 385 495 526 892 1950 2500 3450 3690
2020-06-03 15:30 7.44 3740 3760 (2017) 281 (2012) 1390 345 385 495 526 892 1950 2500 3450 3690
2020-06-03 14:30 7.46 3760 3760 (2017) 281 (2012) 1390 345 385 495 526 892 1950 2500 3450 3690
2020-06-03 13:30 7.44 3740 3760 (2017) 281 (2012) 1390 345 385 495 526 892 1950 2500 3450 3690
2020-06-03 12:30 7.45 3750 3760 (2017) 281 (2012) 1390 345 385 495 526 892 1950 2500 3450 3690
2020-06-03 11:30 7.42 3720 3760 (2017) 281 (2012) 1390 345 385 495 526 892 1950 2500 3450 3690
2020-06-03 10:30 7.41 3710 3760 (2017) 281 (2012) 1390 345 385 495 526 892 1950 2500 3450 3690
2020-06-03 09:30 7.42 3720 3760 (2017) 281 (2012) 1390 345 385 495 526 892 1950 2500 3450 3690
2020-06-03 08:30 7.43 3730 3760 (2017) 281 (2012) 1390 345 385 495 526 892 1950 2500 3450 3690
2020-06-03 07:30 7.43 3730 3760 (2017) 281 (2012) 1390 345 385 495 526 892 1950 2500 3450 3690
2020-06-03 06:30 7.44 3740 3760 (2017) 281 (2012) 1390 345 385 495 526 892 1950 2500 3450 3690
2020-06-03 05:30 7.45 3750 3760 (2017) 281 (2012) 1390 345 385 495 526 892 1950 2500 3450 3690
2020-06-03 04:30 7.45 3750 3760 (2017) 281 (2012) 1390 345 385 495 526 892 1950 2500 3450 3690
2020-06-03 03:30 7.43 3730 3760 (2017) 281 (2012) 1390 345 385 495 526 892 1950 2500 3450 3690
2020-06-03 02:30 7.45 3750 3760 (2017) 281 (2012) 1390 345 385 495 526 892 1950 2500 3450 3690
2020-06-03 01:30 7.45 3750 3760 (2017) 281 (2012) 1390 345 385 495 526 892 1950 2500 3450 3690
2020-06-03 00:30 7.46 3760 3760 (2017) 281 (2012) 1390 345 385 495 526 892 1950 2500 3450 3690
2020-06-02 23:30 7.44 3740 3820 (2017) 282 (2012) 1430 331 390 499 524 929 2140 2640 3510 3690
2020-06-02 22:30 7.45 3750 3820 (2017) 282 (2012) 1430 331 390 499 524 929 2140 2640 3510 3690
2020-06-02 21:30 7.43 3730 3820 (2017) 282 (2012) 1430 331 390 499 524 929 2140 2640 3510 3690
2020-06-02 20:30 7.49 3790 3820 (2017) 282 (2012) 1430 331 390 499 524 929 2140 2640 3510 3690
2020-06-02 19:30 7.44 3740 3820 (2017) 282 (2012) 1430 331 390 499 524 929 2140 2640 3510 3690
2020-06-02 18:30 7.45 3750 3820 (2017) 282 (2012) 1430 331 390 499 524 929 2140 2640 3510 3690
2020-06-02 17:30 7.45 3750 3820 (2017) 282 (2012) 1430 331 390 499 524 929 2140 2640 3510 3690
2020-06-02 16:30 7.46 3760 3820 (2017) 282 (2012) 1430 331 390 499 524 929 2140 2640 3510 3690
2020-06-02 15:30 7.46 3760 3820 (2017) 282 (2012) 1430 331 390 499 524 929 2140 2640 3510 3690
2020-06-02 14:30 7.46 3760 3820 (2017) 282 (2012) 1430 331 390 499 524 929 2140 2640 3510 3690
2020-06-02 13:30 7.46 3760 3820 (2017) 282 (2012) 1430 331 390 499 524 929 2140 2640 3510 3690
2020-06-02 12:30 7.43 3730 3820 (2017) 282 (2012) 1430 331 390 499 524 929 2140 2640 3510 3690
2020-06-02 11:30 7.43 3730 3820 (2017) 282 (2012) 1430 331 390 499 524 929 2140 2640 3510 3690
2020-06-02 10:30 7.44 3740 3820 (2017) 282 (2012) 1430 331 390 499 524 929 2140 2640 3510 3690
2020-06-02 09:30 7.45 3750 3820 (2017) 282 (2012) 1430 331 390 499 524 929 2140 2640 3510 3690
2020-06-02 08:30 7.43 3730 3820 (2017) 282 (2012) 1430 331 390 499 524 929 2140 2640 3510 3690
2020-06-02 07:30 7.45 3750 3820 (2017) 282 (2012) 1430 331 390 499 524 929 2140 2640 3510 3690
2020-06-02 06:30 7.43 3730 3820 (2017) 282 (2012) 1430 331 390 499 524 929 2140 2640 3510 3690
2020-06-02 05:30 7.45 3750 3820 (2017) 282 (2012) 1430 331 390 499 524 929 2140 2640 3510 3690
2020-06-02 04:30 7.45 3750 3820 (2017) 282 (2012) 1430 331 390 499 524 929 2140 2640 3510 3690
2020-06-02 03:30 7.45 3750 3820 (2017) 282 (2012) 1430 331 390 499 524 929 2140 2640 3510 3690
2020-06-02 02:30 7.45 3750 3820 (2017) 282 (2012) 1430 331 390 499 524 929 2140 2640 3510 3690
2020-06-02 01:30 7.45 3750 3820 (2017) 282 (2012) 1430 331 390 499 524 929 2140 2640 3510 3690
2020-06-02 00:30 7.45 3750 3820 (2017) 282 (2012) 1430 331 390 499 524 929 2140 2640 3510 3690
2020-06-01 23:30 7.46 3760 3860 (2016) 284 (1977) 1450 317 381 496 518 795 2380 2850 3690 3740
2020-06-01 22:30 7.47 3770 3860 (2016) 284 (1977) 1450 317 381 496 518 795 2380 2850 3690 3740
2020-06-01 21:30 7.47 3770 3860 (2016) 284 (1977) 1450 317 381 496 518 795 2380 2850 3690 3740
2020-06-01 20:30 7.47 3770 3860 (2016) 284 (1977) 1450 317 381 496 518 795 2380 2850 3690 3740
2020-06-01 19:30 7.47 3770 3860 (2016) 284 (1977) 1450 317 381 496 518 795 2380 2850 3690 3740
2020-06-01 18:30 7.49 3790 3860 (2016) 284 (1977) 1450 317 381 496 518 795 2380 2850 3690 3740
2020-06-01 17:30 7.47 3770 3860 (2016) 284 (1977) 1450 317 381 496 518 795 2380 2850 3690 3740
2020-06-01 16:30 7.48 3780 3860 (2016) 284 (1977) 1450 317 381 496 518 795 2380 2850 3690 3740
2020-06-01 15:30 7.47 3770 3860 (2016) 284 (1977) 1450 317 381 496 518 795 2380 2850 3690 3740
2020-06-01 14:30 7.46 3760 3860 (2016) 284 (1977) 1450 317 381 496 518 795 2380 2850 3690 3740
2020-06-01 13:30 7.47 3770 3860 (2016) 284 (1977) 1450 317 381 496 518 795 2380 2850 3690 3740
2020-06-01 12:30 7.46 3760 3860 (2016) 284 (1977) 1450 317 381 496 518 795 2380 2850 3690 3740
2020-06-01 11:30 7.45 3750 3860 (2016) 284 (1977) 1450 317 381 496 518 795 2380 2850 3690 3740
2020-06-01 10:30 7.44 3740 3860 (2016) 284 (1977) 1450 317 381 496 518 795 2380 2850 3690 3740
2020-06-01 09:30 7.43 3730 3860 (2016) 284 (1977) 1450 317 381 496 518 795 2380 2850 3690 3740
2020-06-01 08:30 7.44 3740 3860 (2016) 284 (1977) 1450 317 381 496 518 795 2380 2850 3690 3740
2020-06-01 07:30 7.44 3740 3860 (2016) 284 (1977) 1450 317 381 496 518 795 2380 2850 3690 3740
2020-06-01 06:30 7.44 3740 3860 (2016) 284 (1977) 1450 317 381 496 518 795 2380 2850 3690 3740
2020-06-01 05:30 7.44 3740 3860 (2016) 284 (1977) 1450 317 381 496 518 795 2380 2850 3690 3740
2020-06-01 04:30 7.45 3750 3860 (2016) 284 (1977) 1450 317 381 496 518 795 2380 2850 3690 3740
2020-06-01 03:30 7.47 3770 3860 (2016) 284 (1977) 1450 317 381 496 518 795 2380 2850 3690 3740
2020-06-01 02:30 7.46 3760 3860 (2016) 284 (1977) 1450 317 381 496 518 795 2380 2850 3690 3740
2020-06-01 01:30 7.46 3760 3860 (2016) 284 (1977) 1450 317 381 496 518 795 2380 2850 3690 3740
2020-06-01 00:30 7.45 3750 3860 (2016) 284 (1977) 1450 317 381 496 518 795 2380 2850 3690 3740
2020-05-31 23:30 7.48 3780 3870 (1957) 290 (2012) 1370 308 372 446 483 808 2100 2470 3670 3730
2020-05-31 22:30 7.48 3780 3870 (1957) 290 (2012) 1370 308 372 446 483 808 2100 2470 3670 3730
2020-05-31 21:30 7.47 3770 3870 (1957) 290 (2012) 1370 308 372 446 483 808 2100 2470 3670 3730
2020-05-31 20:30 7.47 3770 3870 (1957) 290 (2012) 1370 308 372 446 483 808 2100 2470 3670 3730
2020-05-31 19:30 7.47 3770 3870 (1957) 290 (2012) 1370 308 372 446 483 808 2100 2470 3670 3730
2020-05-31 18:30 7.47 3770 3870 (1957) 290 (2012) 1370 308 372 446 483 808 2100 2470 3670 3730
2020-05-31 17:30 7.48 3780 3870 (1957) 290 (2012) 1370 308 372 446 483 808 2100 2470 3670 3730
2020-05-31 16:30 7.49 3790 3870 (1957) 290 (2012) 1370 308 372 446 483 808 2100 2470 3670 3730
2020-05-31 15:30 7.49 3790 3870 (1957) 290 (2012) 1370 308 372 446 483 808 2100 2470 3670 3730
2020-05-31 14:30 7.48 3780 3870 (1957) 290 (2012) 1370 308 372 446 483 808 2100 2470 3670 3730
2020-05-31 13:30 7.48 3780 3870 (1957) 290 (2012) 1370 308 372 446 483 808 2100 2470 3670 3730
2020-05-31 12:30 7.49 3790 3870 (1957) 290 (2012) 1370 308 372 446 483 808 2100 2470 3670 3730
2020-05-31 11:30 7.49 3790 3870 (1957) 290 (2012) 1370 308 372 446 483 808 2100 2470 3670 3730
2020-05-31 10:30 7.47 3770 3870 (1957) 290 (2012) 1370 308 372 446 483 808 2100 2470 3670 3730
2020-05-31 09:30 7.50 3800 3870 (1957) 290 (2012) 1370 308 372 446 483 808 2100 2470 3670 3730
2020-05-31 08:30 7.49 3790 3870 (1957) 290 (2012) 1370 308 372 446 483 808 2100 2470 3670 3730
2020-05-31 07:30 7.51 3810 3870 (1957) 290 (2012) 1370 308 372 446 483 808 2100 2470 3670 3730
2020-05-31 06:30 7.50 3800 3870 (1957) 290 (2012) 1370 308 372 446 483 808 2100 2470 3670 3730
2020-05-31 05:30 7.50 3800 3870 (1957) 290 (2012) 1370 308 372 446 483 808 2100 2470 3670 3730
2020-05-31 04:30 7.52 3820 3870 (1957) 290 (2012) 1370 308 372 446 483 808 2100 2470 3670 3730
2020-05-31 03:30 7.52 3820 3870 (1957) 290 (2012) 1370 308 372 446 483 808 2100 2470 3670 3730
2020-05-31 02:30 7.54 3840 3870 (1957) 290 (2012) 1370 308 372 446 483 808 2100 2470 3670 3730
2020-05-31 01:30 7.54 3840 3870 (1957) 290 (2012) 1370 308 372 446 483 808 2100 2470 3670 3730
2020-05-31 00:30 7.52 3820 3870 (1957) 290 (2012) 1370 308 372 446 483 808 2100 2470 3670 3730
2020-05-30 23:30 7.52 3820 3870 (1957) 293 (2012) 1420 323 424 475 492 902 2340 2440 3240 3700
2020-05-30 22:30 7.49 3790 3870 (1957) 293 (2012) 1420 323 424 475 492 902 2340 2440 3240 3700
2020-05-30 21:30 7.52 3820 3870 (1957) 293 (2012) 1420 323 424 475 492 902 2340 2440 3240 3700
2020-05-30 20:30 7.52 3820 3870 (1957) 293 (2012) 1420 323 424 475 492 902 2340 2440 3240 3700
2020-05-30 19:30 7.52 3820 3870 (1957) 293 (2012) 1420 323 424 475 492 902 2340 2440 3240 3700
2020-05-30 18:30 7.54 3840 3870 (1957) 293 (2012) 1420 323 424 475 492 902 2340 2440 3240 3700
2020-05-30 17:30 7.55 3850 3870 (1957) 293 (2012) 1420 323 424 475 492 902 2340 2440 3240 3700
2020-05-30 16:30 7.51 3810 3870 (1957) 293 (2012) 1420 323 424 475 492 902 2340 2440 3240 3700
2020-05-30 15:30 7.53 3830 3870 (1957) 293 (2012) 1420 323 424 475 492 902 2340 2440 3240 3700
2020-05-30 14:30 7.55 3850 3870 (1957) 293 (2012) 1420 323 424 475 492 902 2340 2440 3240 3700
2020-05-30 13:30 7.54 3840 3870 (1957) 293 (2012) 1420 323 424 475 492 902 2340 2440 3240 3700
2020-05-30 12:30 7.52 3820 3870 (1957) 293 (2012) 1420 323 424 475 492 902 2340 2440 3240 3700
2020-05-30 11:30 7.54 3840 3870 (1957) 293 (2012) 1420 323 424 475 492 902 2340 2440 3240 3700
2020-05-30 10:30 7.56 3860 3870 (1957) 293 (2012) 1420 323 424 475 492 902 2340 2440 3240 3700
2020-05-30 09:30 7.55 3850 3870 (1957) 293 (2012) 1420 323 424 475 492 902 2340 2440 3240 3700
2020-05-30 08:30 7.56 3860 3870 (1957) 293 (2012) 1420 323 424 475 492 902 2340 2440 3240 3700
2020-05-30 07:30 7.56 3860 3870 (1957) 293 (2012) 1420 323 424 475 492 902 2340 2440 3240 3700
2020-05-30 06:30 7.54 3840 3870 (1957) 293 (2012) 1420 323 424 475 492 902 2340 2440 3240 3700
2020-05-30 05:30 7.55 3850 3870 (1957) 293 (2012) 1420 323 424 475 492 902 2340 2440 3240 3700
2020-05-30 04:30 7.54 3840 3870 (1957) 293 (2012) 1420 323 424 475 492 902 2340 2440 3240 3700
2020-05-30 03:30 7.53 3830 3870 (1957) 293 (2012) 1420 323 424 475 492 902 2340 2440 3240 3700
2020-05-30 02:30 7.52 3820 3870 (1957) 293 (2012) 1420 323 424 475 492 902 2340 2440 3240 3700
2020-05-30 01:30 7.51 3810 3870 (1957) 293 (2012) 1420 323 424 475 492 902 2340 2440 3240 3700
2020-05-30 00:30 7.47 3770 3870 (1957) 293 (2012) 1420 323 424 475 492 902 2340 2440 3240 3700
2020-05-29 23:30 7.47 3770 3800 (1983) 300 (1977) 1400 367 405 478 518 989 2110 2390 3500 3700
2020-05-29 22:30 7.37 3670 3800 (1983) 300 (1977) 1400 367 405 478 518 989 2110 2390 3500 3700
2020-05-29 21:30 7.32 3620 3800 (1983) 300 (1977) 1400 367 405 478 518 989 2110 2390 3500 3700
2020-05-29 20:30 7.21 3520 3800 (1983) 300 (1977) 1400 367 405 478 518 989 2110 2390 3500 3700
2020-05-29 19:30 7.07 3390 3800 (1983) 300 (1977) 1400 367 405 478 518 989 2110 2390 3500 3700
2020-05-29 18:30 6.91 3240 3800 (1983) 300 (1977) 1400 367 405 478 518 989 2110 2390 3500 3700
2020-05-29 17:30 6.81 3160 3800 (1983) 300 (1977) 1400 367 405 478 518 989 2110 2390 3500 3700
2020-05-29 16:30 6.83 3180 3800 (1983) 300 (1977) 1400 367 405 478 518 989 2110 2390 3500 3700
2020-05-29 15:30 6.91 3240 3800 (1983) 300 (1977) 1400 367 405 478 518 989 2110 2390 3500 3700
2020-05-29 14:30 7.02 3340 3800 (1983) 300 (1977) 1400 367 405 478 518 989 2110 2390 3500 3700
2020-05-29 13:30 7.20 3510 3800 (1983) 300 (1977) 1400 367 405 478 518 989 2110 2390 3500 3700
2020-05-29 12:30 7.40 3700 3800 (1983) 300 (1977) 1400 367 405 478 518 989 2110 2390 3500 3700
2020-05-29 11:30 7.57 3870 3800 (1983) 300 (1977) 1400 367 405 478 518 989 2110 2390 3500 3700
2020-05-29 10:30 7.69 3990 3800 (1983) 300 (1977) 1400 367 405 478 518 989 2110 2390 3500 3700
2020-05-29 09:30 7.73 4030 3800 (1983) 300 (1977) 1400 367 405 478 518 989 2110 2390 3500 3700
2020-05-29 08:30 7.73 4030 3800 (1983) 300 (1977) 1400 367 405 478 518 989 2110 2390 3500 3700
2020-05-29 07:30 7.74 4040 3800 (1983) 300 (1977) 1400 367 405 478 518 989 2110 2390 3500 3700
2020-05-29 06:30 7.75 4050 3800 (1983) 300 (1977) 1400 367 405 478 518 989 2110 2390 3500 3700
2020-05-29 05:30 7.75 4050 3800 (1983) 300 (1977) 1400 367 405 478 518 989 2110 2390 3500 3700
2020-05-29 04:30 7.76 4060 3800 (1983) 300 (1977) 1400 367 405 478 518 989 2110 2390 3500 3700
2020-05-29 03:30 7.78 4080 3800 (1983) 300 (1977) 1400 367 405 478 518 989 2110 2390 3500 3700
2020-05-29 02:30 7.78 4080 3800 (1983) 300 (1977) 1400 367 405 478 518 989 2110 2390 3500 3700
2020-05-29 01:30 7.78 4080 3800 (1983) 300 (1977) 1400 367 405 478 518 989 2110 2390 3500 3700
2020-05-29 00:30 7.80 4100 3800 (1983) 300 (1977) 1400 367 405 478 518 989 2110 2390 3500 3700
2020-05-28 23:30 7.81 4110 3730 (2011) 277 (1977) 1290 397 413 493 544 923 1740 2050 3290 3700
2020-05-28 22:30 7.80 4100 3730 (2011) 277 (1977) 1290 397 413 493 544 923 1740 2050 3290 3700
2020-05-28 21:30 7.81 4110 3730 (2011) 277 (1977) 1290 397 413 493 544 923 1740 2050 3290 3700
2020-05-28 20:30 7.86 4170 3730 (2011) 277 (1977) 1290 397 413 493 544 923 1740 2050 3290 3700
2020-05-28 19:30 7.86 4170 3730 (2011) 277 (1977) 1290 397 413 493 544 923 1740 2050 3290 3700
2020-05-28 18:30 7.86 4170 3730 (2011) 277 (1977) 1290 397 413 493 544 923 1740 2050 3290 3700
2020-05-28 17:30 7.86 4170 3730 (2011) 277 (1977) 1290 397 413 493 544 923 1740 2050 3290 3700
2020-05-28 16:30 7.86 4170 3730 (2011) 277 (1977) 1290 397 413 493 544 923 1740 2050 3290 3700
2020-05-28 15:30 7.83 4130 3730 (2011) 277 (1977) 1290 397 413 493 544 923 1740 2050 3290 3700
2020-05-28 14:30 7.80 4100 3730 (2011) 277 (1977) 1290 397 413 493 544 923 1740 2050 3290 3700
2020-05-28 13:30 7.75 4050 3730 (2011) 277 (1977) 1290 397 413 493 544 923 1740 2050 3290 3700
2020-05-28 12:30 7.71 4010 3730 (2011) 277 (1977) 1290 397 413 493 544 923 1740 2050 3290 3700
2020-05-28 11:30 7.71 4010 3730 (2011) 277 (1977) 1290 397 413 493 544 923 1740 2050 3290 3700
2020-05-28 10:30 7.80 4100 3730 (2011) 277 (1977) 1290 397 413 493 544 923 1740 2050 3290 3700
2020-05-28 09:30 7.94 4250 3730 (2011) 277 (1977) 1290 397 413 493 544 923 1740 2050 3290 3700
2020-05-28 08:30 8.05 4380 3730 (2011) 277 (1977) 1290 397 413 493 544 923 1740 2050 3290 3700
2020-05-28 07:30 8.01 4330 3730 (2011) 277 (1977) 1290 397 413 493 544 923 1740 2050 3290 3700
2020-05-28 06:30 7.95 4260 3730 (2011) 277 (1977) 1290 397 413 493 544 923 1740 2050 3290 3700
2020-05-28 05:30 7.84 4140 3730 (2011) 277 (1977) 1290 397 413 493 544 923 1740 2050 3290 3700
2020-05-28 04:30 7.74 4040 3730 (2011) 277 (1977) 1290 397 413 493 544 923 1740 2050 3290 3700
2020-05-28 03:30 7.68 3980 3730 (2011) 277 (1977) 1290 397 413 493 544 923 1740 2050 3290 3700
2020-05-28 02:30 7.63 3930 3730 (2011) 277 (1977) 1290 397 413 493 544 923 1740 2050 3290 3700
2020-05-28 01:30 7.55 3850 3730 (2011) 277 (1977) 1290 397 413 493 544 923 1740 2050 3290 3700
2020-05-28 00:30 7.39 3690 3730 (2011) 277 (1977) 1290 397 413 493 544 923 1740 2050 3290 3700
2020-05-27 23:30 7.31 3610 3770 (2011) 275 (1977) 1410 348 400 516 546 939 2080 2240 3360 3730
2020-05-27 22:30 7.17 3480 3770 (2011) 275 (1977) 1410 348 400 516 546 939 2080 2240 3360 3730
2020-05-27 21:30 6.98 3300 3770 (2011) 275 (1977) 1410 348 400 516 546 939 2080 2240 3360 3730
2020-05-27 20:30 6.76 3120 3770 (2011) 275 (1977) 1410 348 400 516 546 939 2080 2240 3360 3730
2020-05-27 19:30 6.53 2930 3770 (2011) 275 (1977) 1410 348 400 516 546 939 2080 2240 3360 3730
2020-05-27 18:30 6.40 2830 3770 (2011) 275 (1977) 1410 348 400 516 546 939 2080 2240 3360 3730
2020-05-27 17:30 6.32 2760 3770 (2011) 275 (1977) 1410 348 400 516 546 939 2080 2240 3360 3730
2020-05-27 16:30 6.25 2710 3770 (2011) 275 (1977) 1410 348 400 516 546 939 2080 2240 3360 3730
2020-05-27 15:30 6.15 2630 3770 (2011) 275 (1977) 1410 348 400 516 546 939 2080 2240 3360 3730
2020-05-27 14:30 6.01 2520 3770 (2011) 275 (1977) 1410 348 400 516 546 939 2080 2240 3360 3730
2020-05-27 13:30 5.89 2430 3770 (2011) 275 (1977) 1410 348 400 516 546 939 2080 2240 3360 3730
2020-05-27 12:30 5.69 2280 3770 (2011) 275 (1977) 1410 348 400 516 546 939 2080 2240 3360 3730
2020-05-27 11:30 5.45 2110 3770 (2011) 275 (1977) 1410 348 400 516 546 939 2080 2240 3360 3730
2020-05-27 10:30 5.29 2000 3770 (2011) 275 (1977) 1410 348 400 516 546 939 2080 2240 3360 3730
2020-05-27 09:30 5.41 2080 3770 (2011) 275 (1977) 1410 348 400 516 546 939 2080 2240 3360 3730
2020-05-27 08:30 5.63 2240 3770 (2011) 275 (1977) 1410 348 400 516 546 939 2080 2240 3360 3730
2020-05-27 07:30 5.90 2440 3770 (2011) 275 (1977) 1410 348 400 516 546 939 2080 2240 3360 3730
2020-05-27 06:30 6.07 2570 3770 (2011) 275 (1977) 1410 348 400 516 546 939 2080 2240 3360 3730
2020-05-27 05:30 6.12 2610 3770 (2011) 275 (1977) 1410 348 400 516 546 939 2080 2240 3360 3730
2020-05-27 04:30 6.10 2590 3770 (2011) 275 (1977) 1410 348 400 516 546 939 2080 2240 3360 3730
2020-05-27 03:30 6.10 2590 3770 (2011) 275 (1977) 1410 348 400 516 546 939 2080 2240 3360 3730
2020-05-27 02:30 6.07 2570 3770 (2011) 275 (1977) 1410 348 400 516 546 939 2080 2240 3360 3730
2020-05-27 01:30 6.07 2570 3770 (2011) 275 (1977) 1410 348 400 516 546 939 2080 2240 3360 3730
2020-05-27 00:30 6.05 2550 3770 (2011) 275 (1977) 1410 348 400 516 546 939 2080 2240 3360 3730
2020-05-26 23:30 6.08 2580 3800 (2017) 229 (1962) 1460 342 392 510 556 888 2130 2830 3310 3550
2020-05-26 22:30 6.09 2580 3800 (2017) 229 (1962) 1460 342 392 510 556 888 2130 2830 3310 3550
2020-05-26 21:30 6.09 2580 3800 (2017) 229 (1962) 1460 342 392 510 556 888 2130 2830 3310 3550
2020-05-26 20:30 6.09 2580 3800 (2017) 229 (1962) 1460 342 392 510 556 888 2130 2830 3310 3550
2020-05-26 19:30 6.11 2600 3800 (2017) 229 (1962) 1460 342 392 510 556 888 2130 2830 3310 3550
2020-05-26 18:30 6.10 2590 3800 (2017) 229 (1962) 1460 342 392 510 556 888 2130 2830 3310 3550
2020-05-26 17:30 6.08 2580 3800 (2017) 229 (1962) 1460 342 392 510 556 888 2130 2830 3310 3550
2020-05-26 16:30 6.05 2550 3800 (2017) 229 (1962) 1460 342 392 510 556 888 2130 2830 3310 3550
2020-05-26 15:30 6.02 2530 3800 (2017) 229 (1962) 1460 342 392 510 556 888 2130 2830 3310 3550
2020-05-26 14:30 6.02 2530 3800 (2017) 229 (1962) 1460 342 392 510 556 888 2130 2830 3310 3550
2020-05-26 13:30 6.05 2550 3800 (2017) 229 (1962) 1460 342 392 510 556 888 2130 2830 3310 3550
2020-05-26 12:30 6.05 2550 3800 (2017) 229 (1962) 1460 342 392 510 556 888 2130 2830 3310 3550
2020-05-26 11:30 6.04 2550 3800 (2017) 229 (1962) 1460 342 392 510 556 888 2130 2830 3310 3550
2020-05-26 10:30 6.04 2550 3800 (2017) 229 (1962) 1460 342 392 510 556 888 2130 2830 3310 3550
2020-05-26 09:30 6.04 2550 3800 (2017) 229 (1962) 1460 342 392 510 556 888 2130 2830 3310 3550
2020-05-26 08:30 6.04 2550 3800 (2017) 229 (1962) 1460 342 392 510 556 888 2130 2830 3310 3550
2020-05-26 07:30 6.04 2550 3800 (2017) 229 (1962) 1460 342 392 510 556 888 2130 2830 3310 3550
2020-05-26 06:30 6.05 2550 3800 (2017) 229 (1962) 1460 342 392 510 556 888 2130 2830 3310 3550
2020-05-26 05:30 6.05 2550 3800 (2017) 229 (1962) 1460 342 392 510 556 888 2130 2830 3310 3550
2020-05-26 04:30 6.05 2550 3800 (2017) 229 (1962) 1460 342 392 510 556 888 2130 2830 3310 3550
2020-05-26 03:30 6.07 2570 3800 (2017) 229 (1962) 1460 342 392 510 556 888 2130 2830 3310 3550
2020-05-26 02:30 6.07 2570 3800 (2017) 229 (1962) 1460 342 392 510 556 888 2130 2830 3310 3550
2020-05-26 01:30 6.07 2570 3800 (2017) 229 (1962) 1460 342 392 510 556 888 2130 2830 3310 3550
2020-05-26 00:30 6.08 2580 3800 (2017) 229 (1962) 1460 342 392 510 556 888 2130 2830 3310 3550
2020-05-25 23:30 6.09 2580 3840 (2017) 214 (1962) 1470 338 368 456 542 1020 2290 2840 3350 3570
2020-05-25 22:30 6.09 2580 3840 (2017) 214 (1962) 1470 338 368 456 542 1020 2290 2840 3350 3570
2020-05-25 21:30 6.11 2600 3840 (2017) 214 (1962) 1470 338 368 456 542 1020 2290 2840 3350 3570
2020-05-25 20:30 6.11 2600 3840 (2017) 214 (1962) 1470 338 368 456 542 1020 2290 2840 3350 3570
2020-05-25 19:30 6.11 2600 3840 (2017) 214 (1962) 1470 338 368 456 542 1020 2290 2840 3350 3570
2020-05-25 18:30 6.11 2600 3840 (2017) 214 (1962) 1470 338 368 456 542 1020 2290 2840 3350 3570
2020-05-25 17:30 6.12 2610 3840 (2017) 214 (1962) 1470 338 368 456 542 1020 2290 2840 3350 3570
2020-05-25 16:30 6.13 2620 3840 (2017) 214 (1962) 1470 338 368 456 542 1020 2290 2840 3350 3570
2020-05-25 15:30 6.16 2640 3840 (2017) 214 (1962) 1470 338 368 456 542 1020 2290 2840 3350 3570
2020-05-25 14:30 6.21 2680 3840 (2017) 214 (1962) 1470 338 368 456 542 1020 2290 2840 3350 3570
2020-05-25 13:30 6.26 2720 3840 (2017) 214 (1962) 1470 338 368 456 542 1020 2290 2840 3350 3570
2020-05-25 12:30 6.37 2800 3840 (2017) 214 (1962) 1470 338 368 456 542 1020 2290 2840 3350 3570
2020-05-25 11:30 6.45 2870 3840 (2017) 214 (1962) 1470 338 368 456 542 1020 2290 2840 3350 3570
2020-05-25 10:30 6.63 3010 3840 (2017) 214 (1962) 1470 338 368 456 542 1020 2290 2840 3350 3570
2020-05-25 09:30 6.82 3170 3840 (2017) 214 (1962) 1470 338 368 456 542 1020 2290 2840 3350 3570
2020-05-25 08:30 7.05 3370 3840 (2017) 214 (1962) 1470 338 368 456 542 1020 2290 2840 3350 3570
2020-05-25 07:30 7.20 3510 3840 (2017) 214 (1962) 1470 338 368 456 542 1020 2290 2840 3350 3570
2020-05-25 06:30 7.28 3590 3840 (2017) 214 (1962) 1470 338 368 456 542 1020 2290 2840 3350 3570
2020-05-25 05:30 7.29 3600 3840 (2017) 214 (1962) 1470 338 368 456 542 1020 2290 2840 3350 3570
2020-05-25 04:30 7.29 3600 3840 (2017) 214 (1962) 1470 338 368 456 542 1020 2290 2840 3350 3570
2020-05-25 03:30 7.29 3600 3840 (2017) 214 (1962) 1470 338 368 456 542 1020 2290 2840 3350 3570
2020-05-25 02:30 7.29 3600 3840 (2017) 214 (1962) 1470 338 368 456 542 1020 2290 2840 3350 3570
2020-05-25 01:30 7.29 3600 3840 (2017) 214 (1962) 1470 338 368 456 542 1020 2290 2840 3350 3570
2020-05-25 00:30 7.28 3590 3840 (2017) 214 (1962) 1470 338 368 456 542 1020 2290 2840 3350 3570
2020-05-24 23:30 7.28 3590 3830 (2017) 212 (1962) 1470 305 395 462 485 1020 2410 2710 3370 3630
2020-05-24 22:30 7.27 3580 3830 (2017) 212 (1962) 1470 305 395 462 485 1020 2410 2710 3370 3630
2020-05-24 21:30 7.28 3590 3830 (2017) 212 (1962) 1470 305 395 462 485 1020 2410 2710 3370 3630
2020-05-24 20:30 7.29 3600 3830 (2017) 212 (1962) 1470 305 395 462 485 1020 2410 2710 3370 3630
2020-05-24 19:30 7.27 3580 3830 (2017) 212 (1962) 1470 305 395 462 485 1020 2410 2710 3370 3630
2020-05-24 18:30 7.28 3590 3830 (2017) 212 (1962) 1470 305 395 462 485 1020 2410 2710 3370 3630
2020-05-24 17:30 7.28 3590 3830 (2017) 212 (1962) 1470 305 395 462 485 1020 2410 2710 3370 3630
2020-05-24 16:30 7.31 3610 3830 (2017) 212 (1962) 1470 305 395 462 485 1020 2410 2710 3370 3630
2020-05-24 15:30 7.30 3610 3830 (2017) 212 (1962) 1470 305 395 462 485 1020 2410 2710 3370 3630
2020-05-24 14:30 7.29 3600 3830 (2017) 212 (1962) 1470 305 395 462 485 1020 2410 2710 3370 3630
2020-05-24 13:30 7.31 3610 3830 (2017) 212 (1962) 1470 305 395 462 485 1020 2410 2710 3370 3630
2020-05-24 12:30 7.31 3610 3830 (2017) 212 (1962) 1470 305 395 462 485 1020 2410 2710 3370 3630
2020-05-24 11:30 7.33 3630 3830 (2017) 212 (1962) 1470 305 395 462 485 1020 2410 2710 3370 3630
2020-05-24 10:30 7.32 3620 3830 (2017) 212 (1962) 1470 305 395 462 485 1020 2410 2710 3370 3630
2020-05-24 09:30 7.33 3630 3830 (2017) 212 (1962) 1470 305 395 462 485 1020 2410 2710 3370 3630
2020-05-24 08:30 7.30 3610 3830 (2017) 212 (1962) 1470 305 395 462 485 1020 2410 2710 3370 3630
2020-05-24 07:30 7.32 3620 3830 (2017) 212 (1962) 1470 305 395 462 485 1020 2410 2710 3370 3630
2020-05-24 06:30 7.32 3620 3830 (2017) 212 (1962) 1470 305 395 462 485 1020 2410 2710 3370 3630
2020-05-24 05:30 7.33 3630 3830 (2017) 212 (1962) 1470 305 395 462 485 1020 2410 2710 3370 3630
2020-05-24 04:30 7.34 3640 3830 (2017) 212 (1962) 1470 305 395 462 485 1020 2410 2710 3370 3630
2020-05-24 03:30 7.34 3640 3830 (2017) 212 (1962) 1470 305 395 462 485 1020 2410 2710 3370 3630
2020-05-24 02:30 7.36 3660 3830 (2017) 212 (1962) 1470 305 395 462 485 1020 2410 2710 3370 3630
2020-05-24 01:30 7.35 3650 3830 (2017) 212 (1962) 1470 305 395 462 485 1020 2410 2710 3370 3630
2020-05-24 00:30 7.36 3660 3830 (2017) 212 (1962) 1470 305 395 462 485 1020 2410 2710 3370 3630
2020-05-23 23:30 7.37 3670 4580 (1957) 216 (1962) 1550 341 399 440 592 981 2540 2950 3530 3690
2020-05-23 22:30 7.36 3660 4580 (1957) 216 (1962) 1550 341 399 440 592 981 2540 2950 3530 3690
2020-05-23 21:30 7.34 3640 4580 (1957) 216 (1962) 1550 341 399 440 592 981 2540 2950 3530 3690
2020-05-23 20:30 7.37 3670 4580 (1957) 216 (1962) 1550 341 399 440 592 981 2540 2950 3530 3690
2020-05-23 19:30 7.38 3680 4580 (1957) 216 (1962) 1550 341 399 440 592 981 2540 2950 3530 3690
2020-05-23 18:30 7.36 3660 4580 (1957) 216 (1962) 1550 341 399 440 592 981 2540 2950 3530 3690
2020-05-23 17:30 7.36 3660 4580 (1957) 216 (1962) 1550 341 399 440 592 981 2540 2950 3530 3690
2020-05-23 16:30 7.36 3660 4580 (1957) 216 (1962) 1550 341 399 440 592 981 2540 2950 3530 3690
2020-05-23 15:30 7.39 3690 4580 (1957) 216 (1962) 1550 341 399 440 592 981 2540 2950 3530 3690
2020-05-23 14:30 7.38 3680 4580 (1957) 216 (1962) 1550 341 399 440 592 981 2540 2950 3530 3690
2020-05-23 13:30 7.39 3690 4580 (1957) 216 (1962) 1550 341 399 440 592 981 2540 2950 3530 3690
2020-05-23 12:30 7.39 3690 4580 (1957) 216 (1962) 1550 341 399 440 592 981 2540 2950 3530 3690
2020-05-23 11:30 7.39 3690 4580 (1957) 216 (1962) 1550 341 399 440 592 981 2540 2950 3530 3690
2020-05-23 10:30 7.38 3680 4580 (1957) 216 (1962) 1550 341 399 440 592 981 2540 2950 3530 3690
2020-05-23 09:30 7.39 3690 4580 (1957) 216 (1962) 1550 341 399 440 592 981 2540 2950 3530 3690
2020-05-23 08:30 7.38 3680 4580 (1957) 216 (1962) 1550 341 399 440 592 981 2540 2950 3530 3690
2020-05-23 07:30 7.40 3700 4580 (1957) 216 (1962) 1550 341 399 440 592 981 2540 2950 3530 3690
2020-05-23 06:30 7.40 3700 4580 (1957) 216 (1962) 1550 341 399 440 592 981 2540 2950 3530 3690
2020-05-23 05:30 7.41 3710 4580 (1957) 216 (1962) 1550 341 399 440 592 981 2540 2950 3530 3690
2020-05-23 04:30 7.41 3710 4580 (1957) 216 (1962) 1550 341 399 440 592 981 2540 2950 3530 3690
2020-05-23 03:30 7.42 3720 4580 (1957) 216 (1962) 1550 341 399 440 592 981 2540 2950 3530 3690
2020-05-23 02:30 7.40 3700 4580 (1957) 216 (1962) 1550 341 399 440 592 981 2540 2950 3530 3690
2020-05-23 01:30 7.42 3720 4580 (1957) 216 (1962) 1550 341 399 440 592 981 2540 2950 3530 3690
2020-05-23 00:30 7.42 3720 4580 (1957) 216 (1962) 1550 341 399 440 592 981 2540 2950 3530 3690
2020-05-22 23:30 7.44 3740 3940 (1961) 219 (1962) 1570 334 405 450 535 1100 2650 2960 3480 3660
2020-05-22 22:30 7.40 3700 3940 (1961) 219 (1962) 1570 334 405 450 535 1100 2650 2960 3480 3660
2020-05-22 21:30 7.40 3700 3940 (1961) 219 (1962) 1570 334 405 450 535 1100 2650 2960 3480 3660
2020-05-22 20:30 7.42 3720 3940 (1961) 219 (1962) 1570 334 405 450 535 1100 2650 2960 3480 3660
2020-05-22 19:30 7.43 3730 3940 (1961) 219 (1962) 1570 334 405 450 535 1100 2650 2960 3480 3660
2020-05-22 18:30 7.41 3710 3940 (1961) 219 (1962) 1570 334 405 450 535 1100 2650 2960 3480 3660
2020-05-22 17:30 7.40 3700 3940 (1961) 219 (1962) 1570 334 405 450 535 1100 2650 2960 3480 3660
2020-05-22 16:30 7.37 3670 3940 (1961) 219 (1962) 1570 334 405 450 535 1100 2650 2960 3480 3660
2020-05-22 15:30 7.32 3620 3940 (1961) 219 (1962) 1570 334 405 450 535 1100 2650 2960 3480 3660
2020-05-22 14:30 7.28 3590 3940 (1961) 219 (1962) 1570 334 405 450 535 1100 2650 2960 3480 3660
2020-05-22 13:30 7.22 3530 3940 (1961) 219 (1962) 1570 334 405 450 535 1100 2650 2960 3480 3660
2020-05-22 12:30 7.15 3460 3940 (1961) 219 (1962) 1570 334 405 450 535 1100 2650 2960 3480 3660
2020-05-22 11:30 7.09 3400 3940 (1961) 219 (1962) 1570 334 405 450 535 1100 2650 2960 3480 3660
2020-05-22 10:30 7.03 3350 3940 (1961) 219 (1962) 1570 334 405 450 535 1100 2650 2960 3480 3660
2020-05-22 09:30 7.02 3340 3940 (1961) 219 (1962) 1570 334 405 450 535 1100 2650 2960 3480 3660
2020-05-22 08:30 7.03 3350 3940 (1961) 219 (1962) 1570 334 405 450 535 1100 2650 2960 3480 3660
2020-05-22 07:30 7.05 3370 3940 (1961) 219 (1962) 1570 334 405 450 535 1100 2650 2960 3480 3660
2020-05-22 06:30 7.03 3350 3940 (1961) 219 (1962) 1570 334 405 450 535 1100 2650 2960 3480 3660
2020-05-22 05:30 7.03 3350 3940 (1961) 219 (1962) 1570 334 405 450 535 1100 2650 2960 3480 3660
2020-05-22 04:30 7.04 3360 3940 (1961) 219 (1962) 1570 334 405 450 535 1100 2650 2960 3480 3660
2020-05-22 03:30 7.04 3360 3940 (1961) 219 (1962) 1570 334 405 450 535 1100 2650 2960 3480 3660
2020-05-22 02:30 7.05 3370 3940 (1961) 219 (1962) 1570 334 405 450 535 1100 2650 2960 3480 3660
2020-05-22 01:30 7.05 3370 3940 (1961) 219 (1962) 1570 334 405 450 535 1100 2650 2960 3480 3660
2020-05-22 00:30 7.05 3370 3940 (1961) 219 (1962) 1570 334 405 450 535 1100 2650 2960 3480 3660
2020-05-21 23:30 7.05 3370 4020 (1961) 224 (1962) 1610 340 369 496 507 1300 2690 2840 3480 3650
2020-05-21 22:30 7.05 3370 4020 (1961) 224 (1962) 1610 340 369 496 507 1300 2690 2840 3480 3650
2020-05-21 21:30 7.05 3370 4020 (1961) 224 (1962) 1610 340 369 496 507 1300 2690 2840 3480 3650
2020-05-21 20:30 7.06 3380 4020 (1961) 224 (1962) 1610 340 369 496 507 1300 2690 2840 3480 3650
2020-05-21 19:30 7.05 3370 4020 (1961) 224 (1962) 1610 340 369 496 507 1300 2690 2840 3480 3650
2020-05-21 18:30 7.05 3370 4020 (1961) 224 (1962) 1610 340 369 496 507 1300 2690 2840 3480 3650
2020-05-21 17:30 7.05 3370 4020 (1961) 224 (1962) 1610 340 369 496 507 1300 2690 2840 3480 3650
2020-05-21 16:30 7.05 3370 4020 (1961) 224 (1962) 1610 340 369 496 507 1300 2690 2840 3480 3650
2020-05-21 15:30 7.04 3360 4020 (1961) 224 (1962) 1610 340 369 496 507 1300 2690 2840 3480 3650
2020-05-21 14:30 7.03 3350 4020 (1961) 224 (1962) 1610 340 369 496 507 1300 2690 2840 3480 3650
2020-05-21 13:30 7.01 3330 4020 (1961) 224 (1962) 1610 340 369 496 507 1300 2690 2840 3480 3650
2020-05-21 12:30 6.98 3300 4020 (1961) 224 (1962) 1610 340 369 496 507 1300 2690 2840 3480 3650
2020-05-21 11:30 6.94 3270 4020 (1961) 224 (1962) 1610 340 369 496 507 1300 2690 2840 3480 3650
2020-05-21 10:30 6.93 3260 4020 (1961) 224 (1962) 1610 340 369 496 507 1300 2690 2840 3480 3650
2020-05-21 09:30 6.92 3250 4020 (1961) 224 (1962) 1610 340 369 496 507 1300 2690 2840 3480 3650
2020-05-21 08:30 6.93 3260 4020 (1961) 224 (1962) 1610 340 369 496 507 1300 2690 2840 3480 3650
2020-05-21 07:30 6.92 3250 4020 (1961) 224 (1962) 1610 340 369 496 507 1300 2690 2840 3480 3650
2020-05-21 06:30 6.92 3250 4020 (1961) 224 (1962) 1610 340 369 496 507 1300 2690 2840 3480 3650
2020-05-21 05:30 6.93 3260 4020 (1961) 224 (1962) 1610 340 369 496 507 1300 2690 2840 3480 3650
2020-05-21 04:30 6.94 3270 4020 (1961) 224 (1962) 1610 340 369 496 507 1300 2690 2840 3480 3650
2020-05-21 03:30 6.94 3270 4020 (1961) 224 (1962) 1610 340 369 496 507 1300 2690 2840 3480 3650
2020-05-21 02:30 6.95 3280 4020 (1961) 224 (1962) 1610 340 369 496 507 1300 2690 2840 3480 3650
2020-05-21 01:30 6.94 3270 4020 (1961) 224 (1962) 1610 340 369 496 507 1300 2690 2840 3480 3650
2020-05-21 00:30 6.93 3260 4020 (1961) 224 (1962) 1610 340 369 496 507 1300 2690 2840 3480 3650
2020-05-20 23:30 6.95 3280 4110 (1961) 234 (1962) 1640 350 370 476 535 1290 2820 2960 3480 3680
2020-05-20 22:30 6.94 3270 4110 (1961) 234 (1962) 1640 350 370 476 535 1290 2820 2960 3480 3680
2020-05-20 21:30 6.95 3280 4110 (1961) 234 (1962) 1640 350 370 476 535 1290 2820 2960 3480 3680
2020-05-20 20:30 6.94 3270 4110 (1961) 234 (1962) 1640 350 370 476 535 1290 2820 2960 3480 3680
2020-05-20 19:30 6.94 3270 4110 (1961) 234 (1962) 1640 350 370 476 535 1290 2820 2960 3480 3680
2020-05-20 18:30 6.94 3270 4110 (1961) 234 (1962) 1640 350 370 476 535 1290 2820 2960 3480 3680
2020-05-20 17:30 6.92 3250 4110 (1961) 234 (1962) 1640 350 370 476 535 1290 2820 2960 3480 3680
2020-05-20 16:30 6.90 3240 4110 (1961) 234 (1962) 1640 350 370 476 535 1290 2820 2960 3480 3680
2020-05-20 15:30 6.88 3220 4110 (1961) 234 (1962) 1640 350 370 476 535 1290 2820 2960 3480 3680
2020-05-20 14:30 6.86 3200 4110 (1961) 234 (1962) 1640 350 370 476 535 1290 2820 2960 3480 3680
2020-05-20 13:30 6.80 3150 4110 (1961) 234 (1962) 1640 350 370 476 535 1290 2820 2960 3480 3680
2020-05-20 12:30 6.75 3110 4110 (1961) 234 (1962) 1640 350 370 476 535 1290 2820 2960 3480 3680
2020-05-20 11:30 6.69 3060 4110 (1961) 234 (1962) 1640 350 370 476 535 1290 2820 2960 3480 3680
2020-05-20 10:30 6.62 3000 4110 (1961) 234 (1962) 1640 350 370 476 535 1290 2820 2960 3480 3680
2020-05-20 09:30 6.62 3000 4110 (1961) 234 (1962) 1640 350 370 476 535 1290 2820 2960 3480 3680
2020-05-20 08:30 6.59 2980 4110 (1961) 234 (1962) 1640 350 370 476 535 1290 2820 2960 3480 3680
2020-05-20 07:30 6.61 3000 4110 (1961) 234 (1962) 1640 350 370 476 535 1290 2820 2960 3480 3680
2020-05-20 06:30 6.59 2980 4110 (1961) 234 (1962) 1640 350 370 476 535 1290 2820 2960 3480 3680
2020-05-20 05:30 6.59 2980 4110 (1961) 234 (1962) 1640 350 370 476 535 1290 2820 2960 3480 3680
2020-05-20 04:30 6.59 2980 4110 (1961) 234 (1962) 1640 350 370 476 535 1290 2820 2960 3480 3680
2020-05-20 03:30 6.59 2980 4110 (1961) 234 (1962) 1640 350 370 476 535 1290 2820 2960 3480 3680
2020-05-20 02:30 6.58 2970 4110 (1961) 234 (1962) 1640 350 370 476 535 1290 2820 2960 3480 3680
2020-05-20 01:30 6.59 2980 4110 (1961) 234 (1962) 1640 350 370 476 535 1290 2820 2960 3480 3680
2020-05-20 00:30 6.56 2960 4110 (1961) 234 (1962) 1640 350 370 476 535 1290 2820 2960 3480 3680
2020-05-19 23:30 6.54 2940 3860 (1961) 286 (1962) 1660 343 398 480 524 1380 2810 3100 3630 3860
2020-05-19 22:30 6.50 2910 3860 (1961) 286 (1962) 1660 343 398 480 524 1380 2810 3100 3630 3860
2020-05-19 21:30 6.46 2880 3860 (1961) 286 (1962) 1660 343 398 480 524 1380 2810 3100 3630 3860
2020-05-19 20:30 6.42 2840 3860 (1961) 286 (1962) 1660 343 398 480 524 1380 2810 3100 3630 3860
2020-05-19 19:30 6.32 2760 3860 (1961) 286 (1962) 1660 343 398 480 524 1380 2810 3100 3630 3860
2020-05-19 18:30 6.26 2720 3860 (1961) 286 (1962) 1660 343 398 480 524 1380 2810 3100 3630 3860
2020-05-19 17:30 6.21 2680 3860 (1961) 286 (1962) 1660 343 398 480 524 1380 2810 3100 3630 3860
2020-05-19 16:30 6.18 2650 3860 (1961) 286 (1962) 1660 343 398 480 524 1380 2810 3100 3630 3860
2020-05-19 15:30 6.16 2640 3860 (1961) 286 (1962) 1660 343 398 480 524 1380 2810 3100 3630 3860
2020-05-19 14:30 6.11 2600 3860 (1961) 286 (1962) 1660 343 398 480 524 1380 2810 3100 3630 3860
2020-05-19 13:30 6.05 2550 3860 (1961) 286 (1962) 1660 343 398 480 524 1380 2810 3100 3630 3860
2020-05-19 12:30 5.98 2500 3860 (1961) 286 (1962) 1660 343 398 480 524 1380 2810 3100 3630 3860
2020-05-19 11:30 5.90 2440 3860 (1961) 286 (1962) 1660 343 398 480 524 1380 2810 3100 3630 3860
2020-05-19 10:30 5.84 2400 3860 (1961) 286 (1962) 1660 343 398 480 524 1380 2810 3100 3630 3860
2020-05-19 09:30 5.82 2380 3860 (1961) 286 (1962) 1660 343 398 480 524 1380 2810 3100 3630 3860
2020-05-19 08:30 5.82 2380 3860 (1961) 286 (1962) 1660 343 398 480 524 1380 2810 3100 3630 3860
2020-05-19 07:30 5.80 2370 3860 (1961) 286 (1962) 1660 343 398 480 524 1380 2810 3100 3630 3860
2020-05-19 06:30 5.79 2360 3860 (1961) 286 (1962) 1660 343 398 480 524 1380 2810 3100 3630 3860
2020-05-19 05:30 5.79 2360 3860 (1961) 286 (1962) 1660 343 398 480 524 1380 2810 3100 3630 3860
2020-05-19 04:30 5.81 2370 3860 (1961) 286 (1962) 1660 343 398 480 524 1380 2810 3100 3630 3860
2020-05-19 03:30 5.79 2360 3860 (1961) 286 (1962) 1660 343 398 480 524 1380 2810 3100 3630 3860
2020-05-19 02:30 5.77 2340 3860 (1961) 286 (1962) 1660 343 398 480 524 1380 2810 3100 3630 3860
2020-05-19 01:30 5.75 2330 3860 (1961) 286 (1962) 1660 343 398 480 524 1380 2810 3100 3630 3860
2020-05-19 00:30 5.73 2310 3860 (1961) 286 (1962) 1660 343 398 480 524 1380 2810 3100 3630 3860
2020-05-18 23:30 5.68 2280 3890 (2017) 300 (1977) 1710 341 383 484 540 1460 2930 3200 3560 3690
2020-05-18 22:30 5.63 2240 3890 (2017) 300 (1977) 1710 341 383 484 540 1460 2930 3200 3560 3690
2020-05-18 21:30 5.56 2190 3890 (2017) 300 (1977) 1710 341 383 484 540 1460 2930 3200 3560 3690
2020-05-18 20:30 5.46 2120 3890 (2017) 300 (1977) 1710 341 383 484 540 1460 2930 3200 3560 3690
2020-05-18 19:30 5.36 2050 3890 (2017) 300 (1977) 1710 341 383 484 540 1460 2930 3200 3560 3690
2020-05-18 18:30 5.21 1940 3890 (2017) 300 (1977) 1710 341 383 484 540 1460 2930 3200 3560 3690
2020-05-18 17:30 5.11 1880 3890 (2017) 300 (1977) 1710 341 383 484 540 1460 2930 3200 3560 3690
2020-05-18 16:30 5.00 1800 3890 (2017) 300 (1977) 1710 341 383 484 540 1460 2930 3200 3560 3690
2020-05-18 15:30 4.87 1720 3890 (2017) 300 (1977) 1710 341 383 484 540 1460 2930 3200 3560 3690
2020-05-18 14:30 4.69 1600 3890 (2017) 300 (1977) 1710 341 383 484 540 1460 2930 3200 3560 3690
2020-05-18 13:30 4.42 1430 3890 (2017) 300 (1977) 1710 341 383 484 540 1460 2930 3200 3560 3690
2020-05-18 12:30 4.06 1220 3890 (2017) 300 (1977) 1710 341 383 484 540 1460 2930 3200 3560 3690
2020-05-18 11:30 3.68 1010 3890 (2017) 300 (1977) 1710 341 383 484 540 1460 2930 3200 3560 3690
2020-05-18 10:30 3.45 890 3890 (2017) 300 (1977) 1710 341 383 484 540 1460 2930 3200 3560 3690
2020-05-18 09:30 3.46 895 3890 (2017) 300 (1977) 1710 341 383 484 540 1460 2930 3200 3560 3690
2020-05-18 08:30 3.46 895 3890 (2017) 300 (1977) 1710 341 383 484 540 1460 2930 3200 3560 3690
2020-05-18 07:30 3.49 911 3890 (2017) 300 (1977) 1710 341 383 484 540 1460 2930 3200 3560 3690
2020-05-18 06:30 3.54 936 3890 (2017) 300 (1977) 1710 341 383 484 540 1460 2930 3200 3560 3690
2020-05-18 05:30 3.59 962 3890 (2017) 300 (1977) 1710 341 383 484 540 1460 2930 3200 3560 3690
2020-05-18 04:30 3.63 983 3890 (2017) 300 (1977) 1710 341 383 484 540 1460 2930 3200 3560 3690
2020-05-18 03:30 3.69 1010 3890 (2017) 300 (1977) 1710 341 383 484 540 1460 2930 3200 3560 3690
2020-05-18 02:30 3.74 1040 3890 (2017) 300 (1977) 1710 341 383 484 540 1460 2930 3200 3560 3690
2020-05-18 01:30 3.80 1070 3890 (2017) 300 (1977) 1710 341 383 484 540 1460 2930 3200 3560 3690
2020-05-18 00:30 3.88 1120 3890 (2017) 300 (1977) 1710 341 383 484 540 1460 2930 3200 3560 3690
2020-05-17 23:30 3.97 1170 3950 (2017) 283 (1981) 1710 345 373 466 537 1360 3100 3270 3530 3680
2020-05-17 22:30 4.07 1230 3950 (2017) 283 (1981) 1710 345 373 466 537 1360 3100 3270 3530 3680
2020-05-17 21:30 4.19 1290 3950 (2017) 283 (1981) 1710 345 373 466 537 1360 3100 3270 3530 3680
2020-05-17 20:30 4.35 1390 3950 (2017) 283 (1981) 1710 345 373 466 537 1360 3100 3270 3530 3680
2020-05-17 19:30 4.54 1510 3950 (2017) 283 (1981) 1710 345 373 466 537 1360 3100 3270 3530 3680
2020-05-17 18:30 4.74 1630 3950 (2017) 283 (1981) 1710 345 373 466 537 1360 3100 3270 3530 3680
2020-05-17 17:30 4.94 1760 3950 (2017) 283 (1981) 1710 345 373 466 537 1360 3100 3270 3530 3680
2020-05-17 16:30 5.06 1840 3950 (2017) 283 (1981) 1710 345 373 466 537 1360 3100 3270 3530 3680
2020-05-17 15:30 5.14 1900 3950 (2017) 283 (1981) 1710 345 373 466 537 1360 3100 3270 3530 3680
2020-05-17 14:30 5.21 1940 3950 (2017) 283 (1981) 1710 345 373 466 537 1360 3100 3270 3530 3680
2020-05-17 13:30 5.31 2010 3950 (2017) 283 (1981) 1710 345 373 466 537 1360 3100 3270 3530 3680
2020-05-17 12:30 5.38 2060 3950 (2017) 283 (1981) 1710 345 373 466 537 1360 3100 3270 3530 3680
2020-05-17 11:30 5.51 2150 3950 (2017) 283 (1981) 1710 345 373 466 537 1360 3100 3270 3530 3680
2020-05-17 10:30 5.66 2260 3950 (2017) 283 (1981) 1710 345 373 466 537 1360 3100 3270 3530 3680
2020-05-17 09:30 5.83 2390 3950 (2017) 283 (1981) 1710 345 373 466 537 1360 3100 3270 3530 3680
2020-05-17 08:30 5.96 2490 3950 (2017) 283 (1981) 1710 345 373 466 537 1360 3100 3270 3530 3680
2020-05-17 07:30 5.96 2490 3950 (2017) 283 (1981) 1710 345 373 466 537 1360 3100 3270 3530 3680
2020-05-17 06:30 5.72 2310 3950 (2017) 283 (1981) 1710 345 373 466 537 1360 3100 3270 3530 3680
2020-05-17 05:30 5.47 2130 3950 (2017) 283 (1981) 1710 345 373 466 537 1360 3100 3270 3530 3680
2020-05-17 04:30 5.34 2030 3950 (2017) 283 (1981) 1710 345 373 466 537 1360 3100 3270 3530 3680
2020-05-17 03:30 5.24 1970 3950 (2017) 283 (1981) 1710 345 373 466 537 1360 3100 3270 3530 3680
2020-05-17 02:30 5.17 1920 3950 (2017) 283 (1981) 1710 345 373 466 537 1360 3100 3270 3530 3680
2020-05-17 01:30 5.16 1910 3950 (2017) 283 (1981) 1710 345 373 466 537 1360 3100 3270 3530 3680
2020-05-17 00:30 5.16 1910 3950 (2017) 283 (1981) 1710 345 373 466 537 1360 3100 3270 3530 3680
2020-05-16 23:30 5.16 1910 4050 (2017) 309 (1977) 1630 347 409 492 555 1200 2700 3180 3500 3650
2020-05-16 22:30 5.16 1910 4050 (2017) 309 (1977) 1630 347 409 492 555 1200 2700 3180 3500 3650
2020-05-16 21:30 5.14 1900 4050 (2017) 309 (1977) 1630 347 409 492 555 1200 2700 3180 3500 3650
2020-05-16 20:30 5.12 1880 4050 (2017) 309 (1977) 1630 347 409 492 555 1200 2700 3180 3500 3650
2020-05-16 19:30 5.11 1880 4050 (2017) 309 (1977) 1630 347 409 492 555 1200 2700 3180 3500 3650
2020-05-16 18:30 5.10 1870 4050 (2017) 309 (1977) 1630 347 409 492 555 1200 2700 3180 3500 3650
2020-05-16 17:30 5.10 1870 4050 (2017) 309 (1977) 1630 347 409 492 555 1200 2700 3180 3500 3650
2020-05-16 16:30 5.07 1850 4050 (2017) 309 (1977) 1630 347 409 492 555 1200 2700 3180 3500 3650
2020-05-16 15:30 5.07 1850 4050 (2017) 309 (1977) 1630 347 409 492 555 1200 2700 3180 3500 3650
2020-05-16 14:30 5.09 1860 4050 (2017) 309 (1977) 1630 347 409 492 555 1200 2700 3180 3500 3650
2020-05-16 13:30 5.07 1850 4050 (2017) 309 (1977) 1630 347 409 492 555 1200 2700 3180 3500 3650
2020-05-16 12:30 5.09 1860 4050 (2017) 309 (1977) 1630 347 409 492 555 1200 2700 3180 3500 3650
2020-05-16 11:30 5.09 1860 4050 (2017) 309 (1977) 1630 347 409 492 555 1200 2700 3180 3500 3650
2020-05-16 10:30 5.10 1870 4050 (2017) 309 (1977) 1630 347 409 492 555 1200 2700 3180 3500 3650
2020-05-16 09:30 5.12 1880 4050 (2017) 309 (1977) 1630 347 409 492 555 1200 2700 3180 3500 3650
2020-05-16 08:30 5.12 1880 4050 (2017) 309 (1977) 1630 347 409 492 555 1200 2700 3180 3500 3650
2020-05-16 07:30 5.13 1890 4050 (2017) 309 (1977) 1630 347 409 492 555 1200 2700 3180 3500 3650
2020-05-16 06:30 5.14 1900 4050 (2017) 309 (1977) 1630 347 409 492 555 1200 2700 3180 3500 3650
2020-05-16 05:30 5.14 1900 4050 (2017) 309 (1977) 1630 347 409 492 555 1200 2700 3180 3500 3650
2020-05-16 04:30 5.18 1920 4050 (2017) 309 (1977) 1630 347 409 492 555 1200 2700 3180 3500 3650
2020-05-16 03:30 5.19 1930 4050 (2017) 309 (1977) 1630 347 409 492 555 1200 2700 3180 3500 3650
2020-05-16 02:30 5.17 1920 4050 (2017) 309 (1977) 1630 347 409 492 555 1200 2700 3180 3500 3650
2020-05-16 01:30 5.22 1950 4050 (2017) 309 (1977) 1630 347 409 492 555 1200 2700 3180 3500 3650
2020-05-16 00:30 5.21 1940 4050 (2017) 309 (1977) 1630 347 409 492 555 1200 2700 3180 3500 3650
2020-05-15 23:30 5.24 1970 4120 (2017) 349 (1988) 1610 387 432 496 526 1170 2720 2990 3540 3700
2020-05-15 22:30 5.25 1970 4120 (2017) 349 (1988) 1610 387 432 496 526 1170 2720 2990 3540 3700
2020-05-15 21:30 5.28 1990 4120 (2017) 349 (1988) 1610 387 432 496 526 1170 2720 2990 3540 3700
2020-05-15 20:30 5.30 2010 4120 (2017) 349 (1988) 1610 387 432 496 526 1170 2720 2990 3540 3700
2020-05-15 19:30 5.32 2020 4120 (2017) 349 (1988) 1610 387 432 496 526 1170 2720 2990 3540 3700
2020-05-15 18:30 5.36 2050 4120 (2017) 349 (1988) 1610 387 432 496 526 1170 2720 2990 3540 3700
2020-05-15 17:30 5.37 2060 4120 (2017) 349 (1988) 1610 387 432 496 526 1170 2720 2990 3540 3700
2020-05-15 16:30 5.43 2100 4120 (2017) 349 (1988) 1610 387 432 496 526 1170 2720 2990 3540 3700
2020-05-15 15:30 5.45 2110 4120 (2017) 349 (1988) 1610 387 432 496 526 1170 2720 2990 3540 3700
2020-05-15 14:30 5.47 2130 4120 (2017) 349 (1988) 1610 387 432 496 526 1170 2720 2990 3540 3700
2020-05-15 13:30 5.44 2100 4120 (2017) 349 (1988) 1610 387 432 496 526 1170 2720 2990 3540 3700
2020-05-15 12:30 5.37 2060 4120 (2017) 349 (1988) 1610 387 432 496 526 1170 2720 2990 3540 3700
2020-05-15 11:30 5.29 2000 4120 (2017) 349 (1988) 1610 387 432 496 526 1170 2720 2990 3540 3700
2020-05-15 10:30 5.18 1920 4120 (2017) 349 (1988) 1610 387 432 496 526 1170 2720 2990 3540 3700
2020-05-15 09:30 5.07 1850 4120 (2017) 349 (1988) 1610 387 432 496 526 1170 2720 2990 3540 3700
2020-05-15 08:30 5.00 1800 4120 (2017) 349 (1988) 1610 387 432 496 526 1170 2720 2990 3540 3700
2020-05-15 07:30 4.99 1800 4120 (2017) 349 (1988) 1610 387 432 496 526 1170 2720 2990 3540 3700
2020-05-15 06:30 4.98 1790 4120 (2017) 349 (1988) 1610 387 432 496 526 1170 2720 2990 3540 3700
2020-05-15 05:30 4.98 1790 4120 (2017) 349 (1988) 1610 387 432 496 526 1170 2720 2990 3540 3700
2020-05-15 04:30 4.96 1780 4120 (2017) 349 (1988) 1610 387 432 496 526 1170 2720 2990 3540 3700
2020-05-15 03:30 4.95 1770 4120 (2017) 349 (1988) 1610 387 432 496 526 1170 2720 2990 3540 3700
2020-05-15 02:30 4.93 1760 4120 (2017) 349 (1988) 1610 387 432 496 526 1170 2720 2990 3540 3700
2020-05-15 01:30 4.92 1750 4120 (2017) 349 (1988) 1610 387 432 496 526 1170 2720 2990 3540 3700
2020-05-15 00:30 4.88 1720 4120 (2017) 349 (1988) 1610 387 432 496 526 1170 2720 2990 3540 3700
2020-05-14 23:30 4.80 1670 4160 (2017) 236 (1980) 1610 351 426 525 574 967 2700 2880 3570 3780
2020-05-14 22:30 4.79 1660 4160 (2017) 236 (1980) 1610 351 426 525 574 967 2700 2880 3570 3780
2020-05-14 21:30 4.78 1660 4160 (2017) 236 (1980) 1610 351 426 525 574 967 2700 2880 3570 3780
2020-05-14 20:30 4.80 1670 4160 (2017) 236 (1980) 1610 351 426 525 574 967 2700 2880 3570 3780
2020-05-14 19:30 4.79 1660 4160 (2017) 236 (1980) 1610 351 426 525 574 967 2700 2880 3570 3780
2020-05-14 18:30 4.78 1660 4160 (2017) 236 (1980) 1610 351 426 525 574 967 2700 2880 3570 3780
2020-05-14 17:30 4.79 1660 4160 (2017) 236 (1980) 1610 351 426 525 574 967 2700 2880 3570 3780
2020-05-14 16:30 4.78 1660 4160 (2017) 236 (1980) 1610 351 426 525 574 967 2700 2880 3570 3780
2020-05-14 15:30 4.78 1660 4160 (2017) 236 (1980) 1610 351 426 525 574 967 2700 2880 3570 3780
2020-05-14 14:30 4.78 1660 4160 (2017) 236 (1980) 1610 351 426 525 574 967 2700 2880 3570 3780
2020-05-14 13:30 4.76 1650 4160 (2017) 236 (1980) 1610 351 426 525 574 967 2700 2880 3570 3780
2020-05-14 12:30 4.72 1620 4160 (2017) 236 (1980) 1610 351 426 525 574 967 2700 2880 3570 3780
2020-05-14 11:30 4.70 1610 4160 (2017) 236 (1980) 1610 351 426 525 574 967 2700 2880 3570 3780
2020-05-14 10:30 4.66 1580 4160 (2017) 236 (1980) 1610 351 426 525 574 967 2700 2880 3570 3780
2020-05-14 09:30 4.65 1570 4160 (2017) 236 (1980) 1610 351 426 525 574 967 2700 2880 3570 3780
2020-05-14 08:30 4.66 1580 4160 (2017) 236 (1980) 1610 351 426 525 574 967 2700 2880 3570 3780
2020-05-14 07:30 4.67 1590 4160 (2017) 236 (1980) 1610 351 426 525 574 967 2700 2880 3570 3780
2020-05-14 06:30 4.68 1590 4160 (2017) 236 (1980) 1610 351 426 525 574 967 2700 2880 3570 3780
2020-05-14 05:30 4.68 1590 4160 (2017) 236 (1980) 1610 351 426 525 574 967 2700 2880 3570 3780
2020-05-14 04:30 4.68 1590 4160 (2017) 236 (1980) 1610 351 426 525 574 967 2700 2880 3570 3780
2020-05-14 03:30 4.69 1600 4160 (2017) 236 (1980) 1610 351 426 525 574 967 2700 2880 3570 3780
2020-05-14 02:30 4.70 1610 4160 (2017) 236 (1980) 1610 351 426 525 574 967 2700 2880 3570 3780
2020-05-14 01:30 4.69 1600 4160 (2017) 236 (1980) 1610 351 426 525 574 967 2700 2880 3570 3780
2020-05-14 00:30 4.70 1610 4160 (2017) 236 (1980) 1610 351 426 525 574 967 2700 2880 3570 3780
2020-05-13 23:30 4.71 1610 4220 (2017) 214 (1980) 1630 333 434 536 557 1020 2860 3110 3290 3560
2020-05-13 22:30 4.68 1590 4220 (2017) 214 (1980) 1630 333 434 536 557 1020 2860 3110 3290 3560
2020-05-13 21:30 4.71 1610 4220 (2017) 214 (1980) 1630 333 434 536 557 1020 2860 3110 3290 3560
2020-05-13 20:30 4.72 1620 4220 (2017) 214 (1980) 1630 333 434 536 557 1020 2860 3110 3290 3560
2020-05-13 19:30 4.76 1650 4220 (2017) 214 (1980) 1630 333 434 536 557 1020 2860 3110 3290 3560
2020-05-13 18:30 4.80 1670 4220 (2017) 214 (1980) 1630 333 434 536 557 1020 2860 3110 3290 3560
2020-05-13 17:30 4.82 1680 4220 (2017) 214 (1980) 1630 333 434 536 557 1020 2860 3110 3290 3560
2020-05-13 16:30 4.84 1700 4220 (2017) 214 (1980) 1630 333 434 536 557 1020 2860 3110 3290 3560
2020-05-13 15:30 4.74 1630 4220 (2017) 214 (1980) 1630 333 434 536 557 1020 2860 3110 3290 3560
2020-05-13 14:30 4.72 1620 4220 (2017) 214 (1980) 1630 333 434 536 557 1020 2860 3110 3290 3560
2020-05-13 13:30 4.77 1650 4220 (2017) 214 (1980) 1630 333 434 536 557 1020 2860 3110 3290 3560
2020-05-13 12:30 4.82 1680 4220 (2017) 214 (1980) 1630 333 434 536 557 1020 2860 3110 3290 3560
2020-05-13 11:30 4.87 1720 4220 (2017) 214 (1980) 1630 333 434 536 557 1020 2860 3110 3290 3560
2020-05-13 10:30 4.92 1750 4220 (2017) 214 (1980) 1630 333 434 536 557 1020 2860 3110 3290 3560
2020-05-13 09:30 4.93 1760 4220 (2017) 214 (1980) 1630 333 434 536 557 1020 2860 3110 3290 3560
2020-05-13 08:30 4.93 1760 4220 (2017) 214 (1980) 1630 333 434 536 557 1020 2860 3110 3290 3560
2020-05-13 07:30 4.91 1740 4220 (2017) 214 (1980) 1630 333 434 536 557 1020 2860 3110 3290 3560
2020-05-13 06:30 4.91 1740 4220 (2017) 214 (1980) 1630 333 434 536 557 1020 2860 3110 3290 3560
2020-05-13 05:30 4.91 1740 4220 (2017) 214 (1980) 1630 333 434 536 557 1020 2860 3110 3290 3560
2020-05-13 04:30 4.89 1730 4220 (2017) 214 (1980) 1630 333 434 536 557 1020 2860 3110 3290 3560
2020-05-13 03:30 4.90 1740 4220 (2017) 214 (1980) 1630 333 434 536 557 1020 2860 3110 3290 3560
2020-05-13 02:30 4.90 1740 4220 (2017) 214 (1980) 1630 333 434 536 557 1020 2860 3110 3290 3560
2020-05-13 01:30 4.92 1750 4220 (2017) 214 (1980) 1630 333 434 536 557 1020 2860 3110 3290 3560
2020-05-13 00:30 4.92 1750 4220 (2017) 214 (1980) 1630 333 434 536 557 1020 2860 3110 3290 3560
2020-05-12 23:30 4.91 1740 4440 (2017) 216 (1981) 1620 340 387 477 532 979 2750 2890 3390 3700
2020-05-12 22:30 4.91 1740 4440 (2017) 216 (1981) 1620 340 387 477 532 979 2750 2890 3390 3700
2020-05-12 21:30 4.89 1730 4440 (2017) 216 (1981) 1620 340 387 477 532 979 2750 2890 3390 3700
2020-05-12 20:30 4.90 1740 4440 (2017) 216 (1981) 1620 340 387 477 532 979 2750 2890 3390 3700
2020-05-12 19:30 4.90 1740 4440 (2017) 216 (1981) 1620 340 387 477 532 979 2750 2890 3390 3700
2020-05-12 18:30 4.89 1730 4440 (2017) 216 (1981) 1620 340 387 477 532 979 2750 2890 3390 3700
2020-05-12 17:30 4.90 1740 4440 (2017) 216 (1981) 1620 340 387 477 532 979 2750 2890 3390 3700
2020-05-12 16:30 4.90 1740 4440 (2017) 216 (1981) 1620 340 387 477 532 979 2750 2890 3390 3700
2020-05-12 15:30 4.89 1730 4440 (2017) 216 (1981) 1620 340 387 477 532 979 2750 2890 3390 3700
2020-05-12 14:30 4.89 1730 4440 (2017) 216 (1981) 1620 340 387 477 532 979 2750 2890 3390 3700
2020-05-12 13:30 4.89 1730 4440 (2017) 216 (1981) 1620 340 387 477 532 979 2750 2890 3390 3700
2020-05-12 12:30 4.88 1720 4440 (2017) 216 (1981) 1620 340 387 477 532 979 2750 2890 3390 3700
2020-05-12 11:30 4.89 1730 4440 (2017) 216 (1981) 1620 340 387 477 532 979 2750 2890 3390 3700
2020-05-12 10:30 4.89 1730 4440 (2017) 216 (1981) 1620 340 387 477 532 979 2750 2890 3390 3700
2020-05-12 09:30 4.90 1740 4440 (2017) 216 (1981) 1620 340 387 477 532 979 2750 2890 3390 3700
2020-05-12 08:30 4.90 1740 4440 (2017) 216 (1981) 1620 340 387 477 532 979 2750 2890 3390 3700
2020-05-12 07:30 4.91 1740 4440 (2017) 216 (1981) 1620 340 387 477 532 979 2750 2890 3390 3700
2020-05-12 06:30 4.90 1740 4440 (2017) 216 (1981) 1620 340 387 477 532 979 2750 2890 3390 3700
2020-05-12 05:30 4.88 1720 4440 (2017) 216 (1981) 1620 340 387 477 532 979 2750 2890 3390 3700
2020-05-12 04:30 4.88 1720 4440 (2017) 216 (1981) 1620 340 387 477 532 979 2750 2890 3390 3700
2020-05-12 03:30 4.90 1740 4440 (2017) 216 (1981) 1620 340 387 477 532 979 2750 2890 3390 3700
2020-05-12 02:30 4.88 1720 4440 (2017) 216 (1981) 1620 340 387 477 532 979 2750 2890 3390 3700
2020-05-12 01:30 4.88 1720 4440 (2017) 216 (1981) 1620 340 387 477 532 979 2750 2890 3390 3700
2020-05-12 00:30 4.88 1720 4440 (2017) 216 (1981) 1620 340 387 477 532 979 2750 2890 3390 3700
2020-05-11 23:30 4.87 1720 4740 (2017) 223 (1981) 1680 321 372 492 539 1080 2840 3160 3500 3750
2020-05-11 22:30 4.88 1720 4740 (2017) 223 (1981) 1680 321 372 492 539 1080 2840 3160 3500 3750
2020-05-11 21:30 4.86 1710 4740 (2017) 223 (1981) 1680 321 372 492 539 1080 2840 3160 3500 3750
2020-05-11 20:30 4.86 1710 4740 (2017) 223 (1981) 1680 321 372 492 539 1080 2840 3160 3500 3750
2020-05-11 19:30 4.87 1720 4740 (2017) 223 (1981) 1680 321 372 492 539 1080 2840 3160 3500 3750
2020-05-11 18:30 4.85 1700 4740 (2017) 223 (1981) 1680 321 372 492 539 1080 2840 3160 3500 3750
2020-05-11 17:30 4.83 1690 4740 (2017) 223 (1981) 1680 321 372 492 539 1080 2840 3160 3500 3750
2020-05-11 16:30 4.83 1690 4740 (2017) 223 (1981) 1680 321 372 492 539 1080 2840 3160 3500 3750
2020-05-11 15:30 4.78 1660 4740 (2017) 223 (1981) 1680 321 372 492 539 1080 2840 3160 3500 3750
2020-05-11 14:30 4.74 1630 4740 (2017) 223 (1981) 1680 321 372 492 539 1080 2840 3160 3500 3750
2020-05-11 13:30 4.69 1600 4740 (2017) 223 (1981) 1680 321 372 492 539 1080 2840 3160 3500 3750
2020-05-11 12:30 4.62 1560 4740 (2017) 223 (1981) 1680 321 372 492 539 1080 2840 3160 3500 3750
2020-05-11 11:30 4.54 1510 4740 (2017) 223 (1981) 1680 321 372 492 539 1080 2840 3160 3500 3750
2020-05-11 10:30 4.46 1460 4740 (2017) 223 (1981) 1680 321 372 492 539 1080 2840 3160 3500 3750
2020-05-11 09:30 4.43 1440 4740 (2017) 223 (1981) 1680 321 372 492 539 1080 2840 3160 3500 3750
2020-05-11 08:30 4.43 1440 4740 (2017) 223 (1981) 1680 321 372 492 539 1080 2840 3160 3500 3750
2020-05-11 07:30 4.43 1440 4740 (2017) 223 (1981) 1680 321 372 492 539 1080 2840 3160 3500 3750
2020-05-11 06:30 4.43 1440 4740 (2017) 223 (1981) 1680 321 372 492 539 1080 2840 3160 3500 3750
2020-05-11 05:30 4.42 1430 4740 (2017) 223 (1981) 1680 321 372 492 539 1080 2840 3160 3500 3750
2020-05-11 04:30 4.44 1440 4740 (2017) 223 (1981) 1680 321 372 492 539 1080 2840 3160 3500 3750
2020-05-11 03:30 4.43 1440 4740 (2017) 223 (1981) 1680 321 372 492 539 1080 2840 3160 3500 3750
2020-05-11 02:30 4.43 1440 4740 (2017) 223 (1981) 1680 321 372 492 539 1080 2840 3160 3500 3750
2020-05-11 01:30 4.43 1440 4740 (2017) 223 (1981) 1680 321 372 492 539 1080 2840 3160 3500 3750
2020-05-11 00:30 4.42 1430 4740 (2017) 223 (1981) 1680 321 372 492 539 1080 2840 3160 3500 3750
2020-05-10 23:30 4.43 1440 4840 (2017) 230 (1981) 1690 301 347 473 519 1060 2970 3110 3500 3590
2020-05-10 22:30 4.43 1440 4840 (2017) 230 (1981) 1690 301 347 473 519 1060 2970 3110 3500 3590
2020-05-10 21:30 4.42 1430 4840 (2017) 230 (1981) 1690 301 347 473 519 1060 2970 3110 3500 3590
2020-05-10 20:30 4.44 1440 4840 (2017) 230 (1981) 1690 301 347 473 519 1060 2970 3110 3500 3590
2020-05-10 19:30 4.45 1450 4840 (2017) 230 (1981) 1690 301 347 473 519 1060 2970 3110 3500 3590
2020-05-10 18:30 4.45 1450 4840 (2017) 230 (1981) 1690 301 347 473 519 1060 2970 3110 3500 3590
2020-05-10 17:30 4.46 1460 4840 (2017) 230 (1981) 1690 301 347 473 519 1060 2970 3110 3500 3590
2020-05-10 16:30 4.46 1460 4840 (2017) 230 (1981) 1690 301 347 473 519 1060 2970 3110 3500 3590
2020-05-10 15:30 4.46 1460 4840 (2017) 230 (1981) 1690 301 347 473 519 1060 2970 3110 3500 3590
2020-05-10 14:30 4.46 1460 4840 (2017) 230 (1981) 1690 301 347 473 519 1060 2970 3110 3500 3590
2020-05-10 13:30 4.45 1450 4840 (2017) 230 (1981) 1690 301 347 473 519 1060 2970 3110 3500 3590
2020-05-10 12:30 4.46 1460 4840 (2017) 230 (1981) 1690 301 347 473 519 1060 2970 3110 3500 3590
2020-05-10 11:30 4.45 1450 4840 (2017) 230 (1981) 1690 301 347 473 519 1060 2970 3110 3500 3590
2020-05-10 10:30 4.47 1460 4840 (2017) 230 (1981) 1690 301 347 473 519 1060 2970 3110 3500 3590
2020-05-10 09:30 4.46 1460 4840 (2017) 230 (1981) 1690 301 347 473 519 1060 2970 3110 3500 3590
2020-05-10 08:30 4.48 1470 4840 (2017) 230 (1981) 1690 301 347 473 519 1060 2970 3110 3500 3590
2020-05-10 07:30 4.47 1460 4840 (2017) 230 (1981) 1690 301 347 473 519 1060 2970 3110 3500 3590
2020-05-10 06:30 4.48 1470 4840 (2017) 230 (1981) 1690 301 347 473 519 1060 2970 3110 3500 3590
2020-05-10 05:30 4.48 1470 4840 (2017) 230 (1981) 1690 301 347 473 519 1060 2970 3110 3500 3590
2020-05-10 04:30 4.48 1470 4840 (2017) 230 (1981) 1690 301 347 473 519 1060 2970 3110 3500 3590
2020-05-10 03:30 4.50 1480 4840 (2017) 230 (1981) 1690 301 347 473 519 1060 2970 3110 3500 3590
2020-05-10 02:30 4.51 1490 4840 (2017) 230 (1981) 1690 301 347 473 519 1060 2970 3110 3500 3590
2020-05-10 01:30 4.53 1500 4840 (2017) 230 (1981) 1690 301 347 473 519 1060 2970 3110 3500 3590
2020-05-10 00:30 4.55 1510 4840 (2017) 230 (1981) 1690 301 347 473 519 1060 2970 3110 3500 3590
2020-05-09 23:30 4.56 1520 4880 (2017) 194 (1980) 1680 288 352 500 548 1190 2890 3190 3520 3630
2020-05-09 22:30 4.60 1540 4880 (2017) 194 (1980) 1680 288 352 500 548 1190 2890 3190 3520 3630
2020-05-09 21:30 4.65 1570 4880 (2017) 194 (1980) 1680 288 352 500 548 1190 2890 3190 3520 3630
2020-05-09 20:30 4.65 1570 4880 (2017) 194 (1980) 1680 288 352 500 548 1190 2890 3190 3520 3630
2020-05-09 19:30 4.65 1570 4880 (2017) 194 (1980) 1680 288 352 500 548 1190 2890 3190 3520 3630
2020-05-09 18:30 4.65 1570 4880 (2017) 194 (1980) 1680 288 352 500 548 1190 2890 3190 3520 3630
2020-05-09 17:30 4.66 1580 4880 (2017) 194 (1980) 1680 288 352 500 548 1190 2890 3190 3520 3630
2020-05-09 16:30 4.65 1570 4880 (2017) 194 (1980) 1680 288 352 500 548 1190 2890 3190 3520 3630
2020-05-09 15:30 4.66 1580 4880 (2017) 194 (1980) 1680 288 352 500 548 1190 2890 3190 3520 3630
2020-05-09 14:30 4.68 1590 4880 (2017) 194 (1980) 1680 288 352 500 548 1190 2890 3190 3520 3630
2020-05-09 13:30 4.68 1590 4880 (2017) 194 (1980) 1680 288 352 500 548 1190 2890 3190 3520 3630
2020-05-09 12:30 4.67 1590 4880 (2017) 194 (1980) 1680 288 352 500 548 1190 2890 3190 3520 3630
2020-05-09 11:30 4.68 1590 4880 (2017) 194 (1980) 1680 288 352 500 548 1190 2890 3190 3520 3630
2020-05-09 10:30 4.70 1610 4880 (2017) 194 (1980) 1680 288 352 500 548 1190 2890 3190 3520 3630
2020-05-09 09:30 4.70 1610 4880 (2017) 194 (1980) 1680 288 352 500 548 1190 2890 3190 3520 3630
2020-05-09 08:30 4.69 1600 4880 (2017) 194 (1980) 1680 288 352 500 548 1190 2890 3190 3520 3630
2020-05-09 07:30 4.70 1610 4880 (2017) 194 (1980) 1680 288 352 500 548 1190 2890 3190 3520 3630
2020-05-09 06:30 4.71 1610 4880 (2017) 194 (1980) 1680 288 352 500 548 1190 2890 3190 3520 3630
2020-05-09 05:30 4.73 1630 4880 (2017) 194 (1980) 1680 288 352 500 548 1190 2890 3190 3520 3630
2020-05-09 04:30 4.73 1630 4880 (2017) 194 (1980) 1680 288 352 500 548 1190 2890 3190 3520 3630
2020-05-09 03:30 4.73 1630 4880 (2017) 194 (1980) 1680 288 352 500 548 1190 2890 3190 3520 3630
2020-05-09 02:30 4.73 1630 4880 (2017) 194 (1980) 1680 288 352 500 548 1190 2890 3190 3520 3630
2020-05-09 01:30 4.79 1660 4880 (2017) 194 (1980) 1680 288 352 500 548 1190 2890 3190 3520 3630
2020-05-09 00:30 4.81 1680 4880 (2017) 194 (1980) 1680 288 352 500 548 1190 2890 3190 3520 3630
2020-05-08 23:30 4.83 1690 5250 (2017) 193 (1980) 1700 292 349 516 555 1140 3010 3260 3570 3660
2020-05-08 22:30 4.89 1730 5250 (2017) 193 (1980) 1700 292 349 516 555 1140 3010 3260 3570 3660
2020-05-08 21:30 4.97 1780 5250 (2017) 193 (1980) 1700 292 349 516 555 1140 3010 3260 3570 3660
2020-05-08 20:30 5.06 1840 5250 (2017) 193 (1980) 1700 292 349 516 555 1140 3010 3260 3570 3660
2020-05-08 19:30 5.15 1900 5250 (2017) 193 (1980) 1700 292 349 516 555 1140 3010 3260 3570 3660
2020-05-08 18:30 5.21 1940 5250 (2017) 193 (1980) 1700 292 349 516 555 1140 3010 3260 3570 3660
2020-05-08 17:30 5.25 1970 5250 (2017) 193 (1980) 1700 292 349 516 555 1140 3010 3260 3570 3660
2020-05-08 16:30 5.27 1990 5250 (2017) 193 (1980) 1700 292 349 516 555 1140 3010 3260 3570 3660
2020-05-08 15:30 5.29 2000 5250 (2017) 193 (1980) 1700 292 349 516 555 1140 3010 3260 3570 3660
2020-05-08 14:30 5.36 2050 5250 (2017) 193 (1980) 1700 292 349 516 555 1140 3010 3260 3570 3660
2020-05-08 13:30 5.41 2080 5250 (2017) 193 (1980) 1700 292 349 516 555 1140 3010 3260 3570 3660
2020-05-08 12:30 5.49 2140 5250 (2017) 193 (1980) 1700 292 349 516 555 1140 3010 3260 3570 3660
2020-05-08 11:30 5.56 2190 5250 (2017) 193 (1980) 1700 292 349 516 555 1140 3010 3260 3570 3660
2020-05-08 10:30 5.61 2230 5250 (2017) 193 (1980) 1700 292 349 516 555 1140 3010 3260 3570 3660
2020-05-08 09:30 5.59 2210 5250 (2017) 193 (1980) 1700 292 349 516 555 1140 3010 3260 3570 3660
2020-05-08 08:30 5.61 2230 5250 (2017) 193 (1980) 1700 292 349 516 555 1140 3010 3260 3570 3660
2020-05-08 07:30 5.59 2210 5250 (2017) 193 (1980) 1700 292 349 516 555 1140 3010 3260 3570 3660
2020-05-08 06:30 5.61 2230 5250 (2017) 193 (1980) 1700 292 349 516 555 1140 3010 3260 3570 3660
2020-05-08 05:30 5.58 2200 5250 (2017) 193 (1980) 1700 292 349 516 555 1140 3010 3260 3570 3660
2020-05-08 04:30 5.55 2180 5250 (2017) 193 (1980) 1700 292 349 516 555 1140 3010 3260 3570 3660
2020-05-08 03:30 5.55 2180 5250 (2017) 193 (1980) 1700 292 349 516 555 1140 3010 3260 3570 3660
2020-05-08 02:30 5.53 2170 5250 (2017) 193 (1980) 1700 292 349 516 555 1140 3010 3260 3570 3660
2020-05-08 01:30 5.50 2150 5250 (2017) 193 (1980) 1700 292 349 516 555 1140 3010 3260 3570 3660
2020-05-08 00:30 5.53 2170 5250 (2017) 193 (1980) 1700 292 349 516 555 1140 3010 3260 3570 3660
2020-05-07 23:30 5.54 2180 6070 (2017) 198 (1980) 1710 312 342 534 562 1100 3020 3210 3470 3620
2020-05-07 22:30 5.53 2170 6070 (2017) 198 (1980) 1710 312 342 534 562 1100 3020 3210 3470 3620
2020-05-07 21:30 5.51 2150 6070 (2017) 198 (1980) 1710 312 342 534 562 1100 3020 3210 3470 3620
2020-05-07 20:30 5.52 2160 6070 (2017) 198 (1980) 1710 312 342 534 562 1100 3020 3210 3470 3620
2020-05-07 19:30 5.53 2170 6070 (2017) 198 (1980) 1710 312 342 534 562 1100 3020 3210 3470 3620
2020-05-07 18:30 5.54 2180 6070 (2017) 198 (1980) 1710 312 342 534 562 1100 3020 3210 3470 3620
2020-05-07 17:30 5.55 2180 6070 (2017) 198 (1980) 1710 312 342 534 562 1100 3020 3210 3470 3620
2020-05-07 16:30 5.56 2190 6070 (2017) 198 (1980) 1710 312 342 534 562 1100 3020 3210 3470 3620
2020-05-07 15:30 5.60 2220 6070 (2017) 198 (1980) 1710 312 342 534 562 1100 3020 3210 3470 3620
2020-05-07 14:30 5.64 2250 6070 (2017) 198 (1980) 1710 312 342 534 562 1100 3020 3210 3470 3620
2020-05-07 13:30 5.68 2280 6070 (2017) 198 (1980) 1710 312 342 534 562 1100 3020 3210 3470 3620
2020-05-07 12:30 5.76 2340 6070 (2017) 198 (1980) 1710 312 342 534 562 1100 3020 3210 3470 3620
2020-05-07 11:30 5.82 2380 6070 (2017) 198 (1980) 1710 312 342 534 562 1100 3020 3210 3470 3620
2020-05-07 10:30 5.90 2440 6070 (2017) 198 (1980) 1710 312 342 534 562 1100 3020 3210 3470 3620
2020-05-07 09:30 5.89 2430 6070 (2017) 198 (1980) 1710 312 342 534 562 1100 3020 3210 3470 3620
2020-05-07 08:30 5.90 2440 6070 (2017) 198 (1980) 1710 312 342 534 562 1100 3020 3210 3470 3620
2020-05-07 07:30 5.88 2430 6070 (2017) 198 (1980) 1710 312 342 534 562 1100 3020 3210 3470 3620
2020-05-07 06:30 5.86 2410 6070 (2017) 198 (1980) 1710 312 342 534 562 1100 3020 3210 3470 3620
2020-05-07 05:30 5.84 2400 6070 (2017) 198 (1980) 1710 312 342 534 562 1100 3020 3210 3470 3620
2020-05-07 04:30 5.84 2400 6070 (2017) 198 (1980) 1710 312 342 534 562 1100 3020 3210 3470 3620
2020-05-07 03:30 5.82 2380 6070 (2017) 198 (1980) 1710 312 342 534 562 1100 3020 3210 3470 3620
2020-05-07 02:30 5.79 2360 6070 (2017) 198 (1980) 1710 312 342 534 562 1100 3020 3210 3470 3620
2020-05-07 01:30 5.72 2310 6070 (2017) 198 (1980) 1710 312 342 534 562 1100 3020 3210 3470 3620
2020-05-07 00:30 5.69 2280 6070 (2017) 198 (1980) 1710 312 342 534 562 1100 3020 3210 3470 3620

A total of 2194 rows are displayed for years 1949 through 2019.